Wetterdaten: Donnerstag, 29.11.2018
Datum Zeit Temp. A. Pool Temp. Temp. 5cm Feuchte A. Luftdruck Regen Wind Richtung Richtung Sonnenschein ET UV Solar Taupunkt Windchill Windben Empfang
29.11.2018 00:00 -4,2 C 3,9 C -6,1 C 93 % 1028,6 hPa 0,0 l/m 6,5 km/h (2 Bft) O 93 0 min 0,000 mm 0,0 UV-I 0 W/m -5,2 C -4,3 C 11,3 km/h (2 Bft) 100,00 %
29.11.2018 00:02 -4,1 C 3,9 C -6,1 C 93 % 1028,5 hPa 0,0 l/m 5,8 km/h (2 Bft) O 93 0 min 0,000 mm 0,0 UV-I 0 W/m -5,1 C -4,1 C 9,7 km/h (2 Bft) 100,00 %
29.11.2018 00:04 -4,1 C 3,9 C -6,1 C 93 % 1028,5 hPa 0,0 l/m 6,0 km/h (2 Bft) O 92 0 min 0,000 mm 0,0 UV-I 0 W/m -5,1 C -4,1 C 9,7 km/h (2 Bft) 98,11 %
29.11.2018 00:06 -4,0 C 3,9 C -6,1 C 93 % 1028,5 hPa 0,0 l/m 7,1 km/h (2 Bft) O 82 0 min 0,000 mm 0,0 UV-I 0 W/m -5,0 C -4,8 C 11,3 km/h (2 Bft) 100,00 %
29.11.2018 00:08 -4,0 C 3,9 C -6,1 C 93 % 1028,5 hPa 0,0 l/m 8,7 km/h (2 Bft) O-SO 102 0 min 0,000 mm 0,0 UV-I 0 W/m -5,0 C -6,6 C 14,5 km/h (3 Bft) 100,00 %
29.11.2018 00:10 -4,0 C 3,9 C -6,1 C 93 % 1028,5 hPa 0,0 l/m 6,7 km/h (2 Bft) O-SO 105 0 min 0,000 mm 0,0 UV-I 0 W/m -5,0 C -4,3 C 11,3 km/h (2 Bft) 100,00 %
29.11.2018 00:12 -4,0 C 3,9 C -6,1 C 93 % 1028,5 hPa 0,0 l/m 7,2 km/h (2 Bft) O 101 0 min 0,000 mm 0,0 UV-I 0 W/m -5,0 C -4,9 C 11,3 km/h (2 Bft) 100,00 %
29.11.2018 00:14 -4,0 C 3,9 C -6,1 C 93 % 1028,5 hPa 0,0 l/m 5,4 km/h (1 Bft) O-NO 71 0 min 0,000 mm 0,0 UV-I 0 W/m -5,0 C -4,0 C 11,3 km/h (2 Bft) 97,73 %
29.11.2018 00:16 -3,9 C 3,9 C -6,1 C 93 % 1028,5 hPa 0,0 l/m 6,3 km/h (2 Bft) O 94 0 min 0,000 mm 0,0 UV-I 0 W/m -4,9 C -3,9 C 11,3 km/h (2 Bft) 100,00 %
29.11.2018 00:18 -3,9 C 3,9 C -6,1 C 93 % 1028,5 hPa 0,0 l/m 6,5 km/h (2 Bft) O 87 0 min 0,000 mm 0,0 UV-I 0 W/m -4,9 C -4,0 C 9,7 km/h (2 Bft) 97,56 %
29.11.2018 00:20 -3,9 C 3,9 C -6,1 C 93 % 1028,4 hPa 0,0 l/m 6,6 km/h (2 Bft) O 90 0 min 0,000 mm 0,0 UV-I 0 W/m -4,9 C -4,1 C 11,3 km/h (2 Bft) 100,00 %
29.11.2018 00:22 -4,0 C 3,9 C -5,6 C 93 % 1028,4 hPa 0,0 l/m 6,4 km/h (2 Bft) O-NO 70 0 min 0,000 mm 0,0 UV-I 0 W/m -5,0 C -3,9 C 8,0 km/h (2 Bft) 100,00 %
29.11.2018 00:24 -4,0 C 3,9 C -6,1 C 93 % 1028,4 hPa 0,0 l/m 5,4 km/h (1 Bft) O 96 0 min 0,000 mm 0,0 UV-I 0 W/m -5,0 C -4,0 C 6,4 km/h (2 Bft) 100,00 %
29.11.2018 00:26 -4,1 C 3,9 C -6,1 C 92 % 1028,5 hPa 0,0 l/m 4,3 km/h (1 Bft) O-NO 78 0 min 0,000 mm 0,0 UV-I 0 W/m -5,2 C -4,1 C 6,4 km/h (2 Bft) 100,00 %
29.11.2018 00:28 -4,1 C 3,9 C -6,1 C 92 % 1028,5 hPa 0,0 l/m 3,7 km/h (1 Bft) O 84 0 min 0,000 mm 0,0 UV-I 0 W/m -5,2 C -4,1 C 6,4 km/h (2 Bft) 100,00 %
29.11.2018 00:30 -4,3 C 3,9 C -6,1 C 92 % 1028,5 hPa 0,0 l/m 4,2 km/h (1 Bft) O 82 0 min 0,000 mm 0,0 UV-I 0 W/m -5,4 C -4,3 C 6,4 km/h (2 Bft) 98,21 %
29.11.2018 00:32 -4,3 C 3,9 C -6,7 C 93 % 1028,4 hPa 0,0 l/m 5,2 km/h (1 Bft) O-NO 76 0 min 0,000 mm 0,0 UV-I 0 W/m -5,3 C -4,3 C 8,0 km/h (2 Bft) 97,56 %
29.11.2018 00:34 -4,3 C 3,9 C -6,1 C 93 % 1028,4 hPa 0,0 l/m 5,5 km/h (1 Bft) O-NO 70 0 min 0,000 mm 0,0 UV-I 0 W/m -5,3 C -4,3 C 6,4 km/h (2 Bft) 97,87 %
29.11.2018 00:36 -4,2 C 3,9 C -6,1 C 93 % 1028,4 hPa 0,0 l/m 6,3 km/h (2 Bft) O-NO 67 0 min 0,000 mm 0,0 UV-I 0 W/m -5,2 C -4,2 C 11,3 km/h (2 Bft) 96,00 %
29.11.2018 00:38 -4,2 C 3,9 C -6,1 C 93 % 1028,4 hPa 0,0 l/m 5,9 km/h (2 Bft) O 91 0 min 0,000 mm 0,0 UV-I 0 W/m -5,2 C -4,2 C 9,7 km/h (2 Bft) 94,87 %
29.11.2018 00:40 -4,2 C 3,9 C -6,1 C 93 % 1028,4 hPa 0,0 l/m 7,1 km/h (2 Bft) O 93 0 min 0,000 mm 0,0 UV-I 0 W/m -5,2 C -5,0 C 12,9 km/h (3 Bft) 96,15 %
29.11.2018 00:42 -4,2 C 3,9 C -6,1 C 93 % 1028,4 hPa 0,0 l/m 6,4 km/h (2 Bft) O 80 0 min 0,000 mm 0,0 UV-I 0 W/m -5,2 C -4,1 C 9,7 km/h (2 Bft) 97,62 %
29.11.2018 00:44 -4,1 C 3,9 C -6,1 C 93 % 1028,4 hPa 0,0 l/m 7,3 km/h (2 Bft) O 81 0 min 0,000 mm 0,0 UV-I 0 W/m -5,1 C -5,2 C 12,9 km/h (3 Bft) 98,21 %
29.11.2018 00:46 -4,1 C 3,9 C -6,1 C 93 % 1028,5 hPa 0,0 l/m 5,6 km/h (1 Bft) O-NO 76 0 min 0,000 mm 0,0 UV-I 0 W/m -5,1 C -4,1 C 8,0 km/h (2 Bft) 97,37 %
29.11.2018 00:48 -4,2 C 3,9 C -6,1 C 93 % 1028,5 hPa 0,0 l/m 6,5 km/h (2 Bft) O-NO 72 0 min 0,000 mm 0,0 UV-I 0 W/m -5,2 C -4,3 C 8,0 km/h (2 Bft) 98,21 %
29.11.2018 00:50 -4,1 C 3,9 C -6,1 C 93 % 1028,4 hPa 0,0 l/m 6,7 km/h (2 Bft) O 80 0 min 0,000 mm 0,0 UV-I 0 W/m -5,1 C -4,4 C 11,3 km/h (2 Bft) 97,37 %
29.11.2018 00:52 -4,2 C 3,9 C -6,1 C 93 % 1028,4 hPa 0,0 l/m 6,9 km/h (2 Bft) O-NO 67 0 min 0,000 mm 0,0 UV-I 0 W/m -5,2 C -4,8 C 12,9 km/h (3 Bft) 98,21 %
29.11.2018 00:54 -4,2 C 3,9 C -6,1 C 93 % 1028,4 hPa 0,0 l/m 7,6 km/h (2 Bft) O-NO 68 0 min 0,000 mm 0,0 UV-I 0 W/m -5,2 C -5,6 C 12,9 km/h (3 Bft) 94,74 %
29.11.2018 00:56 -4,2 C 3,9 C -6,1 C 93 % 1028,4 hPa 0,0 l/m 7,2 km/h (2 Bft) O-NO 78 0 min 0,000 mm 0,0 UV-I 0 W/m -5,2 C -5,1 C 12,9 km/h (3 Bft) 100,00 %
29.11.2018 00:58 -4,2 C 3,9 C -6,1 C 93 % 1028,4 hPa 0,0 l/m 6,6 km/h (2 Bft) O-NO 71 0 min 0,000 mm 0,0 UV-I 0 W/m -5,2 C -4,4 C 8,0 km/h (2 Bft) 98,00 %
29.11.2018 01:00 -4,2 C 3,9 C -6,1 C 93 % 1028,4 hPa 0,0 l/m 6,4 km/h (2 Bft) O 89 0 min 0,000 mm 0,0 UV-I 0 W/m -5,2 C -4,1 C 9,7 km/h (2 Bft) 97,87 %
29.11.2018 01:02 -4,3 C 3,9 C -6,1 C 93 % 1028,4 hPa 0,0 l/m 4,3 km/h (1 Bft) O-NO 63 0 min 0,000 mm 0,0 UV-I 0 W/m -5,3 C -4,3 C 6,4 km/h (2 Bft) 97,56 %
29.11.2018 01:04 -4,3 C 3,9 C -6,1 C 93 % 1028,5 hPa 0,0 l/m 3,7 km/h (1 Bft) O-NO 75 0 min 0,000 mm 0,0 UV-I 0 W/m -5,3 C -4,3 C 8,0 km/h (2 Bft) 96,23 %
29.11.2018 01:06 -4,3 C 3,9 C -6,1 C 93 % 1028,5 hPa 0,0 l/m 3,6 km/h (1 Bft) O 79 0 min 0,000 mm 0,0 UV-I 0 W/m -5,3 C -4,3 C 4,8 km/h (1 Bft) 97,14 %
29.11.2018 01:08 -4,4 C 3,9 C -6,7 C 92 % 1028,5 hPa 0,0 l/m 4,0 km/h (1 Bft) O 79 0 min 0,000 mm 0,0 UV-I 0 W/m -5,5 C -4,4 C 4,8 km/h (1 Bft) 96,23 %
29.11.2018 01:10 -4,3 C 3,9 C -6,1 C 93 % 1028,5 hPa 0,0 l/m 4,4 km/h (1 Bft) O 79 0 min 0,000 mm 0,0 UV-I 0 W/m -5,3 C -4,3 C 6,4 km/h (2 Bft) 98,00 %
29.11.2018 01:12 -4,3 C 3,9 C -6,7 C 93 % 1028,5 hPa 0,0 l/m 5,8 km/h (2 Bft) O-NO 64 0 min 0,000 mm 0,0 UV-I 0 W/m -5,3 C -4,3 C 11,3 km/h (2 Bft) 94,00 %
29.11.2018 01:14 -4,3 C 3,9 C -6,7 C 93 % 1028,5 hPa 0,0 l/m 6,2 km/h (2 Bft) O 80 0 min 0,000 mm 0,0 UV-I 0 W/m -5,3 C -4,3 C 9,7 km/h (2 Bft) 97,37 %
29.11.2018 01:16 -4,3 C 3,9 C -6,7 C 93 % 1028,5 hPa 0,0 l/m 7,0 km/h (2 Bft) O-NO 76 0 min 0,000 mm 0,0 UV-I 0 W/m -5,3 C -5,0 C 12,9 km/h (3 Bft) 94,44 %
29.11.2018 01:18 -4,2 C 3,9 C -6,1 C 93 % 1028,5 hPa 0,0 l/m 6,4 km/h (2 Bft) O-NO 76 0 min 0,000 mm 0,0 UV-I 0 W/m -5,2 C -4,1 C 11,3 km/h (2 Bft) 94,03 %
29.11.2018 01:20 -4,2 C 3,9 C -6,1 C 93 % 1028,4 hPa 0,0 l/m 6,1 km/h (2 Bft) O 86 0 min 0,000 mm 0,0 UV-I 0 W/m -5,2 C -4,2 C 11,3 km/h (2 Bft) 95,45 %
29.11.2018 01:22 -4,1 C 3,9 C -6,1 C 93 % 1028,5 hPa 0,0 l/m 4,7 km/h (1 Bft) O 101 0 min 0,000 mm 0,0 UV-I 0 W/m -5,1 C -4,1 C 9,7 km/h (2 Bft) 95,24 %
29.11.2018 01:24 -4,1 C 3,9 C -6,1 C 93 % 1028,4 hPa 0,0 l/m 6,5 km/h (2 Bft) O 99 0 min 0,000 mm 0,0 UV-I 0 W/m -5,1 C -4,2 C 11,3 km/h (2 Bft) 96,23 %
29.11.2018 01:26 -4,2 C 3,9 C -6,1 C 93 % 1028,5 hPa 0,0 l/m 6,4 km/h (2 Bft) O 95 0 min 0,000 mm 0,0 UV-I 0 W/m -5,2 C -4,1 C 11,3 km/h (2 Bft) 96,00 %
29.11.2018 01:28 -4,1 C 3,9 C -6,1 C 93 % 1028,5 hPa 0,0 l/m 6,1 km/h (2 Bft) O 98 0 min 0,000 mm 0,0 UV-I 0 W/m -5,1 C -4,1 C 9,7 km/h (2 Bft) 94,74 %
29.11.2018 01:30 -4,1 C 3,9 C -6,1 C 93 % 1028,5 hPa 0,0 l/m 5,7 km/h (1 Bft) O 87 0 min 0,000 mm 0,0 UV-I 0 W/m -5,1 C -4,1 C 9,7 km/h (2 Bft) 93,62 %
29.11.2018 01:32 -4,1 C 3,9 C -6,1 C 93 % 1028,5 hPa 0,0 l/m 5,1 km/h (1 Bft) O-SO 108 0 min 0,000 mm 0,0 UV-I 0 W/m -5,1 C -4,1 C 8,0 km/h (2 Bft) 93,18 %
29.11.2018 01:34 -4,0 C 3,9 C -6,1 C 93 % 1028,5 hPa 0,0 l/m 7,6 km/h (2 Bft) O 82 0 min 0,000 mm 0,0 UV-I 0 W/m -5,0 C -5,4 C 14,5 km/h (3 Bft) 96,23 %
29.11.2018 01:36 -4,0 C 3,9 C -6,1 C 93 % 1028,5 hPa 0,0 l/m 9,9 km/h (2 Bft) O 93 0 min 0,000 mm 0,0 UV-I 0 W/m -5,0 C -7,8 C 12,9 km/h (3 Bft) 95,12 %
29.11.2018 01:38 -4,0 C 3,9 C -6,1 C 93 % 1028,4 hPa 0,0 l/m 9,9 km/h (2 Bft) O 97 0 min 0,000 mm 0,0 UV-I 0 W/m -5,0 C -7,8 C 14,5 km/h (3 Bft) 96,43 %
29.11.2018 01:40 -4,0 C 3,9 C -6,1 C 93 % 1028,5 hPa 0,0 l/m 10,2 km/h (2 Bft) O-SO 112 0 min 0,000 mm 0,0 UV-I 0 W/m -5,0 C -8,1 C 12,9 km/h (3 Bft) 100,00 %
29.11.2018 01:42 -4,0 C 3,9 C -6,1 C 92 % 1028,5 hPa 0,0 l/m 9,3 km/h (2 Bft) O-NO 65 0 min 0,000 mm 0,0 UV-I 0 W/m -5,1 C -7,2 C 12,9 km/h (3 Bft) 93,85 %
29.11.2018 01:44 -4,0 C 3,9 C -6,1 C 92 % 1028,5 hPa 0,0 l/m 8,9 km/h (2 Bft) O-SO 105 0 min 0,000 mm 0,0 UV-I 0 W/m -5,1 C -6,8 C 11,3 km/h (2 Bft) 94,74 %
29.11.2018 01:46 -4,0 C 3,9 C -6,1 C 92 % 1028,4 hPa 0,0 l/m 9,0 km/h (2 Bft) O-SO 114 0 min 0,000 mm 0,0 UV-I 0 W/m -5,1 C -6,9 C 12,9 km/h (3 Bft) 96,43 %
29.11.2018 01:48 -4,0 C 3,9 C -6,1 C 92 % 1028,4 hPa 0,0 l/m 8,0 km/h (2 Bft) O-SO 103 0 min 0,000 mm 0,0 UV-I 0 W/m -5,1 C -5,8 C 12,9 km/h (3 Bft) 94,74 %
29.11.2018 01:50 -4,0 C 3,9 C -6,1 C 92 % 1028,5 hPa 0,0 l/m 8,3 km/h (2 Bft) O 90 0 min 0,000 mm 0,0 UV-I 0 W/m -5,1 C -6,2 C 17,7 km/h (3 Bft) 96,23 %
29.11.2018 01:52 -4,0 C 3,9 C -6,1 C 92 % 1028,5 hPa 0,0 l/m 6,2 km/h (2 Bft) O 99 0 min 0,000 mm 0,0 UV-I 0 W/m -5,1 C -4,0 C 11,3 km/h (2 Bft) 95,12 %
29.11.2018 01:54 -3,9 C 3,9 C -6,1 C 92 % 1028,5 hPa 0,0 l/m 7,0 km/h (2 Bft) O-SO 106 0 min 0,000 mm 0,0 UV-I 0 W/m -5,0 C -4,6 C 11,3 km/h (2 Bft) 94,34 %
29.11.2018 01:56 -4,0 C 3,9 C -6,1 C 92 % 1028,4 hPa 0,0 l/m 7,9 km/h (2 Bft) O 89 0 min 0,000 mm 0,0 UV-I 0 W/m -5,1 C -5,7 C 11,3 km/h (2 Bft) 97,56 %
29.11.2018 01:58 -4,0 C 3,9 C -6,1 C 92 % 1028,4 hPa 0,0 l/m 8,7 km/h (2 Bft) O-SO 105 0 min 0,000 mm 0,0 UV-I 0 W/m -5,1 C -6,6 C 12,9 km/h (3 Bft) 91,67 %
29.11.2018 02:00 -4,0 C 3,9 C -6,1 C 92 % 1028,4 hPa 0,0 l/m 11,2 km/h (2 Bft) O 91 0 min 0,000 mm 0,0 UV-I 0 W/m -5,1 C -8,9 C 17,7 km/h (3 Bft) 94,23 %
29.11.2018 02:02 -4,0 C 3,9 C -5,6 C 92 % 1028,4 hPa 0,0 l/m 10,0 km/h (2 Bft) O 87 0 min 0,000 mm 0,0 UV-I 0 W/m -5,1 C -7,9 C 14,5 km/h (3 Bft) 94,87 %
29.11.2018 02:04 -3,9 C 3,9 C -5,6 C 92 % 1028,4 hPa 0,0 l/m 10,1 km/h (2 Bft) O 94 0 min 0,000 mm 0,0 UV-I 0 W/m -5,0 C -7,9 C 12,9 km/h (3 Bft) 96,23 %
29.11.2018 02:06 -3,9 C 3,9 C -5,6 C 92 % 1028,4 hPa 0,0 l/m 10,6 km/h (2 Bft) O-NO 69 0 min 0,000 mm 0,0 UV-I 0 W/m -5,0 C -8,3 C 14,5 km/h (3 Bft) 100,00 %
29.11.2018 02:08 -3,9 C 3,9 C -5,6 C 92 % 1028,4 hPa 0,0 l/m 9,9 km/h (2 Bft) O-SO 102 0 min 0,000 mm 0,0 UV-I 0 W/m -5,0 C -7,7 C 14,5 km/h (3 Bft) 98,11 %
29.11.2018 02:10 -3,9 C 3,9 C -5,6 C 92 % 1028,5 hPa 0,0 l/m 12,6 km/h (3 Bft) O-SO 106 0 min 0,000 mm 0,0 UV-I 0 W/m -5,0 C -10,0 C 17,7 km/h (3 Bft) 98,00 %
29.11.2018 02:12 -3,9 C 3,9 C -5,6 C 92 % 1028,5 hPa 0,0 l/m 8,8 km/h (2 Bft) O 88 0 min 0,000 mm 0,0 UV-I 0 W/m -5,0 C -6,6 C 12,9 km/h (3 Bft) 97,37 %
29.11.2018 02:14 -3,9 C 3,9 C -5,6 C 92 % 1028,5 hPa 0,0 l/m 9,8 km/h (2 Bft) O-SO 105 0 min 0,000 mm 0,0 UV-I 0 W/m -5,0 C -7,6 C 14,5 km/h (3 Bft) 100,00 %
29.11.2018 02:16 -3,9 C 3,9 C -5,6 C 92 % 1028,5 hPa 0,0 l/m 8,1 km/h (2 Bft) O-SO 103 0 min 0,000 mm 0,0 UV-I 0 W/m -5,0 C -5,9 C 11,3 km/h (2 Bft) 100,00 %
29.11.2018 02:18 -3,9 C 3,9 C -5,6 C 92 % 1028,5 hPa 0,0 l/m 8,5 km/h (2 Bft) O 89 0 min 0,000 mm 0,0 UV-I 0 W/m -5,0 C -6,3 C 14,5 km/h (3 Bft) 100,00 %
29.11.2018 02:20 -3,9 C 3,9 C -5,6 C 92 % 1028,5 hPa 0,0 l/m 10,5 km/h (2 Bft) O 96 0 min 0,000 mm 0,0 UV-I 0 W/m -5,0 C -8,2 C 14,5 km/h (3 Bft) 100,00 %
29.11.2018 02:22 -3,9 C 3,9 C -5,6 C 92 % 1028,5 hPa 0,0 l/m 9,7 km/h (2 Bft) O 88 0 min 0,000 mm 0,0 UV-I 0 W/m -5,0 C -7,5 C 12,9 km/h (3 Bft) 100,00 %
29.11.2018 02:24 -3,9 C 3,9 C -5,6 C 92 % 1028,6 hPa 0,0 l/m 13,2 km/h (3 Bft) O 89 0 min 0,000 mm 0,0 UV-I 0 W/m -5,0 C -10,4 C 20,9 km/h (4 Bft) 97,56 %
29.11.2018 02:26 -3,9 C 3,9 C -5,6 C 92 % 1028,5 hPa 0,0 l/m 10,5 km/h (2 Bft) O 86 0 min 0,000 mm 0,0 UV-I 0 W/m -5,0 C -8,2 C 16,1 km/h (3 Bft) 100,00 %
29.11.2018 02:28 -3,9 C 3,9 C -5,6 C 91 % 1028,5 hPa 0,0 l/m 10,3 km/h (2 Bft) O 84 0 min 0,000 mm 0,0 UV-I 0 W/m -5,1 C -8,0 C 17,7 km/h (3 Bft) 100,00 %
29.11.2018 02:30 -3,9 C 3,9 C -5,6 C 91 % 1028,5 hPa 0,0 l/m 9,9 km/h (2 Bft) O 95 0 min 0,000 mm 0,0 UV-I 0 W/m -5,1 C -7,7 C 12,9 km/h (3 Bft) 98,00 %
29.11.2018 02:32 -3,9 C 3,9 C -5,6 C 91 % 1028,5 hPa 0,0 l/m 9,1 km/h (2 Bft) O 82 0 min 0,000 mm 0,0 UV-I 0 W/m -5,1 C -6,9 C 14,5 km/h (3 Bft) 100,00 %
29.11.2018 02:34 -3,9 C 3,9 C -5,6 C 91 % 1028,6 hPa 0,0 l/m 8,6 km/h (2 Bft) O 88 0 min 0,000 mm 0,0 UV-I 0 W/m -5,1 C -6,4 C 12,9 km/h (3 Bft) 100,00 %
29.11.2018 02:36 -3,9 C 3,9 C -5,6 C 91 % 1028,6 hPa 0,0 l/m 11,0 km/h (2 Bft) O-NO 70 0 min 0,000 mm 0,0 UV-I 0 W/m -5,1 C -8,7 C 14,5 km/h (3 Bft) 98,18 %
29.11.2018 02:38 -4,0 C 3,9 C -5,6 C 91 % 1028,6 hPa 0,0 l/m 10,1 km/h (2 Bft) O-SO 113 0 min 0,000 mm 0,0 UV-I 0 W/m -5,2 C -8,0 C 16,1 km/h (3 Bft) 100,00 %
29.11.2018 02:40 -4,0 C 3,9 C -5,6 C 91 % 1028,6 hPa 0,0 l/m 10,1 km/h (2 Bft) O-SO 120 0 min 0,000 mm 0,0 UV-I 0 W/m -5,2 C -8,0 C 12,9 km/h (3 Bft) 94,34 %
29.11.2018 02:42 -4,0 C 3,9 C -5,6 C 92 % 1028,6 hPa 0,0 l/m 9,1 km/h (2 Bft) O-SO 108 0 min 0,000 mm 0,0 UV-I 0 W/m -5,1 C -7,0 C 16,1 km/h (3 Bft) 100,00 %
29.11.2018 02:44 -4,0 C 3,9 C -6,1 C 92 % 1028,6 hPa 0,0 l/m 11,4 km/h (2 Bft) O 100 0 min 0,000 mm 0,0 UV-I 0 W/m -5,1 C -9,1 C 17,7 km/h (3 Bft) 100,00 %
29.11.2018 02:46 -4,0 C 3,9 C -6,1 C 92 % 1028,7 hPa 0,0 l/m 9,4 km/h (2 Bft) O 92 0 min 0,000 mm 0,0 UV-I 0 W/m -5,1 C -7,3 C 12,9 km/h (3 Bft) 100,00 %
29.11.2018 02:48 -3,9 C 3,9 C -5,6 C 92 % 1028,7 hPa 0,0 l/m 7,7 km/h (2 Bft) O-SO 107 0 min 0,000 mm 0,0 UV-I 0 W/m -5,0 C -5,4 C 11,3 km/h (2 Bft) 97,56 %
29.11.2018 02:50 -3,9 C 3,9 C -6,1 C 92 % 1028,6 hPa 0,0 l/m 9,2 km/h (2 Bft) O 94 0 min 0,000 mm 0,0 UV-I 0 W/m -5,0 C -7,0 C 12,9 km/h (3 Bft) 98,00 %
29.11.2018 02:52 -3,9 C 3,9 C -6,1 C 92 % 1028,6 hPa 0,0 l/m 9,4 km/h (2 Bft) O 92 0 min 0,000 mm 0,0 UV-I 0 W/m -5,0 C -7,2 C 12,9 km/h (3 Bft) 97,87 %
29.11.2018 02:54 -3,9 C 3,9 C -6,1 C 91 % 1028,6 hPa 0,0 l/m 9,9 km/h (2 Bft) O-SO 105 0 min 0,000 mm 0,0 UV-I 0 W/m -5,1 C -7,7 C 14,5 km/h (3 Bft) 97,14 %
29.11.2018 02:56 -3,9 C 3,9 C -6,1 C 91 % 1028,6 hPa 0,0 l/m 10,1 km/h (2 Bft) O 88 0 min 0,000 mm 0,0 UV-I 0 W/m -5,1 C -7,9 C 12,9 km/h (3 Bft) 98,21 %
29.11.2018 02:58 -4,0 C 3,9 C -6,1 C 91 % 1028,6 hPa 0,0 l/m 9,5 km/h (2 Bft) O 90 0 min 0,000 mm 0,0 UV-I 0 W/m -5,2 C -7,4 C 14,5 km/h (3 Bft) 97,73 %
29.11.2018 03:00 -4,1 C 3,9 C -5,6 C 91 % 1028,6 hPa 0,0 l/m 10,2 km/h (2 Bft) O 84 0 min 0,000 mm 0,0 UV-I 0 W/m -5,3 C -8,2 C 14,5 km/h (3 Bft) 98,11 %
29.11.2018 03:02 -4,1 C 3,9 C -5,6 C 91 % 1028,6 hPa 0,0 l/m 9,9 km/h (2 Bft) O-SO 113 0 min 0,000 mm 0,0 UV-I 0 W/m -5,3 C -7,9 C 14,5 km/h (3 Bft) 93,62 %
29.11.2018 03:04 -4,1 C 3,9 C -5,6 C 91 % 1028,6 hPa 0,0 l/m 7,6 km/h (2 Bft) O 98 0 min 0,000 mm 0,0 UV-I 0 W/m -5,3 C -5,5 C 12,9 km/h (3 Bft) 92,11 %
29.11.2018 03:06 -4,1 C 3,9 C -6,1 C 91 % 1028,6 hPa 0,0 l/m 5,8 km/h (2 Bft) O 93 0 min 0,000 mm 0,0 UV-I 0 W/m -5,3 C -4,1 C 9,7 km/h (2 Bft) 96,23 %
29.11.2018 03:08 -4,2 C 3,9 C -6,1 C 91 % 1028,7 hPa 0,0 l/m 5,2 km/h (1 Bft) O 89 0 min 0,000 mm 0,0 UV-I 0 W/m -5,4 C -4,2 C 11,3 km/h (2 Bft) 89,36 %
29.11.2018 03:10 -4,1 C 3,9 C -6,1 C 91 % 1028,7 hPa 0,0 l/m 5,6 km/h (1 Bft) O 88 0 min 0,000 mm 0,0 UV-I 0 W/m -5,3 C -4,1 C 11,3 km/h (2 Bft) 98,00 %
29.11.2018 03:12 -4,1 C 3,9 C -6,1 C 91 % 1028,7 hPa 0,0 l/m 5,3 km/h (1 Bft) O 101 0 min 0,000 mm 0,0 UV-I 0 W/m -5,3 C -4,1 C 9,7 km/h (2 Bft) 91,67 %
29.11.2018 03:14 -4,1 C 3,9 C -6,1 C 91 % 1028,7 hPa 0,0 l/m 7,4 km/h (2 Bft) O-SO 105 0 min 0,000 mm 0,0 UV-I 0 W/m -5,3 C -5,3 C 11,3 km/h (2 Bft) 96,15 %
29.11.2018 03:16 -4,2 C 3,9 C -6,1 C 91 % 1028,6 hPa 0,0 l/m 7,7 km/h (2 Bft) O 98 0 min 0,000 mm 0,0 UV-I 0 W/m -5,4 C -5,7 C 11,3 km/h (2 Bft) 98,00 %
29.11.2018 03:18 -4,2 C 3,9 C -6,1 C 91 % 1028,5 hPa 0,0 l/m 8,4 km/h (2 Bft) O 81 0 min 0,000 mm 0,0 UV-I 0 W/m -5,4 C -6,5 C 12,9 km/h (3 Bft) 97,44 %
29.11.2018 03:20 -4,2 C 3,9 C -6,1 C 91 % 1028,4 hPa 0,0 l/m 9,7 km/h (2 Bft) O-SO 103 0 min 0,000 mm 0,0 UV-I 0 W/m -5,4 C -7,8 C 14,5 km/h (3 Bft) 100,00 %
29.11.2018 03:22 -4,3 C 3,9 C -6,1 C 91 % 1028,4 hPa 0,0 l/m 9,9 km/h (2 Bft) O 97 0 min 0,000 mm 0,0 UV-I 0 W/m -5,5 C -8,1 C 14,5 km/h (3 Bft) 95,59 %
29.11.2018 03:24 -4,3 C 3,9 C -6,1 C 91 % 1028,4 hPa 0,0 l/m 10,0 km/h (2 Bft) O-NO 69 0 min 0,000 mm 0,0 UV-I 0 W/m -5,5 C -8,2 C 16,1 km/h (3 Bft) 94,74 %
29.11.2018 03:26 -4,4 C 3,9 C -6,1 C 91 % 1028,5 hPa 0,0 l/m 9,6 km/h (2 Bft) O 96 0 min 0,000 mm 0,0 UV-I 0 W/m -5,6 C -7,9 C 12,9 km/h (3 Bft) 95,74 %
29.11.2018 03:28 -4,4 C 3,9 C -6,1 C 92 % 1028,4 hPa 0,0 l/m 10,0 km/h (2 Bft) O 84 0 min 0,000 mm 0,0 UV-I 0 W/m -5,5 C -8,3 C 14,5 km/h (3 Bft) 98,21 %
29.11.2018 03:30 -4,4 C 3,9 C -6,1 C 92 % 1028,3 hPa 0,0 l/m 9,7 km/h (2 Bft) O 93 0 min 0,000 mm 0,0 UV-I 0 W/m -5,5 C -8,0 C 14,5 km/h (3 Bft) 95,12 %
29.11.2018 03:32 -4,4 C 3,9 C -6,1 C 92 % 1028,3 hPa 0,0 l/m 9,7 km/h (2 Bft) O 95 0 min 0,000 mm 0,0 UV-I 0 W/m -5,5 C -8,0 C 14,5 km/h (3 Bft) 96,23 %
29.11.2018 03:34 -4,4 C 3,9 C -6,1 C 91 % 1028,3 hPa 0,0 l/m 9,7 km/h (2 Bft) O-NO 72 0 min 0,000 mm 0,0 UV-I 0 W/m -5,6 C -8,0 C 14,5 km/h (3 Bft) 95,12 %
29.11.2018 03:36 -4,4 C 3,9 C -6,1 C 91 % 1028,3 hPa 0,0 l/m 10,6 km/h (2 Bft) O 85 0 min 0,000 mm 0,0 UV-I 0 W/m -5,6 C -8,9 C 12,9 km/h (3 Bft) 96,23 %
29.11.2018 03:38 -4,3 C 3,9 C -6,1 C 92 % 1028,3 hPa 0,0 l/m 10,6 km/h (2 Bft) O 99 0 min 0,000 mm 0,0 UV-I 0 W/m -5,4 C -8,8 C 17,7 km/h (3 Bft) 95,74 %
29.11.2018 03:40 -4,3 C 3,9 C -6,1 C 92 % 1028,3 hPa 0,0 l/m 10,7 km/h (2 Bft) O-NO 64 0 min 0,000 mm 0,0 UV-I 0 W/m -5,4 C -8,8 C 17,7 km/h (3 Bft) 100,00 %
29.11.2018 03:42 -4,3 C 3,9 C -6,1 C 92 % 1028,3 hPa 0,0 l/m 10,2 km/h (2 Bft) O-NO 70 0 min 0,000 mm 0,0 UV-I 0 W/m -5,4 C -8,4 C 14,5 km/h (3 Bft) 100,00 %
29.11.2018 03:44 -4,3 C 3,9 C -6,1 C 92 % 1028,3 hPa 0,0 l/m 10,5 km/h (2 Bft) O 84 0 min 0,000 mm 0,0 UV-I 0 W/m -5,4 C -8,7 C 16,1 km/h (3 Bft) 100,00 %
29.11.2018 03:46 -4,2 C 3,9 C -5,6 C 92 % 1028,3 hPa 0,0 l/m 9,4 km/h (2 Bft) O 82 0 min 0,000 mm 0,0 UV-I 0 W/m -5,3 C -7,5 C 16,1 km/h (3 Bft) 97,62 %
29.11.2018 03:48 -4,3 C 3,9 C -5,6 C 92 % 1028,3 hPa 0,0 l/m 10,1 km/h (2 Bft) O-NO 67 0 min 0,000 mm 0,0 UV-I 0 W/m -5,4 C -8,3 C 16,1 km/h (3 Bft) 98,00 %
29.11.2018 03:50 -4,3 C 3,9 C -5,6 C 92 % 1028,3 hPa 0,0 l/m 11,4 km/h (2 Bft) O 94 0 min 0,000 mm 0,0 UV-I 0 W/m -5,4 C -9,5 C 17,7 km/h (3 Bft) 100,00 %
29.11.2018 03:52 -4,3 C 3,9 C -6,1 C 92 % 1028,2 hPa 0,0 l/m 10,7 km/h (2 Bft) O-SO 104 0 min 0,000 mm 0,0 UV-I 0 W/m -5,4 C -8,8 C 16,1 km/h (3 Bft) 97,87 %
29.11.2018 03:54 -4,3 C 3,9 C -6,1 C 92 % 1028,2 hPa 0,0 l/m 10,6 km/h (2 Bft) O 88 0 min 0,000 mm 0,0 UV-I 0 W/m -5,4 C -8,8 C 14,5 km/h (3 Bft) 100,00 %
29.11.2018 03:56 -4,3 C 3,9 C -5,6 C 92 % 1028,2 hPa 0,0 l/m 12,0 km/h (2 Bft) O-SO 109 0 min 0,000 mm 0,0 UV-I 0 W/m -5,4 C -10,0 C 16,1 km/h (3 Bft) 100,00 %
29.11.2018 03:58 -4,3 C 3,9 C -5,6 C 92 % 1028,1 hPa 0,0 l/m 10,8 km/h (2 Bft) O 84 0 min 0,000 mm 0,0 UV-I 0 W/m -5,4 C -8,9 C 14,5 km/h (3 Bft) 98,11 %
29.11.2018 04:00 -4,3 C 3,9 C -5,6 C 92 % 1028,1 hPa 0,0 l/m 13,6 km/h (3 Bft) O-NO 73 0 min 0,000 mm 0,0 UV-I 0 W/m -5,4 C -11,2 C 19,3 km/h (3 Bft) 97,37 %
29.11.2018 04:02 -4,3 C 3,9 C -5,6 C 92 % 1028,1 hPa 0,0 l/m 15,0 km/h (3 Bft) O 96 0 min 0,000 mm 0,0 UV-I 0 W/m -5,4 C -12,2 C 20,9 km/h (4 Bft) 100,00 %
29.11.2018 04:05 -4,3 C 3,9 C -5,6 C 92 % 1028,1 hPa 0,0 l/m 13,7 km/h (3 Bft) O 89 0 min 0,000 mm 0,0 UV-I 0 W/m -5,4 C -11,3 C 17,7 km/h (3 Bft) 97,37 %
29.11.2018 04:06 -4,3 C 3,9 C -5,6 C 92 % 1028,1 hPa 0,0 l/m 11,5 km/h (2 Bft) O 87 0 min 0,000 mm 0,0 UV-I 0 W/m -5,4 C -9,5 C 14,5 km/h (3 Bft) 96,30 %
29.11.2018 04:08 -4,3 C 3,9 C -5,6 C 92 % 1028,2 hPa 0,0 l/m 11,3 km/h (2 Bft) O 83 0 min 0,000 mm 0,0 UV-I 0 W/m -5,4 C -9,4 C 17,7 km/h (3 Bft) 97,87 %
29.11.2018 04:10 -4,3 C 3,9 C -5,6 C 92 % 1028,2 hPa 0,0 l/m 10,9 km/h (2 Bft) O-NO 70 0 min 0,000 mm 0,0 UV-I 0 W/m -5,4 C -9,0 C 14,5 km/h (3 Bft) 100,00 %
29.11.2018 04:12 -4,3 C 3,9 C -5,6 C 92 % 1028,2 hPa 0,0 l/m 9,6 km/h (2 Bft) O 82 0 min 0,000 mm 0,0 UV-I 0 W/m -5,4 C -7,8 C 14,5 km/h (3 Bft) 96,23 %
29.11.2018 04:14 -4,3 C 3,9 C -5,6 C 92 % 1028,1 hPa 0,0 l/m 13,4 km/h (3 Bft) O-NO 74 0 min 0,000 mm 0,0 UV-I 0 W/m -5,4 C -11,0 C 17,7 km/h (3 Bft) 98,00 %
29.11.2018 04:16 -4,3 C 3,9 C -5,6 C 92 % 1028,1 hPa 0,0 l/m 11,7 km/h (2 Bft) O 100 0 min 0,000 mm 0,0 UV-I 0 W/m -5,4 C -9,7 C 16,1 km/h (3 Bft) 100,00 %
29.11.2018 04:18 -4,3 C 3,9 C -5,6 C 92 % 1028,1 hPa 0,0 l/m 13,2 km/h (3 Bft) O-NO 72 0 min 0,000 mm 0,0 UV-I 0 W/m -5,4 C -10,9 C 17,7 km/h (3 Bft) 100,00 %
29.11.2018 04:20 -4,3 C 3,9 C -5,6 C 92 % 1028,1 hPa 0,0 l/m 10,0 km/h (2 Bft) O 99 0 min 0,000 mm 0,0 UV-I 0 W/m -5,4 C -8,2 C 14,5 km/h (3 Bft) 97,37 %
29.11.2018 04:22 -4,3 C 3,9 C -5,6 C 92 % 1028,1 hPa 0,0 l/m 10,1 km/h (2 Bft) O-NO 61 0 min 0,000 mm 0,0 UV-I 0 W/m -5,4 C -8,3 C 14,5 km/h (3 Bft) 100,00 %
29.11.2018 04:24 -4,3 C 3,9 C -5,6 C 92 % 1028,0 hPa 0,0 l/m 11,9 km/h (2 Bft) O 95 0 min 0,000 mm 0,0 UV-I 0 W/m -5,4 C -9,9 C 16,1 km/h (3 Bft) 97,87 %
29.11.2018 04:26 -4,4 C 3,9 C -5,6 C 92 % 1028,0 hPa 0,0 l/m 11,1 km/h (2 Bft) O-NO 75 0 min 0,000 mm 0,0 UV-I 0 W/m -5,5 C -9,3 C 14,5 km/h (3 Bft) 98,11 %
29.11.2018 04:28 -4,4 C 3,9 C -5,6 C 92 % 1028,0 hPa 0,0 l/m 10,8 km/h (2 Bft) O 83 0 min 0,000 mm 0,0 UV-I 0 W/m -5,5 C -9,0 C 16,1 km/h (3 Bft) 97,87 %
29.11.2018 04:30 -4,4 C 3,9 C -5,6 C 92 % 1028,0 hPa 0,0 l/m 10,3 km/h (2 Bft) O-NO 65 0 min 0,000 mm 0,0 UV-I 0 W/m -5,5 C -8,6 C 14,5 km/h (3 Bft) 97,87 %
29.11.2018 04:32 -4,4 C 3,9 C -5,6 C 92 % 1028,1 hPa 0,0 l/m 11,3 km/h (2 Bft) O 101 0 min 0,000 mm 0,0 UV-I 0 W/m -5,5 C -9,5 C 14,5 km/h (3 Bft) 100,00 %
29.11.2018 04:34 -4,3 C 3,9 C -5,6 C 92 % 1028,1 hPa 0,0 l/m 10,5 km/h (2 Bft) O-NO 71 0 min 0,000 mm 0,0 UV-I 0 W/m -5,4 C -8,7 C 16,1 km/h (3 Bft) 98,00 %
29.11.2018 04:36 -4,3 C 3,9 C -5,6 C 92 % 1028,1 hPa 0,0 l/m 11,0 km/h (2 Bft) O-NO 61 0 min 0,000 mm 0,0 UV-I 0 W/m -5,4 C -9,1 C 16,1 km/h (3 Bft) 100,00 %
29.11.2018 04:38 -4,3 C 3,9 C -5,6 C 92 % 1028,1 hPa 0,0 l/m 11,1 km/h (2 Bft) O-NO 71 0 min 0,000 mm 0,0 UV-I 0 W/m -5,4 C -9,2 C 14,5 km/h (3 Bft) 100,00 %
29.11.2018 04:40 -4,3 C 3,9 C -5,6 C 92 % 1028,1 hPa 0,0 l/m 9,3 km/h (2 Bft) O-NO 59 0 min 0,000 mm 0,0 UV-I 0 W/m -5,4 C -7,5 C 14,5 km/h (3 Bft) 100,00 %
29.11.2018 04:42 -4,3 C 3,9 C -5,6 C 92 % 1028,1 hPa 0,0 l/m 9,8 km/h (2 Bft) O 88 0 min 0,000 mm 0,0 UV-I 0 W/m -5,4 C -8,0 C 16,1 km/h (3 Bft) 95,12 %
29.11.2018 04:44 -4,3 C 3,9 C -5,6 C 92 % 1028,1 hPa 0,0 l/m 13,2 km/h (3 Bft) O-NO 69 0 min 0,000 mm 0,0 UV-I 0 W/m -5,4 C -10,9 C 17,7 km/h (3 Bft) 96,23 %
29.11.2018 04:46 -4,3 C 3,9 C -5,6 C 92 % 1028,0 hPa 0,0 l/m 10,5 km/h (2 Bft) O 88 0 min 0,000 mm 0,0 UV-I 0 W/m -5,4 C -8,7 C 14,5 km/h (3 Bft) 97,56 %
29.11.2018 04:48 -4,3 C 3,9 C -5,6 C 92 % 1028,0 hPa 0,0 l/m 13,2 km/h (3 Bft) O-NO 70 0 min 0,000 mm 0,0 UV-I 0 W/m -5,4 C -10,9 C 19,3 km/h (3 Bft) 96,23 %
29.11.2018 04:50 -4,4 C 3,9 C -5,6 C 92 % 1028,0 hPa 0,0 l/m 12,1 km/h (2 Bft) O-NO 77 0 min 0,000 mm 0,0 UV-I 0 W/m -5,5 C -10,1 C 17,7 km/h (3 Bft) 96,23 %
29.11.2018 04:52 -4,4 C 3,9 C -5,6 C 92 % 1028,0 hPa 0,0 l/m 11,9 km/h (2 Bft) O-NO 76 0 min 0,000 mm 0,0 UV-I 0 W/m -5,5 C -10,0 C 16,1 km/h (3 Bft) 100,00 %
29.11.2018 04:54 -4,4 C 3,9 C -5,6 C 92 % 1028,0 hPa 0,0 l/m 11,6 km/h (2 Bft) O 87 0 min 0,000 mm 0,0 UV-I 0 W/m -5,5 C -9,7 C 14,5 km/h (3 Bft) 94,34 %
29.11.2018 04:56 -4,4 C 3,9 C -5,6 C 92 % 1027,9 hPa 0,0 l/m 10,0 km/h (2 Bft) O-NO 67 0 min 0,000 mm 0,0 UV-I 0 W/m -5,5 C -8,3 C 14,5 km/h (3 Bft) 100,00 %
29.11.2018 04:58 -4,4 C 3,9 C -5,6 C 92 % 1027,9 hPa 0,0 l/m 8,4 km/h (2 Bft) O 80 0 min 0,000 mm 0,0 UV-I 0 W/m -5,5 C -6,7 C 12,9 km/h (3 Bft) 94,03 %
29.11.2018 05:00 -4,4 C 3,9 C -5,6 C 92 % 1027,8 hPa 0,0 l/m 7,8 km/h (2 Bft) O 80 0 min 0,000 mm 0,0 UV-I 0 W/m -5,5 C -6,0 C 12,9 km/h (3 Bft) 93,62 %
29.11.2018 05:02 -4,5 C 3,9 C -5,6 C 92 % 1027,8 hPa 0,0 l/m 9,7 km/h (2 Bft) O-NO 74 0 min 0,000 mm 0,0 UV-I 0 W/m -5,6 C -8,1 C 12,9 km/h (3 Bft) 94,74 %
29.11.2018 05:04 -4,6 C 3,9 C -5,6 C 92 % 1027,7 hPa 0,0 l/m 10,1 km/h (2 Bft) O-NO 75 0 min 0,000 mm 0,0 UV-I 0 W/m -5,7 C -8,6 C 14,5 km/h (3 Bft) 97,87 %
29.11.2018 05:06 -4,6 C 3,9 C -5,6 C 92 % 1027,7 hPa 0,0 l/m 9,7 km/h (2 Bft) O-NO 58 0 min 0,000 mm 0,0 UV-I 0 W/m -5,7 C -8,2 C 14,5 km/h (3 Bft) 90,00 %
29.11.2018 05:08 -4,6 C 3,9 C -5,6 C 92 % 1027,7 hPa 0,0 l/m 9,5 km/h (2 Bft) O 80 0 min 0,000 mm 0,0 UV-I 0 W/m -5,7 C -8,0 C 14,5 km/h (3 Bft) 90,57 %
29.11.2018 05:10 -4,6 C 3,9 C -6,1 C 92 % 1027,8 hPa 0,0 l/m 9,6 km/h (2 Bft) O-NO 59 0 min 0,000 mm 0,0 UV-I 0 W/m -5,7 C -8,1 C 16,1 km/h (3 Bft) 92,31 %
29.11.2018 05:12 -4,6 C 3,9 C -5,6 C 92 % 1027,8 hPa 0,0 l/m 9,1 km/h (2 Bft) O-NO 68 0 min 0,000 mm 0,0 UV-I 0 W/m -5,7 C -7,6 C 12,9 km/h (3 Bft) 91,84 %
29.11.2018 05:14 -4,6 C 3,9 C -5,6 C 92 % 1027,8 hPa 0,0 l/m 8,6 km/h (2 Bft) O-NO 63 0 min 0,000 mm 0,0 UV-I 0 W/m -5,7 C -7,1 C 14,5 km/h (3 Bft) 92,00 %
29.11.2018 05:16 -4,6 C 3,9 C -5,6 C 92 % 1027,8 hPa 0,0 l/m 9,6 km/h (2 Bft) O 88 0 min 0,000 mm 0,0 UV-I 0 W/m -5,7 C -8,1 C 14,5 km/h (3 Bft) 92,68 %
29.11.2018 05:18 -4,6 C 3,9 C -5,6 C 92 % 1027,8 hPa 0,0 l/m 8,0 km/h (2 Bft) O-NO 61 0 min 0,000 mm 0,0 UV-I 0 W/m -5,7 C -6,5 C 12,9 km/h (3 Bft) 91,49 %
29.11.2018 05:20 -4,7 C 3,9 C -5,6 C 92 % 1027,8 hPa 0,0 l/m 10,9 km/h (2 Bft) O-SO 106 0 min 0,000 mm 0,0 UV-I 0 W/m -5,8 C -9,5 C 14,5 km/h (3 Bft) 94,00 %
29.11.2018 05:22 -4,7 C 3,9 C -6,1 C 92 % 1027,8 hPa 0,0 l/m 10,0 km/h (2 Bft) O 93 0 min 0,000 mm 0,0 UV-I 0 W/m -5,8 C -8,6 C 14,5 km/h (3 Bft) 93,18 %
29.11.2018 05:24 -4,7 C 3,9 C -6,1 C 92 % 1027,8 hPa 0,0 l/m 11,0 km/h (2 Bft) O-NO 68 0 min 0,000 mm 0,0 UV-I 0 W/m -5,8 C -9,6 C 16,1 km/h (3 Bft) 95,74 %
29.11.2018 05:26 -4,7 C 3,9 C -6,1 C 92 % 1027,7 hPa 0,0 l/m 9,3 km/h (2 Bft) O 87 0 min 0,000 mm 0,0 UV-I 0 W/m -5,8 C -8,0 C 12,9 km/h (3 Bft) 96,23 %
29.11.2018 05:28 -4,7 C 3,9 C -5,6 C 92 % 1027,7 hPa 0,0 l/m 11,8 km/h (2 Bft) O 92 0 min 0,000 mm 0,0 UV-I 0 W/m -5,8 C -10,2 C 17,7 km/h (3 Bft) 93,18 %
29.11.2018 05:30 -4,7 C 3,9 C -5,6 C 92 % 1027,7 hPa 0,0 l/m 13,5 km/h (3 Bft) O 93 0 min 0,000 mm 0,0 UV-I 0 W/m -5,8 C -11,6 C 17,7 km/h (3 Bft) 94,34 %
29.11.2018 05:32 -4,7 C 3,9 C -5,6 C 92 % 1027,6 hPa 0,0 l/m 13,4 km/h (3 Bft) O-NO 67 0 min 0,000 mm 0,0 UV-I 0 W/m -5,8 C -11,5 C 16,1 km/h (3 Bft) 92,11 %
29.11.2018 05:34 -4,7 C 3,9 C -5,6 C 92 % 1027,6 hPa 0,0 l/m 10,5 km/h (2 Bft) O-NO 61 0 min 0,000 mm 0,0 UV-I 0 W/m -5,8 C -9,1 C 14,5 km/h (3 Bft) 91,07 %
29.11.2018 05:36 -4,7 C 3,9 C -5,6 C 92 % 1027,6 hPa 0,0 l/m 12,0 km/h (2 Bft) O-NO 72 0 min 0,000 mm 0,0 UV-I 0 W/m -5,8 C -10,4 C 17,7 km/h (3 Bft) 97,37 %
29.11.2018 05:38 -4,7 C 3,9 C -6,1 C 92 % 1027,6 hPa 0,0 l/m 12,4 km/h (3 Bft) O 82 0 min 0,000 mm 0,0 UV-I 0 W/m -5,8 C -10,7 C 16,1 km/h (3 Bft) 94,00 %
29.11.2018 05:40 -4,7 C 3,9 C -6,1 C 92 % 1027,7 hPa 0,0 l/m 8,4 km/h (2 Bft) O 92 0 min 0,000 mm 0,0 UV-I 0 W/m -5,8 C -7,0 C 14,5 km/h (3 Bft) 94,00 %
29.11.2018 05:42 -4,7 C 3,9 C -6,1 C 92 % 1027,7 hPa 0,0 l/m 11,3 km/h (2 Bft) O 99 0 min 0,000 mm 0,0 UV-I 0 W/m -5,8 C -9,8 C 16,1 km/h (3 Bft) 95,12 %
29.11.2018 05:44 -4,8 C 3,9 C -6,1 C 92 % 1027,7 hPa 0,0 l/m 10,6 km/h (2 Bft) O 83 0 min 0,000 mm 0,0 UV-I 0 W/m -5,9 C -9,3 C 16,1 km/h (3 Bft) 94,34 %
29.11.2018 05:46 -4,8 C 3,9 C -6,1 C 92 % 1027,6 hPa 0,0 l/m 9,9 km/h (2 Bft) O 82 0 min 0,000 mm 0,0 UV-I 0 W/m -5,9 C -8,7 C 14,5 km/h (3 Bft) 96,67 %
29.11.2018 05:48 -4,8 C 3,9 C -6,1 C 92 % 1027,6 hPa 0,0 l/m 11,3 km/h (2 Bft) O-NO 69 0 min 0,000 mm 0,0 UV-I 0 W/m -5,9 C -9,9 C 16,1 km/h (3 Bft) 100,00 %
29.11.2018 05:50 -4,8 C 3,9 C -6,1 C 92 % 1027,6 hPa 0,0 l/m 9,6 km/h (2 Bft) O 88 0 min 0,000 mm 0,0 UV-I 0 W/m -5,9 C -8,4 C 12,9 km/h (3 Bft) 98,11 %
29.11.2018 05:52 -4,8 C 3,9 C -6,1 C 92 % 1027,6 hPa 0,0 l/m 9,7 km/h (2 Bft) O 82 0 min 0,000 mm 0,0 UV-I 0 W/m -5,9 C -8,5 C 12,9 km/h (3 Bft) 100,00 %
29.11.2018 05:54 -4,8 C 3,9 C -6,1 C 92 % 1027,6 hPa 0,0 l/m 9,1 km/h (2 Bft) O-NO 59 0 min 0,000 mm 0,0 UV-I 0 W/m -5,9 C -7,9 C 14,5 km/h (3 Bft) 100,00 %
29.11.2018 05:56 -4,8 C 3,9 C -6,1 C 92 % 1027,6 hPa 0,0 l/m 8,5 km/h (2 Bft) O-NO 63 0 min 0,000 mm 0,0 UV-I 0 W/m -5,9 C -7,2 C 12,9 km/h (3 Bft) 100,00 %
29.11.2018 05:58 -4,8 C 3,9 C -6,1 C 92 % 1027,6 hPa 0,0 l/m 11,3 km/h (2 Bft) O-NO 61 0 min 0,000 mm 0,0 UV-I 0 W/m -5,9 C -9,9 C 17,7 km/h (3 Bft) 100,00 %
29.11.2018 06:00 -4,8 C 3,9 C -6,1 C 92 % 1027,7 hPa 0,0 l/m 8,5 km/h (2 Bft) O 96 0 min 0,000 mm 0,0 UV-I 0 W/m -5,9 C -7,2 C 12,9 km/h (3 Bft) 96,23 %
29.11.2018 06:02 -4,8 C 3,9 C -6,1 C 92 % 1027,7 hPa 0,0 l/m 9,4 km/h (2 Bft) O 86 0 min 0,000 mm 0,0 UV-I 0 W/m -5,9 C -8,2 C 12,9 km/h (3 Bft) 98,11 %
29.11.2018 06:04 -4,8 C 3,9 C -6,1 C 92 % 1027,7 hPa 0,0 l/m 8,5 km/h (2 Bft) O 79 0 min 0,000 mm 0,0 UV-I 0 W/m -5,9 C -7,2 C 14,5 km/h (3 Bft) 92,68 %
29.11.2018 06:06 -4,8 C 3,9 C -6,1 C 92 % 1027,7 hPa 0,0 l/m 8,3 km/h (2 Bft) O-NO 65 0 min 0,000 mm 0,0 UV-I 0 W/m -5,9 C -7,0 C 12,9 km/h (3 Bft) 100,00 %
29.11.2018 06:08 -4,8 C 3,9 C -6,1 C 92 % 1027,7 hPa 0,0 l/m 9,0 km/h (2 Bft) O-NO 78 0 min 0,000 mm 0,0 UV-I 0 W/m -5,9 C -7,8 C 14,5 km/h (3 Bft) 100,00 %
29.11.2018 06:10 -4,8 C 3,3 C -6,1 C 92 % 1027,8 hPa 0,0 l/m 7,0 km/h (2 Bft) O 94 0 min 0,000 mm 0,0 UV-I 0 W/m -5,9 C -5,5 C 11,3 km/h (2 Bft) 97,73 %
29.11.2018 06:12 -4,8 C 3,9 C -6,1 C 92 % 1027,8 hPa 0,0 l/m 7,5 km/h (2 Bft) O 101 0 min 0,000 mm 0,0 UV-I 0 W/m -5,9 C -6,1 C 12,9 km/h (3 Bft) 100,00 %
29.11.2018 06:14 -4,9 C 3,9 C -6,1 C 92 % 1027,7 hPa 0,0 l/m 9,0 km/h (2 Bft) O-NO 71 0 min 0,000 mm 0,0 UV-I 0 W/m -6,0 C -7,9 C 14,5 km/h (3 Bft) 98,00 %
29.11.2018 06:16 -4,9 C 3,9 C -6,1 C 92 % 1027,7 hPa 0,0 l/m 7,0 km/h (2 Bft) O 80 0 min 0,000 mm 0,0 UV-I 0 W/m -6,0 C -5,6 C 11,3 km/h (2 Bft) 98,00 %
29.11.2018 06:18 -4,9 C 3,9 C -6,1 C 92 % 1027,8 hPa 0,0 l/m 8,4 km/h (2 Bft) O-NO 75 0 min 0,000 mm 0,0 UV-I 0 W/m -6,0 C -7,2 C 12,9 km/h (3 Bft) 97,73 %
29.11.2018 06:20 -4,8 C 3,9 C -6,1 C 92 % 1027,7 hPa 0,0 l/m 8,8 km/h (2 Bft) O 79 0 min 0,000 mm 0,0 UV-I 0 W/m -5,9 C -7,6 C 12,9 km/h (3 Bft) 97,87 %
29.11.2018 06:22 -4,8 C 3,9 C -6,1 C 92 % 1027,7 hPa 0,0 l/m 8,5 km/h (2 Bft) O 94 0 min 0,000 mm 0,0 UV-I 0 W/m -5,9 C -7,2 C 12,9 km/h (3 Bft) 93,62 %
29.11.2018 06:24 -4,9 C 3,9 C -6,1 C 92 % 1027,7 hPa 0,0 l/m 6,5 km/h (2 Bft) O-NO 78 0 min 0,000 mm 0,0 UV-I 0 W/m -6,0 C -5,0 C 11,3 km/h (2 Bft) 94,00 %
29.11.2018 06:26 -4,9 C 3,9 C -6,1 C 92 % 1027,7 hPa 0,0 l/m 7,7 km/h (2 Bft) O 84 0 min 0,000 mm 0,0 UV-I 0 W/m -6,0 C -6,4 C 11,3 km/h (2 Bft) 100,00 %
29.11.2018 06:28 -4,9 C 3,9 C -6,1 C 92 % 1027,7 hPa 0,0 l/m 9,5 km/h (2 Bft) O 87 0 min 0,000 mm 0,0 UV-I 0 W/m -6,0 C -8,4 C 12,9 km/h (3 Bft) 97,01 %
29.11.2018 06:30 -4,9 C 3,9 C -6,1 C 92 % 1027,7 hPa 0,0 l/m 8,8 km/h (2 Bft) O 80 0 min 0,000 mm 0,0 UV-I 0 W/m -6,0 C -7,7 C 14,5 km/h (3 Bft) 92,31 %
29.11.2018 06:32 -4,9 C 3,9 C -6,1 C 92 % 1027,7 hPa 0,0 l/m 8,1 km/h (2 Bft) O-NO 68 0 min 0,000 mm 0,0 UV-I 0 W/m -6,0 C -6,9 C 12,9 km/h (3 Bft) 100,00 %
29.11.2018 06:34 -4,9 C 3,9 C -6,1 C 92 % 1027,7 hPa 0,0 l/m 5,6 km/h (1 Bft) O 98 0 min 0,000 mm 0,0 UV-I 0 W/m -6,0 C -4,9 C 11,3 km/h (2 Bft) 97,37 %
29.11.2018 06:36 -4,9 C 3,9 C -6,1 C 92 % 1027,7 hPa 0,0 l/m 5,6 km/h (1 Bft) O-NO 71 0 min 0,000 mm 0,0 UV-I 0 W/m -6,0 C -4,9 C 8,0 km/h (2 Bft) 100,00 %
29.11.2018 06:38 -4,9 C 3,9 C -6,1 C 92 % 1027,8 hPa 0,0 l/m 6,5 km/h (2 Bft) O-NO 77 0 min 0,000 mm 0,0 UV-I 0 W/m -6,0 C -5,0 C 9,7 km/h (2 Bft) 98,00 %
29.11.2018 06:40 -4,9 C 3,9 C -6,1 C 92 % 1027,8 hPa 0,0 l/m 6,6 km/h (2 Bft) O-NO 71 0 min 0,000 mm 0,0 UV-I 0 W/m -6,0 C -5,1 C 11,3 km/h (2 Bft) 100,00 %
29.11.2018 06:42 -4,9 C 3,9 C -6,1 C 92 % 1027,8 hPa 0,0 l/m 4,8 km/h (1 Bft) O-NO 78 0 min 0,000 mm 0,0 UV-I 0 W/m -6,0 C -4,9 C 8,0 km/h (2 Bft) 94,74 %
29.11.2018 06:44 -4,9 C 3,9 C -6,1 C 92 % 1027,8 hPa 0,0 l/m 4,7 km/h (1 Bft) O-NO 67 0 min 0,000 mm 0,0 UV-I 0 W/m -6,0 C -4,9 C 6,4 km/h (2 Bft) 96,23 %
29.11.2018 06:46 -4,9 C 3,3 C -6,1 C 92 % 1027,8 hPa 0,0 l/m 5,5 km/h (1 Bft) O-NO 72 0 min 0,000 mm 0,0 UV-I 0 W/m -6,0 C -4,9 C 8,0 km/h (2 Bft) 97,73 %
29.11.2018 06:48 -4,9 C 3,9 C -6,7 C 92 % 1027,7 hPa 0,0 l/m 7,1 km/h (2 Bft) O-NO 71 0 min 0,000 mm 0,0 UV-I 0 W/m -6,0 C -5,7 C 9,7 km/h (2 Bft) 100,00 %
29.11.2018 06:50 -4,9 C 3,9 C -6,1 C 93 % 1027,8 hPa 0,0 l/m 6,9 km/h (2 Bft) O-NO 73 0 min 0,000 mm 0,0 UV-I 0 W/m -5,9 C -5,5 C 11,3 km/h (2 Bft) 100,00 %
29.11.2018 06:52 -4,9 C 3,9 C -6,1 C 93 % 1027,8 hPa 0,0 l/m 8,0 km/h (2 Bft) O-NO 74 0 min 0,000 mm 0,0 UV-I 0 W/m -5,9 C -6,8 C 11,3 km/h (2 Bft) 100,00 %
29.11.2018 06:54 -4,9 C 3,9 C -6,1 C 93 % 1027,7 hPa 0,0 l/m 9,0 km/h (2 Bft) O 80 0 min 0,000 mm 0,0 UV-I 0 W/m -5,9 C -7,9 C 12,9 km/h (3 Bft) 100,00 %
29.11.2018 06:56 -5,0 C 3,9 C -6,1 C 92 % 1027,7 hPa 0,0 l/m 9,5 km/h (2 Bft) O-NO 60 0 min 0,000 mm 0,0 UV-I 0 W/m -6,1 C -8,5 C 14,5 km/h (3 Bft) 100,00 %
29.11.2018 06:58 -5,0 C 3,9 C -6,1 C 93 % 1027,6 hPa 0,0 l/m 9,1 km/h (2 Bft) O 80 0 min 0,000 mm 0,0 UV-I 0 W/m -6,0 C -8,1 C 14,5 km/h (3 Bft) 100,00 %
29.11.2018 07:00 -5,0 C 3,9 C -6,1 C 92 % 1027,6 hPa 0,0 l/m 9,1 km/h (2 Bft) O 92 0 min 0,000 mm 0,0 UV-I 0 W/m -6,1 C -8,1 C 12,9 km/h (3 Bft) 100,00 %
29.11.2018 07:02 -5,1 C 3,3 C -6,1 C 92 % 1027,6 hPa 0,0 l/m 8,6 km/h (2 Bft) O 82 0 min 0,000 mm 0,0 UV-I 0 W/m -6,2 C -7,7 C 14,5 km/h (3 Bft) 100,00 %
29.11.2018 07:04 -5,0 C 3,3 C -6,1 C 92 % 1027,6 hPa 0,0 l/m 10,8 km/h (2 Bft) O-NO 76 0 min 0,000 mm 0,0 UV-I 0 W/m -6,1 C -9,7 C 17,7 km/h (3 Bft) 100,00 %
29.11.2018 07:06 -5,0 C 3,9 C -6,1 C 93 % 1027,5 hPa 0,0 l/m 10,3 km/h (2 Bft) O-NO 67 0 min 0,000 mm 0,0 UV-I 0 W/m -6,0 C -9,3 C 12,9 km/h (3 Bft) 100,00 %
29.11.2018 07:08 -4,9 C 3,3 C -6,1 C 93 % 1027,6 hPa 0,0 l/m 11,4 km/h (2 Bft) O 95 0 min 0,000 mm 0,0 UV-I 0 W/m -5,9 C -10,1 C 14,5 km/h (3 Bft) 95,65 %
29.11.2018 07:10 -4,9 C 3,3 C -6,1 C 93 % 1027,5 hPa 0,0 l/m 10,1 km/h (2 Bft) O 81 0 min 0,000 mm 0,0 UV-I 0 W/m -5,9 C -9,0 C 16,1 km/h (3 Bft) 100,00 %
29.11.2018 07:12 -4,9 C 3,3 C -6,1 C 93 % 1027,6 hPa 0,0 l/m 8,4 km/h (2 Bft) O-NO 75 0 min 0,000 mm 0,0 UV-I 2 W/m -5,9 C -7,2 C 12,9 km/h (3 Bft) 97,73 %
29.11.2018 07:14 -5,0 C 3,3 C -6,1 C 93 % 1027,6 hPa 0,0 l/m 9,7 km/h (2 Bft) O-NO 63 0 min 0,000 mm 0,0 UV-I 5 W/m -6,0 C -8,7 C 16,1 km/h (3 Bft) 98,11 %
29.11.2018 07:16 -5,0 C 3,9 C -6,1 C 93 % 1027,6 hPa 0,0 l/m 10,7 km/h (2 Bft) O-NO 78 0 min 0,000 mm 0,0 UV-I 6 W/m -6,0 C -9,6 C 16,1 km/h (3 Bft) 97,56 %
29.11.2018 07:18 -5,0 C 3,9 C -6,1 C 93 % 1027,6 hPa 0,0 l/m 12,7 km/h (3 Bft) O 92 0 min 0,000 mm 0,0 UV-I 7 W/m -6,0 C -11,3 C 17,7 km/h (3 Bft) 97,56 %
29.11.2018 07:20 -4,9 C 3,3 C -6,1 C 93 % 1027,5 hPa 0,0 l/m 9,4 km/h (2 Bft) O 80 0 min 0,000 mm 0,0 UV-I 7 W/m -5,9 C -8,3 C 12,9 km/h (3 Bft) 96,23 %
29.11.2018 07:22 -4,9 C 3,3 C -6,1 C 93 % 1027,5 hPa 0,0 l/m 10,6 km/h (2 Bft) O-NO 73 0 min 0,000 mm 0,0 UV-I 8 W/m -5,9 C -9,4 C 14,5 km/h (3 Bft) 95,45 %
29.11.2018 07:24 -4,9 C 3,3 C -6,1 C 93 % 1027,6 hPa 0,0 l/m 10,0 km/h (2 Bft) O-NO 64 0 min 0,000 mm 0,0 UV-I 9 W/m -5,9 C -8,9 C 14,5 km/h (3 Bft) 96,00 %
29.11.2018 07:26 -4,9 C 3,3 C -6,1 C 93 % 1027,6 hPa 0,0 l/m 14,8 km/h (3 Bft) O 86 0 min 0,000 mm 0,0 UV-I 9 W/m -5,9 C -12,8 C 17,7 km/h (3 Bft) 95,12 %
29.11.2018 07:28 -4,9 C 3,3 C -6,1 C 93 % 1027,5 hPa 0,0 l/m 12,4 km/h (3 Bft) O-SO 117 0 min 0,000 mm 0,0 UV-I 9 W/m -5,9 C -11,0 C 19,3 km/h (3 Bft) 96,23 %
29.11.2018 07:30 -4,9 C 3,3 C -6,1 C 93 % 1027,5 hPa 0,0 l/m 11,1 km/h (2 Bft) O 80 0 min 0,000 mm 0,0 UV-I 10 W/m -5,9 C -9,9 C 16,1 km/h (3 Bft) 95,12 %
29.11.2018 07:32 -4,9 C 3,3 C -6,1 C 93 % 1027,5 hPa 0,0 l/m 10,1 km/h (2 Bft) O 86 0 min 0,000 mm 0,0 UV-I 11 W/m -5,9 C -9,0 C 17,7 km/h (3 Bft) 95,24 %
29.11.2018 07:34 -4,9 C 3,3 C -6,1 C 93 % 1027,6 hPa 0,0 l/m 10,1 km/h (2 Bft) O-NO 57 0 min 0,000 mm 0,0 UV-I 11 W/m -5,9 C -9,0 C 17,7 km/h (3 Bft) 96,36 %
29.11.2018 07:36 -4,9 C 3,9 C -5,6 C 93 % 1027,6 hPa 0,0 l/m 10,1 km/h (2 Bft) O-NO 78 0 min 0,000 mm 0,0 UV-I 11 W/m -5,9 C -9,0 C 16,1 km/h (3 Bft) 90,57 %
29.11.2018 07:38 -4,9 C 3,3 C -5,6 C 93 % 1027,8 hPa 0,0 l/m 10,7 km/h (2 Bft) O-NO 73 0 min 0,000 mm 0,0 UV-I 12 W/m -5,9 C -9,5 C 14,5 km/h (3 Bft) 94,44 %
29.11.2018 07:40 -4,9 C 3,3 C -5,6 C 93 % 1027,8 hPa 0,0 l/m 7,9 km/h (2 Bft) O-NO 67 0 min 0,000 mm 0,0 UV-I 14 W/m -5,9 C -6,7 C 11,3 km/h (2 Bft) 93,10 %
29.11.2018 07:42 -4,9 C 3,3 C -6,1 C 93 % 1027,8 hPa 0,0 l/m 6,5 km/h (2 Bft) O-NO 69 2 min 0,000 mm 0,0 UV-I 16 W/m -5,9 C -5,0 C 12,9 km/h (3 Bft) 97,44 %
29.11.2018 07:45 -4,9 C 3,3 C -5,6 C 93 % 1027,9 hPa 0,0 l/m 8,2 km/h (2 Bft) O 92 3 min 0,000 mm 0,0 UV-I 18 W/m -5,9 C -7,0 C 12,9 km/h (3 Bft) 96,34 %
29.11.2018 07:46 -4,9 C 3,9 C -5,6 C 93 % 1027,9 hPa 0,0 l/m 7,6 km/h (2 Bft) O 92 1 min 0,000 mm 0,0 UV-I 19 W/m -5,9 C -6,3 C 11,3 km/h (2 Bft) 100,00 %
29.11.2018 07:48 -4,9 C 3,3 C -5,6 C 93 % 1027,9 hPa 0,0 l/m 6,8 km/h (2 Bft) O-NO 74 2 min 0,000 mm 0,0 UV-I 21 W/m -5,9 C -5,4 C 12,9 km/h (3 Bft) 100,00 %
29.11.2018 07:50 -4,9 C 3,3 C -5,6 C 93 % 1027,9 hPa 0,0 l/m 8,7 km/h (2 Bft) NO 55 2 min 0,000 mm 0,0 UV-I 25 W/m -5,9 C -7,6 C 16,1 km/h (3 Bft) 97,14 %
29.11.2018 07:52 -4,9 C 3,3 C -5,6 C 93 % 1028,0 hPa 0,0 l/m 8,9 km/h (2 Bft) NO 40 2 min 0,000 mm 0,0 UV-I 26 W/m -5,9 C -7,8 C 12,9 km/h (3 Bft) 100,00 %
29.11.2018 07:54 -4,9 C 3,3 C -5,6 C 93 % 1027,9 hPa 0,0 l/m 8,2 km/h (2 Bft) O 84 2 min 0,000 mm 0,0 UV-I 25 W/m -5,9 C -7,0 C 12,9 km/h (3 Bft) 100,00 %
29.11.2018 07:56 -4,9 C 3,3 C -5,6 C 93 % 1027,9 hPa 0,0 l/m 8,9 km/h (2 Bft) O 86 0 min 0,000 mm 0,0 UV-I 24 W/m -5,9 C -7,8 C 14,5 km/h (3 Bft) 100,00 %
29.11.2018 07:58 -4,9 C 3,3 C -5,6 C 93 % 1027,9 hPa 0,0 l/m 8,9 km/h (2 Bft) O 90 0 min 0,000 mm 0,0 UV-I 28 W/m -5,9 C -7,8 C 12,9 km/h (3 Bft) 100,00 %
29.11.2018 08:00 -4,8 C 3,3 C -5,6 C 93 % 1027,9 hPa 0,0 l/m 11,6 km/h (2 Bft) O 98 0 min 0,000 mm 0,0 UV-I 32 W/m -5,8 C -10,2 C 14,5 km/h (3 Bft) 94,74 %
29.11.2018 08:02 -4,8 C 3,3 C -5,6 C 93 % 1027,9 hPa 0,0 l/m 8,2 km/h (2 Bft) O-NO 59 2 min 0,000 mm 0,0 UV-I 36 W/m -5,8 C -6,9 C 12,9 km/h (3 Bft) 100,00 %
29.11.2018 08:04 -4,8 C 3,3 C -5,6 C 93 % 1027,9 hPa 0,0 l/m 8,4 km/h (2 Bft) O-NO 75 2 min 0,000 mm 0,0 UV-I 38 W/m -5,8 C -7,1 C 12,9 km/h (3 Bft) 97,87 %
29.11.2018 08:06 -4,8 C 3,3 C -5,6 C 93 % 1028,0 hPa 0,0 l/m 10,6 km/h (2 Bft) O-NO 72 0 min 0,000 mm 0,0 UV-I 39 W/m -5,8 C -9,3 C 16,1 km/h (3 Bft) 100,00 %
29.11.2018 08:08 -4,8 C 3,3 C -5,6 C 93 % 1028,0 hPa 0,0 l/m 6,5 km/h (2 Bft) O-NO 61 0 min 0,000 mm 0,0 UV-I 40 W/m -5,8 C -4,9 C 11,3 km/h (2 Bft) 100,00 %
29.11.2018 08:10 -4,9 C 3,3 C -5,6 C 93 % 1027,9 hPa 0,0 l/m 7,2 km/h (2 Bft) O 82 0 min 0,000 mm 0,0 UV-I 42 W/m -5,9 C -5,9 C 14,5 km/h (3 Bft) 97,87 %
29.11.2018 08:12 -4,9 C 3,9 C -5,6 C 93 % 1027,9 hPa 0,0 l/m 9,7 km/h (2 Bft) O 82 0 min 0,000 mm 0,0 UV-I 45 W/m -5,9 C -8,6 C 12,9 km/h (3 Bft) 100,00 %
29.11.2018 08:14 -4,9 C 3,9 C -5,6 C 93 % 1027,8 hPa 0,0 l/m 10,3 km/h (2 Bft) O-NO 76 0 min 0,000 mm 0,0 UV-I 47 W/m -5,9 C -9,1 C 14,5 km/h (3 Bft) 97,56 %
29.11.2018 08:16 -4,9 C 3,3 C -5,6 C 93 % 1027,8 hPa 0,0 l/m 10,2 km/h (2 Bft) O-NO 69 0 min 0,000 mm 0,0 UV-I 52 W/m -5,9 C -9,1 C 12,9 km/h (3 Bft) 95,56 %
29.11.2018 08:18 -4,9 C 3,9 C -5,0 C 93 % 1027,8 hPa 0,0 l/m 9,6 km/h (2 Bft) O-SO 109 2 min 0,000 mm 0,0 UV-I 58 W/m -5,9 C -8,5 C 14,5 km/h (3 Bft) 97,37 %
29.11.2018 08:20 -4,9 C 3,3 C -5,0 C 93 % 1027,8 hPa 0,0 l/m 9,5 km/h (2 Bft) O 88 2 min 0,000 mm 0,0 UV-I 62 W/m -5,9 C -8,4 C 16,1 km/h (3 Bft) 98,11 %
29.11.2018 08:22 -4,8 C 3,3 C -5,0 C 93 % 1027,9 hPa 0,0 l/m 8,6 km/h (2 Bft) O 79 2 min 0,000 mm 0,0 UV-I 64 W/m -5,8 C -7,3 C 14,5 km/h (3 Bft) 100,00 %
29.11.2018 08:24 -4,8 C 3,9 C -5,0 C 93 % 1027,9 hPa 0,0 l/m 9,0 km/h (2 Bft) O-NO 74 2 min 0,000 mm 0,0 UV-I 64 W/m -5,8 C -7,8 C 12,9 km/h (3 Bft) 97,56 %
29.11.2018 08:26 -4,8 C 3,9 C -5,0 C 93 % 1027,8 hPa 0,0 l/m 9,3 km/h (2 Bft) O 94 0 min 0,000 mm 0,0 UV-I 61 W/m -5,8 C -8,1 C 12,9 km/h (3 Bft) 97,73 %
29.11.2018 08:28 -4,8 C 3,9 C -5,0 C 93 % 1027,8 hPa 0,0 l/m 9,7 km/h (2 Bft) O-NO 63 0 min 0,000 mm 0,0 UV-I 60 W/m -5,8 C -8,5 C 12,9 km/h (3 Bft) 96,36 %
29.11.2018 08:30 -4,7 C 3,3 C -4,4 C 93 % 1027,9 hPa 0,0 l/m 13,4 km/h (3 Bft) O 92 2 min 0,000 mm 0,0 UV-I 74 W/m -5,7 C -11,5 C 17,7 km/h (3 Bft) 96,55 %
29.11.2018 08:32 -4,7 C 3,9 C -4,4 C 93 % 1027,9 hPa 0,0 l/m 9,9 km/h (2 Bft) O-NO 74 2 min 0,000 mm 0,0 UV-I 79 W/m -5,7 C -8,5 C 14,5 km/h (3 Bft) 98,53 %
29.11.2018 08:34 -4,7 C 3,9 C -4,4 C 93 % 1027,8 hPa 0,0 l/m 10,8 km/h (2 Bft) O 93 2 min 0,000 mm 0,0 UV-I 83 W/m -5,7 C -9,4 C 17,7 km/h (3 Bft) 97,73 %
29.11.2018 08:36 -4,6 C 3,9 C -4,4 C 93 % 1027,8 hPa 0,0 l/m 12,1 km/h (2 Bft) O-NO 65 2 min 0,000 mm 0,0 UV-I 83 W/m -5,6 C -10,4 C 16,1 km/h (3 Bft) 97,87 %
29.11.2018 08:38 -4,6 C 3,9 C -4,4 C 93 % 1027,8 hPa 0,0 l/m 15,9 km/h (3 Bft) O-NO 69 2 min 0,000 mm 0,0 UV-I 79 W/m -5,6 C -13,2 C 24,1 km/h (4 Bft) 89,36 %
29.11.2018 08:40 -4,6 C 3,9 C -4,4 C 93 % 1027,7 hPa 0,0 l/m 14,4 km/h (3 Bft) O-SO 108 0 min 0,000 mm 0,0 UV-I 73 W/m -5,6 C -12,1 C 19,3 km/h (3 Bft) 91,49 %
29.11.2018 08:42 -4,6 C 3,9 C -4,4 C 92 % 1027,8 hPa 0,0 l/m 10,8 km/h (2 Bft) O-NO 72 0 min 0,000 mm 0,0 UV-I 73 W/m -5,7 C -9,3 C 19,3 km/h (3 Bft) 95,74 %
29.11.2018 08:44 -4,6 C 3,3 C -4,4 C 92 % 1027,8 hPa 0,0 l/m 13,1 km/h (3 Bft) O-NO 64 2 min 0,000 mm 0,0 UV-I 88 W/m -5,7 C -11,2 C 19,3 km/h (3 Bft) 94,00 %
29.11.2018 08:46 -4,6 C 3,3 C -4,4 C 92 % 1027,8 hPa 0,0 l/m 15,1 km/h (3 Bft) O-SO 109 2 min 0,000 mm 0,0 UV-I 100 W/m -5,7 C -12,6 C 22,5 km/h (4 Bft) 95,74 %
29.11.2018 08:48 -4,5 C 3,3 C -4,4 C 92 % 1027,8 hPa 0,0 l/m 13,8 km/h (3 Bft) O 101 0 min 0,000 mm 0,0 UV-I 86 W/m -5,6 C -11,6 C 19,3 km/h (3 Bft) 97,37 %
29.11.2018 08:50 -4,5 C 3,9 C -4,4 C 92 % 1027,7 hPa 0,0 l/m 14,7 km/h (3 Bft) O 96 0 min 0,000 mm 0,0 UV-I 70 W/m -5,6 C -12,2 C 19,3 km/h (3 Bft) 96,43 %
29.11.2018 08:52 -4,5 C 3,9 C -4,4 C 92 % 1027,8 hPa 0,0 l/m 13,6 km/h (3 Bft) O-NO 78 0 min 0,000 mm 0,0 UV-I 60 W/m -5,6 C -11,4 C 17,7 km/h (3 Bft) 95,45 %
29.11.2018 08:54 -4,5 C 3,3 C -4,4 C 92 % 1027,8 hPa 0,0 l/m 15,8 km/h (3 Bft) O-NO 63 0 min 0,000 mm 0,0 UV-I 57 W/m -5,6 C -13,0 C 20,9 km/h (4 Bft) 95,12 %
29.11.2018 08:56 -4,5 C 3,3 C -4,4 C 92 % 1027,8 hPa 0,0 l/m 13,5 km/h (3 Bft) O-NO 73 0 min 0,000 mm 0,0 UV-I 60 W/m -5,6 C -11,4 C 19,3 km/h (3 Bft) 96,23 %
29.11.2018 08:58 -4,6 C 3,3 C -4,4 C 92 % 1027,7 hPa 0,0 l/m 13,6 km/h (3 Bft) O 98 0 min 0,000 mm 0,0 UV-I 59 W/m -5,7 C -11,6 C 17,7 km/h (3 Bft) 97,62 %
29.11.2018 09:00 -4,6 C 3,3 C -4,4 C 92 % 1027,7 hPa 0,0 l/m 15,8 km/h (3 Bft) O-SO 103 0 min 0,025 mm 0,0 UV-I 70 W/m -5,7 C -13,1 C 20,9 km/h (4 Bft) 98,11 %
29.11.2018 09:02 -4,6 C 3,9 C -4,4 C 92 % 1027,6 hPa 0,0 l/m 13,4 km/h (3 Bft) O 101 0 min 0,000 mm 0,0 UV-I 84 W/m -5,7 C -11,4 C 17,7 km/h (3 Bft) 97,87 %
29.11.2018 09:04 -4,6 C 3,3 C -4,4 C 92 % 1027,6 hPa 0,0 l/m 12,3 km/h (3 Bft) O 97 0 min 0,000 mm 0,0 UV-I 79 W/m -5,7 C -10,5 C 17,7 km/h (3 Bft) 97,37 %
29.11.2018 09:06 -4,5 C 3,3 C -4,4 C 92 % 1027,6 hPa 0,0 l/m 10,7 km/h (2 Bft) O 97 0 min 0,000 mm 0,0 UV-I 92 W/m -5,6 C -9,1 C 20,9 km/h (4 Bft) 98,11 %
29.11.2018 09:08 -4,5 C 3,3 C -4,4 C 92 % 1027,6 hPa 0,0 l/m 12,2 km/h (2 Bft) O 99 0 min 0,000 mm 0,0 UV-I 109 W/m -5,6 C -10,3 C 16,1 km/h (3 Bft) 93,10 %
29.11.2018 09:10 -4,5 C 3,3 C -4,4 C 92 % 1027,6 hPa 0,0 l/m 9,8 km/h (2 Bft) O 92 2 min 0,000 mm 0,0 UV-I 117 W/m -5,6 C -8,2 C 20,9 km/h (4 Bft) 95,59 %
29.11.2018 09:12 -4,4 C 3,9 C -4,4 C 92 % 1027,6 hPa 0,0 l/m 15,1 km/h (3 Bft) O 86 2 min 0,000 mm 0,0 UV-I 138 W/m -5,5 C -12,4 C 22,5 km/h (4 Bft) 95,12 %
29.11.2018 09:14 -4,4 C 3,3 C -4,4 C 92 % 1027,6 hPa 0,0 l/m 12,8 km/h (3 Bft) O 84 2 min 0,000 mm 0,0 UV-I 165 W/m -5,5 C -10,7 C 19,3 km/h (3 Bft) 95,45 %
29.11.2018 09:16 -4,3 C 3,9 C -4,4 C 92 % 1027,4 hPa 0,0 l/m 17,8 km/h (3 Bft) O-NO 74 2 min 0,000 mm 0,0 UV-I 164 W/m -5,4 C -14,0 C 22,5 km/h (4 Bft) 95,74 %
29.11.2018 09:18 -4,3 C 3,9 C -4,4 C 92 % 1027,4 hPa 0,0 l/m 13,9 km/h (3 Bft) O-SO 106 2 min 0,000 mm 0,0 UV-I 128 W/m -5,4 C -11,4 C 20,9 km/h (4 Bft) 94,34 %
29.11.2018 09:20 -4,3 C 3,3 C -4,4 C 92 % 1027,3 hPa 0,0 l/m 15,8 km/h (3 Bft) O-NO 76 2 min 0,000 mm 0,0 UV-I 124 W/m -5,4 C -12,7 C 24,1 km/h (4 Bft) 92,68 %
29.11.2018 09:22 -4,3 C 3,9 C -4,4 C 92 % 1027,3 hPa 0,0 l/m 16,0 km/h (3 Bft) O 88 0 min 0,000 mm 0,0 UV-I 120 W/m -5,4 C -12,9 C 19,3 km/h (3 Bft) 93,18 %
29.11.2018 09:24 -4,3 C 3,3 C -4,4 C 91 % 1027,3 hPa 0,0 l/m 18,2 km/h (3 Bft) O 92 2 min 0,000 mm 0,0 UV-I 127 W/m -5,5 C -14,2 C 25,7 km/h (4 Bft) 94,34 %
29.11.2018 09:26 -4,2 C 3,3 C -4,4 C 91 % 1027,2 hPa 0,0 l/m 19,1 km/h (3 Bft) O 88 2 min 0,000 mm 0,0 UV-I 158 W/m -5,4 C -14,6 C 24,1 km/h (4 Bft) 95,45 %
29.11.2018 09:28 -4,2 C 3,3 C -4,4 C 91 % 1027,2 hPa 0,0 l/m 15,5 km/h (3 Bft) O-NO 64 2 min 0,000 mm 0,0 UV-I 182 W/m -5,4 C -12,4 C 24,1 km/h (4 Bft) 94,34 %
29.11.2018 09:30 -4,2 C 3,3 C -4,4 C 91 % 1027,1 hPa 0,0 l/m 19,0 km/h (3 Bft) O 87 2 min 0,000 mm 0,0 UV-I 181 W/m -5,4 C -14,5 C 25,7 km/h (4 Bft) 94,44 %
29.11.2018 09:32 -4,1 C 3,3 C -3,9 C 91 % 1027,1 hPa 0,0 l/m 18,9 km/h (3 Bft) O 86 2 min 0,000 mm 0,0 UV-I 198 W/m -5,3 C -14,3 C 25,7 km/h (4 Bft) 95,45 %
29.11.2018 09:34 -4,1 C 3,3 C -3,9 C 91 % 1027,2 hPa 0,0 l/m 18,3 km/h (3 Bft) O 84 2 min 0,000 mm 0,0 UV-I 201 W/m -5,3 C -14,0 C 25,7 km/h (4 Bft) 94,64 %
29.11.2018 09:35 -4,1 C 3,3 C -3,9 C 91 % 1027,1 hPa 0,0 l/m 17,7 km/h (3 Bft) O 90 1 min 0,000 mm 0,0 UV-I 201 W/m -5,3 C -13,7 C 25,7 km/h (4 Bft) 92,98 %
29.11.2018 09:38 -4,0 C 3,3 C -3,9 C 91 % 1027,1 hPa 0,0 l/m 16,9 km/h (3 Bft) O-SO 104 3 min 0,000 mm 0,0 UV-I 206 W/m -5,2 C -13,0 C 19,3 km/h (3 Bft) 100,00 %
29.11.2018 09:40 -4,0 C 3,9 C -3,9 C 91 % 1027,1 hPa 0,0 l/m 16,0 km/h (3 Bft) O-SO 105 2 min 0,000 mm 0,0 UV-I 208 W/m -5,2 C -12,5 C 24,1 km/h (4 Bft) 92,45 %
29.11.2018 09:42 -3,9 C 3,9 C -3,9 C 91 % 1027,1 hPa 0,0 l/m 15,2 km/h (3 Bft) O-SO 103 2 min 0,000 mm 0,0 UV-I 205 W/m -5,1 C -11,8 C 20,9 km/h (4 Bft) 95,12 %
29.11.2018 09:44 -3,9 C 3,9 C -3,9 C 91 % 1027,0 hPa 0,0 l/m 15,9 km/h (3 Bft) O-SO 117 2 min 0,000 mm 0,0 UV-I 212 W/m -5,1 C -12,3 C 24,1 km/h (4 Bft) 95,45 %
29.11.2018 09:46 -3,8 C 3,9 C -3,9 C 91 % 1027,0 hPa 0,0 l/m 18,2 km/h (3 Bft) SO 134 2 min 0,000 mm 0,0 UV-I 222 W/m -5,0 C -13,6 C 25,7 km/h (4 Bft) 93,75 %
29.11.2018 09:48 -3,8 C 3,9 C -3,9 C 91 % 1026,9 hPa 0,0 l/m 15,6 km/h (3 Bft) O 82 2 min 0,000 mm 0,0 UV-I 223 W/m -5,0 C -12,0 C 22,5 km/h (4 Bft) 96,15 %
29.11.2018 09:50 -3,7 C 3,9 C -3,9 C 91 % 1027,0 hPa 0,0 l/m 18,1 km/h (3 Bft) O 82 2 min 0,000 mm 0,0 UV-I 223 W/m -4,9 C -13,4 C 22,5 km/h (4 Bft) 95,74 %
29.11.2018 09:52 -3,7 C 3,3 C -3,9 C 91 % 1026,9 hPa 0,0 l/m 20,3 km/h (4 Bft) O-NO 76 2 min 0,000 mm 0,0 UV-I 230 W/m -4,9 C -14,6 C 25,7 km/h (4 Bft) 94,74 %
29.11.2018 09:54 -3,7 C 3,3 C -3,9 C 91 % 1026,9 hPa 0,0 l/m 17,8 km/h (3 Bft) O-SO 103 2 min 0,000 mm 0,0 UV-I 231 W/m -4,9 C -13,2 C 24,1 km/h (4 Bft) 94,34 %
29.11.2018 09:56 -3,7 C 3,3 C -3,9 C 91 % 1027,1 hPa 0,0 l/m 19,0 km/h (3 Bft) O 82 2 min 0,000 mm 0,0 UV-I 235 W/m -4,9 C -13,9 C 27,4 km/h (4 Bft) 100,00 %
29.11.2018 09:58 -3,7 C 3,3 C -3,9 C 90 % 1027,1 hPa 0,0 l/m 15,6 km/h (3 Bft) O 82 2 min 0,000 mm 0,0 UV-I 235 W/m -5,1 C -11,9 C 22,5 km/h (4 Bft) 96,43 %
29.11.2018 10:00 -3,6 C 3,3 C -3,9 C 90 % 1027,0 hPa 0,0 l/m 14,9 km/h (3 Bft) O-NO 75 2 min 0,000 mm 0,0 UV-I 240 W/m -5,0 C -11,3 C 19,3 km/h (3 Bft) 94,74 %
29.11.2018 10:02 -3,6 C 3,9 C -3,9 C 90 % 1027,1 hPa 0,0 l/m 16,7 km/h (3 Bft) O-SO 116 2 min 0,051 mm 0,0 UV-I 237 W/m -5,0 C -12,4 C 24,1 km/h (4 Bft) 98,11 %
29.11.2018 10:04 -3,6 C 3,3 C -3,3 C 90 % 1027,1 hPa 0,0 l/m 20,4 km/h (4 Bft) O-SO 116 2 min 0,000 mm 0,0 UV-I 233 W/m -5,0 C -14,5 C 29,0 km/h (5 Bft) 97,56 %
29.11.2018 10:06 -3,6 C 3,3 C -3,3 C 90 % 1027,1 hPa 0,0 l/m 18,6 km/h (3 Bft) O-NO 76 2 min 0,000 mm 0,0 UV-I 238 W/m -5,0 C -13,5 C 25,7 km/h (4 Bft) 96,88 %
29.11.2018 10:08 -3,5 C 3,3 C -3,3 C 90 % 1027,2 hPa 0,0 l/m 13,4 km/h (3 Bft) O-NO 77 2 min 0,000 mm 0,0 UV-I 246 W/m -4,9 C -10,1 C 20,9 km/h (4 Bft) 98,53 %
29.11.2018 10:10 -3,5 C 3,9 C -3,3 C 90 % 1027,2 hPa 0,0 l/m 14,0 km/h (3 Bft) O-SO 116 2 min 0,000 mm 0,0 UV-I 252 W/m -4,9 C -10,5 C 20,9 km/h (4 Bft) 97,56 %
29.11.2018 10:12 -3,4 C 3,9 C -3,3 C 89 % 1027,2 hPa 0,0 l/m 15,4 km/h (3 Bft) O 93 2 min 0,000 mm 0,0 UV-I 250 W/m -4,9 C -11,4 C 19,3 km/h (3 Bft) 96,23 %
29.11.2018 10:14 -3,4 C 3,9 C -3,3 C 89 % 1027,1 hPa 0,0 l/m 10,9 km/h (2 Bft) O 101 2 min 0,000 mm 0,0 UV-I 250 W/m -4,9 C -8,0 C 16,1 km/h (3 Bft) 97,37 %
29.11.2018 10:16 -3,3 C 3,9 C -3,3 C 89 % 1027,1 hPa 0,0 l/m 14,5 km/h (3 Bft) O-NO 73 2 min 0,000 mm 0,0 UV-I 253 W/m -4,8 C -10,6 C 19,3 km/h (3 Bft) 96,00 %
29.11.2018 10:19 -3,3 C 3,3 C -3,3 C 89 % 1027,0 hPa 0,0 l/m 16,6 km/h (3 Bft) O 79 3 min 0,000 mm 0,0 UV-I 246 W/m -4,8 C -12,0 C 24,1 km/h (4 Bft) 97,18 %
29.11.2018 10:20 -3,3 C 3,3 C -3,3 C 89 % 1027,0 hPa 0,0 l/m 22,2 km/h (4 Bft) O-SO 105 0 min 0,000 mm 0,0 UV-I 166 W/m -4,8 C -15,0 C 25,7 km/h (4 Bft) 96,15 %
29.11.2018 10:22 -3,2 C 3,3 C -3,3 C 89 % 1027,0 hPa 0,0 l/m 18,1 km/h (3 Bft) O 99 2 min 0,000 mm 0,0 UV-I 259 W/m -4,7 C -12,7 C 24,1 km/h (4 Bft) 98,11 %
29.11.2018 10:25 -3,2 C 3,3 C -3,3 C 89 % 1026,9 hPa 0,0 l/m 15,7 km/h (3 Bft) O-NO 76 3 min 0,000 mm 0,0 UV-I 245 W/m -4,7 C -11,3 C 22,5 km/h (4 Bft) 98,46 %
29.11.2018 10:26 -3,2 C 3,3 C -3,3 C 89 % 1026,9 hPa 0,0 l/m 15,3 km/h (3 Bft) O-NO 77 1 min 0,000 mm 0,0 UV-I 245 W/m -4,7 C -11,1 C 19,3 km/h (3 Bft) 92,31 %
29.11.2018 10:28 -3,1 C 3,9 C -3,3 C 89 % 1026,9 hPa 0,0 l/m 13,9 km/h (3 Bft) O 84 2 min 0,000 mm 0,1 UV-I 202 W/m -4,6 C -10,0 C 17,7 km/h (3 Bft) 97,78 %
29.11.2018 10:30 -3,1 C 3,9 C -2,8 C 89 % 1027,0 hPa 0,0 l/m 14,8 km/h (3 Bft) O-NO 76 2 min 0,000 mm 0,3 UV-I 252 W/m -4,6 C -10,6 C 19,3 km/h (3 Bft) 97,87 %
29.11.2018 10:32 -3,0 C 3,9 C -2,8 C 89 % 1027,0 hPa 0,0 l/m 13,8 km/h (3 Bft) O-SO 114 2 min 0,000 mm 0,5 UV-I 234 W/m -4,6 C -9,8 C 20,9 km/h (4 Bft) 98,00 %
29.11.2018 10:34 -3,0 C 3,9 C -2,8 C 89 % 1026,9 hPa 0,0 l/m 14,0 km/h (3 Bft) O-NO 71 2 min 0,000 mm 0,5 UV-I 241 W/m -4,6 C -9,9 C 20,9 km/h (4 Bft) 97,73 %
29.11.2018 10:36 -2,9 C 3,3 C -2,8 C 88 % 1026,9 hPa 0,0 l/m 16,6 km/h (3 Bft) O 98 2 min 0,000 mm 0,5 UV-I 254 W/m -4,6 C -11,5 C 22,5 km/h (4 Bft) 97,56 %
29.11.2018 10:38 -2,9 C 3,9 C -2,8 C 88 % 1026,8 hPa 0,0 l/m 13,4 km/h (3 Bft) O 86 2 min 0,000 mm 0,5 UV-I 259 W/m -4,6 C -9,4 C 20,9 km/h (4 Bft) 98,00 %
29.11.2018 10:40 -2,9 C 3,9 C -2,8 C 88 % 1026,8 hPa 0,0 l/m 15,0 km/h (3 Bft) O-SO 119 2 min 0,000 mm 0,5 UV-I 251 W/m -4,6 C -10,5 C 19,3 km/h (3 Bft) 94,34 %
29.11.2018 10:42 -2,9 C 3,9 C -2,8 C 88 % 1026,8 hPa 0,0 l/m 18,9 km/h (3 Bft) O-NO 63 2 min 0,000 mm 0,5 UV-I 275 W/m -4,6 C -12,8 C 27,4 km/h (4 Bft) 94,74 %
29.11.2018 10:44 -2,8 C 3,9 C -2,8 C 88 % 1026,7 hPa 0,0 l/m 14,9 km/h (3 Bft) O-SO 111 2 min 0,000 mm 0,5 UV-I 268 W/m -4,5 C -10,3 C 22,5 km/h (4 Bft) 96,23 %
29.11.2018 10:46 -2,8 C 3,9 C -2,2 C 88 % 1026,7 hPa 0,0 l/m 16,1 km/h (3 Bft) O 98 2 min 0,000 mm 0,5 UV-I 267 W/m -4,5 C -11,1 C 22,5 km/h (4 Bft) 95,12 %
29.11.2018 10:48 -2,7 C 3,9 C -2,2 C 88 % 1026,5 hPa 0,0 l/m 14,9 km/h (3 Bft) O 81 2 min 0,000 mm 0,5 UV-I 271 W/m -4,4 C -10,2 C 22,5 km/h (4 Bft) 94,00 %
29.11.2018 10:50 -2,7 C 3,9 C -2,2 C 88 % 1026,6 hPa 0,0 l/m 17,1 km/h (3 Bft) O-SO 107 2 min 0,000 mm 0,5 UV-I 276 W/m -4,4 C -11,5 C 24,1 km/h (4 Bft) 92,68 %
29.11.2018 10:52 -2,7 C 3,3 C -2,2 C 88 % 1026,6 hPa 0,0 l/m 13,4 km/h (3 Bft) O 96 2 min 0,000 mm 0,5 UV-I 290 W/m -4,4 C -9,2 C 19,3 km/h (3 Bft) 90,57 %
29.11.2018 10:54 -2,6 C 3,3 C -2,2 C 88 % 1026,6 hPa 0,0 l/m 13,4 km/h (3 Bft) O 101 2 min 0,000 mm 0,5 UV-I 289 W/m -4,3 C -9,0 C 17,7 km/h (3 Bft) 92,00 %
29.11.2018 10:56 -2,5 C 3,3 C -1,7 C 88 % 1026,7 hPa 0,0 l/m 9,9 km/h (2 Bft) O-SO 107 2 min 0,000 mm 0,5 UV-I 288 W/m -4,2 C -6,1 C 16,1 km/h (3 Bft) 93,62 %
29.11.2018 10:58 -2,4 C 3,9 C -2,2 C 88 % 1026,7 hPa 0,0 l/m 18,0 km/h (3 Bft) O-NO 76 2 min 0,000 mm 0,5 UV-I 287 W/m -4,1 C -11,7 C 24,1 km/h (4 Bft) 95,12 %
29.11.2018 11:00 -2,4 C 3,3 C -2,2 C 87 % 1026,7 hPa 0,0 l/m 19,5 km/h (3 Bft) O-NO 61 2 min 0,076 mm 0,5 UV-I 281 W/m -4,3 C -12,5 C 29,0 km/h (5 Bft) 92,86 %
29.11.2018 11:02 -2,4 C 3,3 C -2,2 C 87 % 1026,6 hPa 0,0 l/m 17,5 km/h (3 Bft) O-SO 107 2 min 0,000 mm 0,5 UV-I 272 W/m -4,3 C -11,4 C 22,5 km/h (4 Bft) 92,73 %
29.11.2018 11:04 -2,4 C 3,3 C -2,2 C 87 % 1026,5 hPa 0,0 l/m 16,5 km/h (3 Bft) O 85 2 min 0,000 mm 0,6 UV-I 280 W/m -4,3 C -10,8 C 22,5 km/h (4 Bft) 98,00 %
29.11.2018 11:06 -2,4 C 3,3 C -2,2 C 86 % 1026,3 hPa 0,0 l/m 18,1 km/h (3 Bft) O-NO 74 2 min 0,000 mm 0,6 UV-I 292 W/m -4,4 C -11,7 C 22,5 km/h (4 Bft) 94,87 %
29.11.2018 11:08 -2,4 C 3,3 C -2,2 C 86 % 1026,3 hPa 0,0 l/m 17,5 km/h (3 Bft) O-NO 57 2 min 0,000 mm 0,6 UV-I 298 W/m -4,4 C -11,4 C 24,1 km/h (4 Bft) 93,18 %
29.11.2018 11:10 -2,3 C 3,3 C -2,2 C 87 % 1026,3 hPa 0,0 l/m 20,9 km/h (4 Bft) O-NO 67 2 min 0,000 mm 0,6 UV-I 299 W/m -4,2 C -13,0 C 30,6 km/h (5 Bft) 94,34 %
29.11.2018 11:12 -2,3 C 3,9 C -2,2 C 86 % 1026,3 hPa 0,0 l/m 21,0 km/h (4 Bft) O-NO 62 2 min 0,000 mm 0,6 UV-I 301 W/m -4,3 C -13,1 C 29,0 km/h (5 Bft) 96,00 %
29.11.2018 11:14 -2,3 C 3,3 C -1,7 C 86 % 1026,3 hPa 0,0 l/m 17,5 km/h (3 Bft) O 93 2 min 0,000 mm 0,6 UV-I 300 W/m -4,3 C -11,3 C 24,1 km/h (4 Bft) 92,11 %
29.11.2018 11:16 -2,2 C 3,3 C -1,7 C 86 % 1026,3 hPa 0,0 l/m 19,6 km/h (3 Bft) O-SO 105 2 min 0,000 mm 0,6 UV-I 301 W/m -4,2 C -12,3 C 29,0 km/h (5 Bft) 98,25 %
29.11.2018 11:18 -2,2 C 3,3 C -1,1 C 86 % 1026,3 hPa 0,0 l/m 23,3 km/h (4 Bft) O-SO 114 2 min 0,000 mm 0,6 UV-I 298 W/m -4,2 C -14,0 C 30,6 km/h (5 Bft) 97,73 %
29.11.2018 11:20 -2,2 C 3,3 C -1,1 C 85 % 1026,3 hPa 0,0 l/m 17,4 km/h (3 Bft) O 93 2 min 0,000 mm 0,6 UV-I 301 W/m -4,4 C -11,1 C 27,4 km/h (4 Bft) 97,56 %
29.11.2018 11:22 -2,1 C 3,3 C -1,1 C 85 % 1026,2 hPa 0,0 l/m 18,9 km/h (3 Bft) O-SO 105 2 min 0,000 mm 0,6 UV-I 304 W/m -4,3 C -11,8 C 24,1 km/h (4 Bft) 98,11 %
29.11.2018 11:24 -2,1 C 3,3 C -1,1 C 85 % 1026,2 hPa 0,0 l/m 18,1 km/h (3 Bft) O 88 2 min 0,000 mm 0,6 UV-I 306 W/m -4,3 C -11,4 C 25,7 km/h (4 Bft) 97,73 %
29.11.2018 11:26 -2,0 C 3,3 C -1,1 C 85 % 1026,2 hPa 0,0 l/m 18,0 km/h (3 Bft) O 92 2 min 0,000 mm 0,6 UV-I 306 W/m -4,2 C -11,2 C 24,1 km/h (4 Bft) 95,74 %
29.11.2018 11:28 -2,0 C 3,9 C -1,7 C 85 % 1026,1 hPa 0,0 l/m 16,6 km/h (3 Bft) O-NO 73 2 min 0,000 mm 0,6 UV-I 307 W/m -4,2 C -10,4 C 24,1 km/h (4 Bft) 95,74 %
29.11.2018 11:30 -1,9 C 3,3 C -1,1 C 85 % 1026,1 hPa 0,0 l/m 13,9 km/h (3 Bft) O 82 2 min 0,000 mm 0,6 UV-I 310 W/m -4,1 C -8,6 C 20,9 km/h (4 Bft) 95,45 %
29.11.2018 11:32 -1,8 C 3,9 C -1,1 C 85 % 1026,1 hPa 0,0 l/m 13,1 km/h (3 Bft) O 96 2 min 0,000 mm 0,6 UV-I 310 W/m -4,0 C -7,9 C 17,7 km/h (3 Bft) 98,21 %
29.11.2018 11:34 -1,8 C 3,3 C -1,1 C 85 % 1026,1 hPa 0,0 l/m 12,2 km/h (2 Bft) O-NO 70 2 min 0,000 mm 0,6 UV-I 307 W/m -4,0 C -7,2 C 17,7 km/h (3 Bft) 97,73 %
29.11.2018 11:36 -1,7 C 3,3 C -1,1 C 85 % 1026,0 hPa 0,0 l/m 11,6 km/h (2 Bft) O-NO 71 2 min 0,000 mm 0,6 UV-I 307 W/m -3,9 C -6,7 C 17,7 km/h (3 Bft) 97,56 %
29.11.2018 11:38 -1,8 C 3,3 C -1,1 C 84 % 1026,0 hPa 0,0 l/m 15,5 km/h (3 Bft) O-SO 109 2 min 0,000 mm 0,6 UV-I 301 W/m -4,1 C -9,5 C 20,9 km/h (4 Bft) 98,00 %
29.11.2018 11:40 -1,8 C 3,3 C -1,1 C 84 % 1026,0 hPa 0,0 l/m 15,3 km/h (3 Bft) O 83 2 min 0,000 mm 0,6 UV-I 296 W/m -4,1 C -9,4 C 20,9 km/h (4 Bft) 98,00 %
29.11.2018 11:42 -1,8 C 3,3 C -1,1 C 84 % 1025,9 hPa 0,0 l/m 16,7 km/h (3 Bft) O 92 2 min 0,000 mm 0,6 UV-I 295 W/m -4,1 C -10,2 C 24,1 km/h (4 Bft) 94,44 %
29.11.2018 11:44 -1,7 C 3,3 C -1,1 C 84 % 1025,9 hPa 0,0 l/m 20,6 km/h (4 Bft) O-NO 69 2 min 0,000 mm 0,6 UV-I 301 W/m -4,0 C -12,1 C 27,4 km/h (4 Bft) 98,00 %
29.11.2018 11:46 -1,7 C 3,9 C -1,1 C 84 % 1025,8 hPa 0,0 l/m 19,0 km/h (3 Bft) O 84 2 min 0,000 mm 0,6 UV-I 305 W/m -4,0 C -11,3 C 25,7 km/h (4 Bft) 94,00 %
29.11.2018 11:48 -1,7 C 3,9 C -1,1 C 84 % 1025,7 hPa 0,0 l/m 19,9 km/h (4 Bft) O-NO 63 2 min 0,000 mm 0,6 UV-I 308 W/m -4,0 C -11,8 C 24,1 km/h (4 Bft) 91,49 %
29.11.2018 11:50 -1,7 C 3,3 C -1,1 C 84 % 1025,6 hPa 0,0 l/m 19,5 km/h (3 Bft) NO 50 2 min 0,000 mm 0,6 UV-I 311 W/m -4,0 C -11,6 C 25,7 km/h (4 Bft) 96,00 %
29.11.2018 11:52 -1,7 C 3,9 C -1,1 C 84 % 1025,5 hPa 0,0 l/m 20,7 km/h (4 Bft) O-NO 73 2 min 0,000 mm 0,6 UV-I 312 W/m -4,0 C -12,2 C 25,7 km/h (4 Bft) 94,74 %
29.11.2018 11:54 -1,7 C 3,9 C -1,1 C 84 % 1025,3 hPa 0,0 l/m 20,9 km/h (4 Bft) O 80 2 min 0,000 mm 0,6 UV-I 309 W/m -4,0 C -12,3 C 25,7 km/h (4 Bft) 96,00 %
29.11.2018 11:56 -1,7 C 3,9 C -1,1 C 84 % 1025,3 hPa 0,0 l/m 20,9 km/h (4 Bft) O 96 2 min 0,000 mm 0,6 UV-I 308 W/m -4,0 C -12,3 C 32,2 km/h (5 Bft) 96,23 %
29.11.2018 11:58 -1,6 C 3,9 C -1,1 C 83 % 1025,1 hPa 0,0 l/m 26,7 km/h (4 Bft) O-NO 73 2 min 0,000 mm 0,6 UV-I 314 W/m -4,1 C -14,5 C 33,8 km/h (5 Bft) 97,56 %
29.11.2018 12:00 -1,6 C 3,9 C -1,1 C 83 % 1025,1 hPa 0,0 l/m 23,9 km/h (4 Bft) O 86 2 min 0,102 mm 0,6 UV-I 302 W/m -4,1 C -13,4 C 30,6 km/h (5 Bft) 94,64 %
29.11.2018 12:02 -1,6 C 3,3 C -1,1 C 84 % 1025,0 hPa 0,0 l/m 21,4 km/h (4 Bft) O-NO 66 2 min 0,000 mm 0,6 UV-I 304 W/m -3,9 C -12,4 C 35,4 km/h (5 Bft) 94,29 %
29.11.2018 12:04 -1,6 C 3,3 C -1,7 C 83 % 1025,0 hPa 0,0 l/m 26,7 km/h (4 Bft) O 100 2 min 0,000 mm 0,6 UV-I 304 W/m -4,1 C -14,5 C 33,8 km/h (5 Bft) 98,21 %
29.11.2018 12:06 -1,6 C 3,3 C -1,1 C 83 % 1025,0 hPa 0,0 l/m 26,1 km/h (4 Bft) O 80 2 min 0,000 mm 0,6 UV-I 305 W/m -4,1 C -14,3 C 38,6 km/h (5 Bft) 97,37 %
29.11.2018 12:08 -1,5 C 3,3 C -1,1 C 83 % 1025,0 hPa 0,0 l/m 25,1 km/h (4 Bft) O 80 2 min 0,000 mm 0,6 UV-I 308 W/m -4,0 C -13,8 C 37,0 km/h (5 Bft) 97,87 %
29.11.2018 12:10 -1,5 C 3,3 C -1,1 C 83 % 1025,0 hPa 0,0 l/m 24,5 km/h (4 Bft) O-SO 117 2 min 0,000 mm 0,6 UV-I 304 W/m -4,0 C -13,6 C 32,2 km/h (5 Bft) 96,43 %
29.11.2018 12:12 -1,4 C 3,9 C -1,1 C 83 % 1025,0 hPa 0,0 l/m 22,3 km/h (4 Bft) O-NO 65 2 min 0,000 mm 0,6 UV-I 306 W/m -3,9 C -12,5 C 29,0 km/h (5 Bft) 100,00 %
29.11.2018 12:14 -1,4 C 3,3 C -1,1 C 82 % 1025,0 hPa 0,0 l/m 25,3 km/h (4 Bft) O 88 2 min 0,000 mm 0,6 UV-I 306 W/m -4,1 C -13,7 C 32,2 km/h (5 Bft) 94,64 %
29.11.2018 12:16 -1,4 C 3,3 C -1,1 C 82 % 1025,1 hPa 0,0 l/m 23,9 km/h (4 Bft) O-SO 103 2 min 0,000 mm 0,6 UV-I 308 W/m -4,1 C -13,2 C 30,6 km/h (5 Bft) 97,56 %
29.11.2018 12:18 -1,4 C 3,9 C -1,1 C 82 % 1025,1 hPa 0,0 l/m 21,1 km/h (4 Bft) O 98 2 min 0,000 mm 0,6 UV-I 306 W/m -4,1 C -12,0 C 25,7 km/h (4 Bft) 98,11 %
29.11.2018 12:20 -1,4 C 3,9 C -0,6 C 82 % 1025,2 hPa 0,0 l/m 17,5 km/h (3 Bft) O-SO 116 2 min 0,000 mm 0,6 UV-I 307 W/m -4,1 C -10,1 C 33,8 km/h (5 Bft) 96,00 %
29.11.2018 12:22 -1,3 C 3,9 C -0,6 C 82 % 1025,2 hPa 0,0 l/m 17,0 km/h (3 Bft) SO 124 2 min 0,000 mm 0,6 UV-I 297 W/m -4,0 C -9,7 C 25,7 km/h (4 Bft) 94,44 %
29.11.2018 12:24 -1,3 C 3,9 C -1,1 C 82 % 1025,2 hPa 0,0 l/m 18,4 km/h (3 Bft) O 96 2 min 0,000 mm 0,6 UV-I 300 W/m -4,0 C -10,5 C 27,4 km/h (4 Bft) 94,34 %
29.11.2018 12:26 -1,3 C 3,9 C -1,1 C 82 % 1025,2 hPa 0,0 l/m 23,2 km/h (4 Bft) O 89 2 min 0,000 mm 0,6 UV-I 303 W/m -4,0 C -12,8 C 30,6 km/h (5 Bft) 94,00 %
29.11.2018 12:28 -1,3 C 3,3 C -1,1 C 82 % 1025,2 hPa 0,0 l/m 21,7 km/h (4 Bft) O-SO 103 2 min 0,000 mm 0,6 UV-I 306 W/m -4,0 C -12,1 C 25,7 km/h (4 Bft) 94,74 %
29.11.2018 12:30 -1,2 C 3,3 C -1,1 C 82 % 1025,1 hPa 0,0 l/m 21,5 km/h (4 Bft) O 92 2 min 0,000 mm 0,6 UV-I 301 W/m -3,9 C -11,9 C 29,0 km/h (5 Bft) 93,22 %
29.11.2018 12:32 -1,2 C 3,3 C -1,1 C 82 % 1025,0 hPa 0,0 l/m 18,7 km/h (3 Bft) O 94 2 min 0,000 mm 0,6 UV-I 301 W/m -3,9 C -10,5 C 25,7 km/h (4 Bft) 92,68 %
29.11.2018 12:34 -1,2 C 3,3 C -0,6 C 82 % 1025,0 hPa 0,0 l/m 20,6 km/h (4 Bft) O 80 2 min 0,000 mm 0,6 UV-I 304 W/m -3,9 C -11,5 C 29,0 km/h (5 Bft) 95,45 %
29.11.2018 12:36 -1,1 C 3,3 C -0,6 C 82 % 1024,9 hPa 0,0 l/m 17,8 km/h (3 Bft) O 90 2 min 0,000 mm 0,6 UV-I 301 W/m -3,8 C -9,9 C 24,1 km/h (4 Bft) 94,00 %
29.11.2018 12:38 -1,1 C 3,9 C -0,6 C 82 % 1025,0 hPa 0,0 l/m 20,9 km/h (4 Bft) O 93 2 min 0,000 mm 0,6 UV-I 300 W/m -3,8 C -11,5 C 24,1 km/h (4 Bft) 95,74 %
29.11.2018 12:40 -1,1 C 3,9 C -0,6 C 82 % 1024,9 hPa 0,0 l/m 16,8 km/h (3 Bft) NO 55 2 min 0,000 mm 0,6 UV-I 299 W/m -3,8 C -9,4 C 20,9 km/h (4 Bft) 92,68 %
29.11.2018 12:42 -1,2 C 3,3 C -1,1 C 82 % 1024,8 hPa 0,0 l/m 20,7 km/h (4 Bft) O 97 2 min 0,000 mm 0,6 UV-I 296 W/m -3,9 C -11,5 C 27,4 km/h (4 Bft) 96,43 %
29.11.2018 12:44 -1,1 C 3,3 C -1,1 C 82 % 1024,7 hPa 0,0 l/m 18,6 km/h (3 Bft) O 99 2 min 0,000 mm 0,6 UV-I 298 W/m -3,8 C -10,4 C 24,1 km/h (4 Bft) 94,74 %
29.11.2018 12:46 -1,1 C 3,9 C -0,6 C 83 % 1024,6 hPa 0,0 l/m 20,0 km/h (4 Bft) O-NO 67 2 min 0,000 mm 0,6 UV-I 296 W/m -3,6 C -11,1 C 27,4 km/h (4 Bft) 96,23 %
29.11.2018 12:48 -1,1 C 3,9 C -0,6 C 83 % 1024,6 hPa 0,0 l/m 21,1 km/h (4 Bft) O 87 2 min 0,000 mm 0,6 UV-I 293 W/m -3,6 C -11,6 C 27,4 km/h (4 Bft) 95,12 %
29.11.2018 12:50 -1,1 C 3,3 C -0,6 C 83 % 1024,7 hPa 0,0 l/m 18,5 km/h (3 Bft) O 80 2 min 0,000 mm 0,6 UV-I 291 W/m -3,6 C -10,3 C 24,1 km/h (4 Bft) 96,00 %
29.11.2018 12:52 -1,1 C 3,3 C -0,6 C 83 % 1024,7 hPa 0,0 l/m 12,4 km/h (3 Bft) O-NO 67 2 min 0,000 mm 0,6 UV-I 290 W/m -3,6 C -6,6 C 17,7 km/h (3 Bft) 96,00 %
29.11.2018 12:54 -1,0 C 3,3 C -0,6 C 83 % 1024,7 hPa 0,0 l/m 15,0 km/h (3 Bft) O-NO 69 2 min 0,000 mm 0,6 UV-I 290 W/m -3,5 C -8,2 C 20,9 km/h (4 Bft) 94,00 %
29.11.2018 12:56 -0,9 C 3,3 C -0,6 C 83 % 1024,7 hPa 0,0 l/m 15,3 km/h (3 Bft) O-SO 103 2 min 0,000 mm 0,5 UV-I 288 W/m -3,4 C -8,3 C 20,9 km/h (4 Bft) 95,12 %
29.11.2018 12:58 -0,9 C 3,9 C 0,0 C 83 % 1024,7 hPa 0,0 l/m 15,5 km/h (3 Bft) O 86 2 min 0,000 mm 0,5 UV-I 287 W/m -3,4 C -8,4 C 20,9 km/h (4 Bft) 95,24 %
29.11.2018 13:00 -0,9 C 3,9 C 0,0 C 83 % 1024,7 hPa 0,0 l/m 16,5 km/h (3 Bft) O 97 2 min 0,000 mm 0,5 UV-I 281 W/m -3,4 C -9,0 C 22,5 km/h (4 Bft) 96,15 %
29.11.2018 13:02 -0,9 C 3,9 C -0,6 C 83 % 1024,6 hPa 0,0 l/m 18,8 km/h (3 Bft) O 79 2 min 0,127 mm 0,5 UV-I 277 W/m -3,4 C -10,2 C 25,7 km/h (4 Bft) 94,87 %
29.11.2018 13:04 -0,9 C 3,9 C 0,0 C 83 % 1024,5 hPa 0,0 l/m 16,8 km/h (3 Bft) O 86 2 min 0,000 mm 0,5 UV-I 273 W/m -3,4 C -9,1 C 20,9 km/h (4 Bft) 96,43 %
29.11.2018 13:06 -0,9 C 3,9 C 0,0 C 83 % 1024,4 hPa 0,0 l/m 18,7 km/h (3 Bft) O-SO 116 2 min 0,000 mm 0,5 UV-I 273 W/m -3,4 C -10,2 C 24,1 km/h (4 Bft) 95,74 %
29.11.2018 13:08 -0,9 C 3,9 C 0,0 C 83 % 1024,4 hPa 0,0 l/m 17,8 km/h (3 Bft) NO 54 2 min 0,000 mm 0,5 UV-I 269 W/m -3,4 C -9,7 C 24,1 km/h (4 Bft) 93,62 %
29.11.2018 13:10 -0,9 C 3,9 C -0,6 C 84 % 1024,3 hPa 0,0 l/m 18,3 km/h (3 Bft) O-NO 60 2 min 0,000 mm 0,5 UV-I 269 W/m -3,3 C -9,9 C 20,9 km/h (4 Bft) 96,00 %
29.11.2018 13:12 -0,9 C 3,9 C -0,6 C 84 % 1024,3 hPa 0,0 l/m 20,8 km/h (4 Bft) O-NO 78 2 min 0,000 mm 0,5 UV-I 269 W/m -3,3 C -11,2 C 25,7 km/h (4 Bft) 92,11 %
29.11.2018 13:14 -0,9 C 3,9 C -0,6 C 84 % 1024,3 hPa 0,0 l/m 15,3 km/h (3 Bft) O-NO 61 2 min 0,000 mm 0,5 UV-I 269 W/m -3,3 C -8,3 C 20,9 km/h (4 Bft) 98,00 %
29.11.2018 13:16 -0,9 C 3,9 C -0,6 C 84 % 1024,2 hPa 0,0 l/m 18,9 km/h (3 Bft) O 89 2 min 0,000 mm 0,5 UV-I 265 W/m -3,3 C -10,3 C 24,1 km/h (4 Bft) 96,15 %
29.11.2018 13:18 -0,9 C 3,9 C -0,6 C 84 % 1024,1 hPa 0,0 l/m 17,4 km/h (3 Bft) O-NO 78 2 min 0,000 mm 0,5 UV-I 264 W/m -3,3 C -9,5 C 20,9 km/h (4 Bft) 95,95 %
29.11.2018 13:20 -0,9 C 3,9 C -0,6 C 84 % 1024,1 hPa 0,0 l/m 17,9 km/h (3 Bft) O 98 2 min 0,000 mm 0,5 UV-I 256 W/m -3,3 C -9,7 C 27,4 km/h (4 Bft) 97,37 %
29.11.2018 13:22 -0,9 C 3,9 C -0,6 C 84 % 1024,1 hPa 0,0 l/m 19,4 km/h (3 Bft) O-SO 105 2 min 0,000 mm 0,5 UV-I 255 W/m -3,3 C -10,5 C 27,4 km/h (4 Bft) 95,74 %
29.11.2018 13:24 -0,9 C 3,9 C -0,6 C 84 % 1024,1 hPa 0,0 l/m 18,6 km/h (3 Bft) O 89 2 min 0,000 mm 0,5 UV-I 254 W/m -3,3 C -10,1 C 24,1 km/h (4 Bft) 98,11 %
29.11.2018 13:26 -0,9 C 3,9 C 0,0 C 84 % 1024,1 hPa 0,0 l/m 13,3 km/h (3 Bft) O 95 2 min 0,000 mm 0,1 UV-I 247 W/m -3,3 C -7,0 C 17,7 km/h (3 Bft) 97,37 %
29.11.2018 13:28 -0,9 C 3,9 C -0,6 C 84 % 1024,1 hPa 0,0 l/m 19,2 km/h (3 Bft) O-SO 103 2 min 0,000 mm 0,0 UV-I 232 W/m -3,3 C -10,4 C 29,0 km/h (5 Bft) 97,87 %
29.11.2018 13:30 -1,0 C 3,9 C -0,6 C 84 % 1024,0 hPa 0,0 l/m 17,8 km/h (3 Bft) O 88 2 min 0,000 mm 0,0 UV-I 244 W/m -3,4 C -9,8 C 25,7 km/h (4 Bft) 98,00 %
29.11.2018 13:32 -1,0 C 3,9 C -0,6 C 84 % 1024,0 hPa 0,0 l/m 19,5 km/h (3 Bft) NO 55 2 min 0,000 mm 0,0 UV-I 242 W/m -3,4 C -10,7 C 25,7 km/h (4 Bft) 100,00 %
29.11.2018 13:34 -1,0 C 3,9 C -0,6 C 85 % 1024,0 hPa 0,0 l/m 16,6 km/h (3 Bft) O-NO 65 2 min 0,000 mm 0,0 UV-I 232 W/m -3,2 C -9,1 C 25,7 km/h (4 Bft) 98,04 %
29.11.2018 13:36 -1,0 C 3,9 C -0,6 C 85 % 1024,0 hPa 0,0 l/m 22,8 km/h (4 Bft) O 94 2 min 0,000 mm 0,0 UV-I 236 W/m -3,2 C -12,2 C 30,6 km/h (5 Bft) 95,83 %
29.11.2018 13:38 -1,0 C 3,9 C -0,6 C 85 % 1024,0 hPa 0,0 l/m 21,1 km/h (4 Bft) O 86 2 min 0,000 mm 0,0 UV-I 228 W/m -3,2 C -11,4 C 32,2 km/h (5 Bft) 98,08 %
29.11.2018 13:40 -1,0 C 3,9 C -0,6 C 85 % 1024,0 hPa 0,0 l/m 12,9 km/h (3 Bft) O 96 2 min 0,000 mm 0,0 UV-I 228 W/m -3,2 C -6,8 C 19,3 km/h (3 Bft) 100,00 %
29.11.2018 13:42 -0,9 C 3,9 C -0,6 C 85 % 1024,0 hPa 0,0 l/m 16,5 km/h (3 Bft) O-SO 106 2 min 0,000 mm 0,0 UV-I 213 W/m -3,1 C -9,0 C 22,5 km/h (4 Bft) 97,73 %
29.11.2018 13:44 -0,9 C 3,9 C -0,6 C 85 % 1024,0 hPa 0,0 l/m 19,4 km/h (3 Bft) O-NO 77 2 min 0,000 mm 0,0 UV-I 230 W/m -3,1 C -10,5 C 25,7 km/h (4 Bft) 98,11 %
29.11.2018 13:46 -0,9 C 3,9 C -0,6 C 85 % 1024,0 hPa 0,0 l/m 18,7 km/h (3 Bft) SO 128 2 min 0,000 mm 0,0 UV-I 216 W/m -3,1 C -10,2 C 30,6 km/h (5 Bft) 94,00 %
29.11.2018 13:48 -0,8 C 3,9 C -0,6 C 85 % 1024,0 hPa 0,0 l/m 21,9 km/h (4 Bft) O-SO 114 2 min 0,000 mm 0,0 UV-I 216 W/m -3,0 C -11,5 C 27,4 km/h (4 Bft) 97,87 %
29.11.2018 13:50 -0,8 C 3,9 C -0,6 C 85 % 1024,0 hPa 0,0 l/m 15,8 km/h (3 Bft) O-NO 73 2 min 0,000 mm 0,0 UV-I 211 W/m -3,0 C -8,4 C 24,1 km/h (4 Bft) 97,56 %
29.11.2018 13:52 -0,8 C 3,9 C -0,6 C 85 % 1024,0 hPa 0,0 l/m 16,6 km/h (3 Bft) O-NO 59 2 min 0,000 mm 0,0 UV-I 217 W/m -3,0 C -8,9 C 25,7 km/h (4 Bft) 95,74 %
29.11.2018 13:54 -0,9 C 3,9 C -0,6 C 85 % 1024,0 hPa 0,0 l/m 19,5 km/h (3 Bft) O 84 2 min 0,000 mm 0,0 UV-I 219 W/m -3,1 C -10,6 C 29,0 km/h (5 Bft) 94,00 %
29.11.2018 13:56 -0,9 C 3,9 C -0,6 C 85 % 1024,0 hPa 0,0 l/m 21,8 km/h (4 Bft) O-NO 69 2 min 0,000 mm 0,0 UV-I 214 W/m -3,1 C -11,6 C 27,4 km/h (4 Bft) 93,62 %
29.11.2018 13:58 -0,9 C 3,9 C -1,1 C 85 % 1024,0 hPa 0,0 l/m 19,0 km/h (3 Bft) O 86 2 min 0,000 mm 0,0 UV-I 205 W/m -3,1 C -10,3 C 27,4 km/h (4 Bft) 96,00 %
29.11.2018 14:00 -0,9 C 3,9 C -1,1 C 85 % 1024,0 hPa 0,0 l/m 18,6 km/h (3 Bft) O 98 2 min 0,000 mm 0,0 UV-I 201 W/m -3,1 C -10,1 C 24,1 km/h (4 Bft) 94,74 %
29.11.2018 14:02 -0,9 C 3,9 C -1,1 C 85 % 1023,9 hPa 0,0 l/m 18,0 km/h (3 Bft) O-SO 112 2 min 0,102 mm 0,0 UV-I 203 W/m -3,1 C -9,8 C 25,7 km/h (4 Bft) 94,00 %
29.11.2018 14:04 -0,9 C 3,9 C -1,1 C 85 % 1023,9 hPa 0,0 l/m 16,3 km/h (3 Bft) O 82 2 min 0,000 mm 0,0 UV-I 169 W/m -3,1 C -8,8 C 22,5 km/h (4 Bft) 91,49 %
29.11.2018 14:06 -0,8 C 3,3 C -1,1 C 85 % 1023,9 hPa 0,0 l/m 19,4 km/h (3 Bft) O 96 2 min 0,000 mm 0,0 UV-I 192 W/m -3,0 C -10,4 C 25,7 km/h (4 Bft) 95,12 %
29.11.2018 14:08 -0,9 C 3,9 C -1,1 C 85 % 1023,8 hPa 0,0 l/m 19,0 km/h (3 Bft) O 80 2 min 0,000 mm 0,0 UV-I 186 W/m -3,1 C -10,3 C 25,7 km/h (4 Bft) 92,45 %
29.11.2018 14:10 -0,8 C 3,9 C -1,1 C 85 % 1023,9 hPa 0,0 l/m 23,4 km/h (4 Bft) O 96 2 min 0,000 mm 0,0 UV-I 172 W/m -3,0 C -12,2 C 32,2 km/h (5 Bft) 92,68 %
29.11.2018 14:12 -0,8 C 3,9 C -0,6 C 85 % 1023,9 hPa 0,0 l/m 19,4 km/h (3 Bft) O-NO 64 2 min 0,000 mm 0,0 UV-I 175 W/m -3,0 C -10,4 C 30,6 km/h (5 Bft) 92,45 %
29.11.2018 14:14 -0,8 C 3,9 C -0,6 C 85 % 1023,9 hPa 0,0 l/m 18,6 km/h (3 Bft) O 97 2 min 0,000 mm 0,0 UV-I 182 W/m -3,0 C -10,0 C 25,7 km/h (4 Bft) 92,45 %
29.11.2018 14:16 -0,8 C 3,9 C -0,6 C 85 % 1023,9 hPa 0,0 l/m 18,0 km/h (3 Bft) O-NO 72 2 min 0,000 mm 0,0 UV-I 180 W/m -3,0 C -9,7 C 22,5 km/h (4 Bft) 92,31 %
29.11.2018 14:18 -0,8 C 3,9 C -0,6 C 85 % 1024,0 hPa 0,0 l/m 20,1 km/h (4 Bft) O-NO 71 2 min 0,000 mm 0,0 UV-I 174 W/m -3,0 C -10,7 C 29,0 km/h (5 Bft) 93,62 %
29.11.2018 14:20 -0,8 C 3,9 C -1,1 C 85 % 1023,9 hPa 0,0 l/m 19,1 km/h (3 Bft) O 96 2 min 0,000 mm 0,0 UV-I 171 W/m -3,0 C -10,2 C 27,4 km/h (4 Bft) 88,00 %
29.11.2018 14:22 -0,8 C 3,9 C -1,1 C 85 % 1023,9 hPa 0,0 l/m 18,9 km/h (3 Bft) O-NO 71 2 min 0,000 mm 0,0 UV-I 174 W/m -3,0 C -10,1 C 24,1 km/h (4 Bft) 95,74 %
29.11.2018 14:24 -0,8 C 3,9 C -1,1 C 85 % 1023,9 hPa 0,0 l/m 21,5 km/h (4 Bft) O 98 2 min 0,000 mm 0,0 UV-I 167 W/m -3,0 C -11,4 C 27,4 km/h (4 Bft) 97,73 %
29.11.2018 14:26 -0,8 C 3,9 C -1,1 C 85 % 1023,8 hPa 0,0 l/m 21,3 km/h (4 Bft) O-NO 75 2 min 0,000 mm 0,0 UV-I 164 W/m -3,0 C -11,3 C 29,0 km/h (5 Bft) 96,43 %
29.11.2018 14:28 -0,8 C 3,9 C -1,1 C 85 % 1023,7 hPa 0,0 l/m 18,5 km/h (3 Bft) SO 128 2 min 0,000 mm 0,0 UV-I 163 W/m -3,0 C -9,9 C 30,6 km/h (5 Bft) 97,56 %
29.11.2018 14:30 -0,8 C 3,9 C -1,1 C 85 % 1023,7 hPa 0,0 l/m 17,8 km/h (3 Bft) O-SO 107 2 min 0,000 mm 0,0 UV-I 154 W/m -3,0 C -9,6 C 27,4 km/h (4 Bft) 97,56 %
29.11.2018 14:32 -0,8 C 3,9 C -1,1 C 85 % 1023,7 hPa 0,0 l/m 20,0 km/h (4 Bft) O-NO 67 2 min 0,000 mm 0,0 UV-I 145 W/m -3,0 C -10,7 C 29,0 km/h (5 Bft) 94,00 %
29.11.2018 14:34 -0,8 C 3,9 C -1,1 C 85 % 1023,8 hPa 0,0 l/m 18,9 km/h (3 Bft) O-NO 73 2 min 0,000 mm 0,0 UV-I 145 W/m -3,0 C -10,1 C 27,4 km/h (4 Bft) 100,00 %
29.11.2018 14:36 -0,8 C 3,9 C -1,1 C 86 % 1023,8 hPa 0,0 l/m 13,6 km/h (3 Bft) NO 48 2 min 0,000 mm 0,0 UV-I 147 W/m -2,8 C -7,0 C 19,3 km/h (3 Bft) 94,74 %
29.11.2018 14:38 -0,9 C 3,9 C -1,1 C 86 % 1023,8 hPa 0,0 l/m 14,5 km/h (3 Bft) O 82 2 min 0,000 mm 0,0 UV-I 134 W/m -2,9 C -7,8 C 22,5 km/h (4 Bft) 97,87 %
29.11.2018 14:40 -0,9 C 3,9 C -1,7 C 86 % 1023,8 hPa 0,0 l/m 18,9 km/h (3 Bft) O-NO 65 2 min 0,000 mm 0,0 UV-I 118 W/m -2,9 C -10,3 C 24,1 km/h (4 Bft) 96,00 %
29.11.2018 14:42 -0,9 C 3,3 C -1,7 C 86 % 1023,8 hPa 0,0 l/m 14,8 km/h (3 Bft) O 81 2 min 0,000 mm 0,0 UV-I 111 W/m -2,9 C -7,9 C 20,9 km/h (4 Bft) 97,56 %
29.11.2018 14:44 -1,0 C 3,9 C -1,7 C 86 % 1023,9 hPa 0,0 l/m 17,0 km/h (3 Bft) O-NO 67 2 min 0,000 mm 0,0 UV-I 107 W/m -3,0 C -9,4 C 20,9 km/h (4 Bft) 98,21 %
29.11.2018 14:46 -1,0 C 3,9 C -1,7 C 87 % 1023,9 hPa 0,0 l/m 13,7 km/h (3 Bft) O 82 0 min 0,000 mm 0,0 UV-I 98 W/m -2,9 C -7,4 C 17,7 km/h (3 Bft) 96,00 %
29.11.2018 14:48 -1,0 C 3,9 C -1,7 C 87 % 1023,9 hPa 0,0 l/m 19,7 km/h (3 Bft) O 88 0 min 0,000 mm 0,0 UV-I 96 W/m -2,9 C -10,8 C 27,4 km/h (4 Bft) 94,74 %
29.11.2018 14:50 -1,0 C 3,9 C -1,7 C 87 % 1023,9 hPa 0,0 l/m 19,3 km/h (3 Bft) O-NO 76 2 min 0,000 mm 0,0 UV-I 99 W/m -2,9 C -10,6 C 25,7 km/h (4 Bft) 98,00 %
29.11.2018 14:52 -1,0 C 3,9 C -1,7 C 87 % 1023,9 hPa 0,0 l/m 19,9 km/h (4 Bft) O-NO 66 2 min 0,000 mm 0,0 UV-I 99 W/m -2,9 C -10,9 C 27,4 km/h (4 Bft) 98,11 %
29.11.2018 14:54 -1,1 C 3,9 C -1,7 C 86 % 1023,9 hPa 0,0 l/m 18,8 km/h (3 Bft) O 95 2 min 0,000 mm 0,0 UV-I 100 W/m -3,1 C -10,5 C 25,7 km/h (4 Bft) 94,87 %
29.11.2018 14:56 -1,1 C 3,9 C -1,7 C 86 % 1024,0 hPa 0,0 l/m 16,7 km/h (3 Bft) O-NO 78 2 min 0,000 mm 0,0 UV-I 90 W/m -3,1 C -9,3 C 22,5 km/h (4 Bft) 98,11 %
29.11.2018 14:58 -1,1 C 3,9 C -1,7 C 87 % 1024,0 hPa 0,0 l/m 19,9 km/h (4 Bft) O 79 2 min 0,000 mm 0,0 UV-I 88 W/m -3,0 C -11,0 C 27,4 km/h (4 Bft) 97,56 %
29.11.2018 15:00 -1,1 C 3,9 C -1,7 C 87 % 1024,0 hPa 0,0 l/m 20,3 km/h (4 Bft) O 86 2 min 0,050 mm 0,0 UV-I 91 W/m -3,0 C -11,2 C 27,4 km/h (4 Bft) 97,73 %
29.11.2018 15:02 -1,2 C 3,9 C -1,7 C 87 % 1023,9 hPa 0,0 l/m 22,9 km/h (4 Bft) O-NO 60 0 min 0,000 mm 0,0 UV-I 82 W/m -3,1 C -12,5 C 30,6 km/h (5 Bft) 95,74 %
29.11.2018 15:04 -1,2 C 3,9 C -1,7 C 87 % 1023,9 hPa 0,0 l/m 20,0 km/h (4 Bft) O-NO 70 0 min 0,000 mm 0,0 UV-I 66 W/m -3,1 C -11,2 C 24,1 km/h (4 Bft) 96,00 %
29.11.2018 15:06 -1,2 C 3,9 C -1,7 C 87 % 1023,9 hPa 0,0 l/m 17,6 km/h (3 Bft) NO 55 0 min 0,000 mm 0,0 UV-I 58 W/m -3,1 C -10,0 C 20,9 km/h (4 Bft) 98,00 %
29.11.2018 15:08 -1,2 C 3,9 C -1,7 C 87 % 1023,9 hPa 0,0 l/m 18,2 km/h (3 Bft) NO 50 0 min 0,000 mm 0,0 UV-I 54 W/m -3,1 C -10,3 C 24,1 km/h (4 Bft) 97,37 %
29.11.2018 15:10 -1,2 C 3,9 C -2,2 C 87 % 1023,9 hPa 0,0 l/m 18,5 km/h (3 Bft) O 83 0 min 0,000 mm 0,0 UV-I 44 W/m -3,1 C -10,4 C 22,5 km/h (4 Bft) 94,34 %
29.11.2018 15:12 -1,2 C 3,9 C -2,2 C 87 % 1023,8 hPa 0,0 l/m 18,1 km/h (3 Bft) O 85 0 min 0,000 mm 0,0 UV-I 39 W/m -3,1 C -10,2 C 25,7 km/h (4 Bft) 95,12 %
29.11.2018 15:14 -1,3 C 3,9 C -2,2 C 87 % 1023,8 hPa 0,0 l/m 20,0 km/h (4 Bft) O 98 0 min 0,000 mm 0,0 UV-I 37 W/m -3,2 C -11,3 C 25,7 km/h (4 Bft) 96,00 %
29.11.2018 15:16 -1,3 C 3,9 C -2,2 C 87 % 1023,8 hPa 0,0 l/m 21,3 km/h (4 Bft) O 86 0 min 0,000 mm 0,0 UV-I 39 W/m -3,2 C -11,9 C 29,0 km/h (5 Bft) 93,62 %
29.11.2018 15:18 -1,3 C 3,9 C -2,2 C 87 % 1023,7 hPa 0,0 l/m 18,7 km/h (3 Bft) NO 56 0 min 0,000 mm 0,0 UV-I 35 W/m -3,2 C -10,7 C 25,7 km/h (4 Bft) 91,49 %
29.11.2018 15:20 -1,3 C 3,9 C -2,2 C 87 % 1023,7 hPa 0,0 l/m 19,5 km/h (3 Bft) O-NO 74 0 min 0,000 mm 0,0 UV-I 33 W/m -3,2 C -11,1 C 25,7 km/h (4 Bft) 96,00 %
29.11.2018 15:22 -1,3 C 3,9 C -2,2 C 87 % 1023,7 hPa 0,0 l/m 18,7 km/h (3 Bft) O-NO 74 0 min 0,000 mm 0,0 UV-I 33 W/m -3,2 C -10,7 C 27,4 km/h (4 Bft) 93,62 %
29.11.2018 15:24 -1,3 C 3,9 C -2,2 C 87 % 1023,8 hPa 0,0 l/m 19,8 km/h (3 Bft) O 92 0 min 0,000 mm 0,0 UV-I 35 W/m -3,2 C -11,2 C 27,4 km/h (4 Bft) 94,00 %
29.11.2018 15:26 -1,3 C 3,9 C -2,2 C 87 % 1023,7 hPa 0,0 l/m 19,2 km/h (3 Bft) O-NO 69 0 min 0,000 mm 0,0 UV-I 35 W/m -3,2 C -10,9 C 25,7 km/h (4 Bft) 95,12 %
29.11.2018 15:28 -1,3 C 3,9 C -2,2 C 87 % 1023,7 hPa 0,0 l/m 18,8 km/h (3 Bft) O-NO 71 0 min 0,000 mm 0,0 UV-I 35 W/m -3,2 C -10,7 C 25,7 km/h (4 Bft) 94,34 %
29.11.2018 15:30 -1,3 C 3,9 C -2,2 C 87 % 1023,7 hPa 0,0 l/m 18,1 km/h (3 Bft) O 85 0 min 0,000 mm 0,0 UV-I 33 W/m -3,2 C -10,3 C 27,4 km/h (4 Bft) 93,62 %
29.11.2018 15:32 -1,3 C 3,9 C -2,2 C 87 % 1023,7 hPa 0,0 l/m 23,1 km/h (4 Bft) O 96 0 min 0,000 mm 0,0 UV-I 33 W/m -3,2 C -12,7 C 33,8 km/h (5 Bft) 97,44 %
29.11.2018 15:34 -1,3 C 3,3 C -2,2 C 87 % 1023,7 hPa 0,0 l/m 20,7 km/h (4 Bft) O-NO 72 0 min 0,000 mm 0,0 UV-I 32 W/m -3,2 C -11,6 C 27,4 km/h (4 Bft) 93,62 %
29.11.2018 15:36 -1,3 C 3,3 C -2,2 C 87 % 1023,6 hPa 0,0 l/m 20,4 km/h (4 Bft) O-NO 72 0 min 0,000 mm 0,0 UV-I 30 W/m -3,2 C -11,5 C 27,4 km/h (4 Bft) 97,87 %
29.11.2018 15:38 -1,3 C 3,3 C -2,2 C 87 % 1023,6 hPa 0,0 l/m 20,2 km/h (4 Bft) O 84 0 min 0,000 mm 0,0 UV-I 28 W/m -3,2 C -11,4 C 30,6 km/h (5 Bft) 96,23 %
29.11.2018 15:40 -1,3 C 3,9 C -2,2 C 87 % 1023,5 hPa 0,0 l/m 19,3 km/h (3 Bft) O 101 0 min 0,000 mm 0,0 UV-I 27 W/m -3,2 C -11,0 C 25,7 km/h (4 Bft) 95,12 %
29.11.2018 15:42 -1,4 C 3,9 C -2,2 C 87 % 1023,5 hPa 0,0 l/m 16,4 km/h (3 Bft) O-NO 72 0 min 0,000 mm 0,0 UV-I 26 W/m -3,3 C -9,5 C 20,9 km/h (4 Bft) 97,56 %
29.11.2018 15:44 -1,4 C 3,9 C -2,2 C 87 % 1023,5 hPa 0,0 l/m 19,1 km/h (3 Bft) O 80 0 min 0,000 mm 0,0 UV-I 25 W/m -3,3 C -11,0 C 25,7 km/h (4 Bft) 98,15 %
29.11.2018 15:46 -1,4 C 3,9 C -2,2 C 87 % 1023,4 hPa 0,0 l/m 19,1 km/h (3 Bft) O-NO 78 0 min 0,000 mm 0,0 UV-I 23 W/m -3,3 C -11,0 C 29,0 km/h (5 Bft) 98,00 %
29.11.2018 15:48 -1,4 C 3,9 C -2,2 C 87 % 1023,3 hPa 0,0 l/m 24,3 km/h (4 Bft) O-SO 107 0 min 0,000 mm 0,0 UV-I 22 W/m -3,3 C -13,3 C 33,8 km/h (5 Bft) 97,87 %
29.11.2018 15:50 -1,4 C 3,9 C -2,2 C 87 % 1023,3 hPa 0,0 l/m 25,7 km/h (4 Bft) O 88 0 min 0,000 mm 0,0 UV-I 21 W/m -3,3 C -13,9 C 38,6 km/h (5 Bft) 100,00 %
29.11.2018 15:52 -1,4 C 3,9 C -2,2 C 87 % 1023,3 hPa 0,0 l/m 24,7 km/h (4 Bft) O-SO 105 0 min 0,000 mm 0,0 UV-I 19 W/m -3,3 C -13,5 C 35,4 km/h (5 Bft) 97,87 %
29.11.2018 15:54 -1,4 C 3,9 C -2,2 C 87 % 1023,2 hPa 0,0 l/m 25,3 km/h (4 Bft) O 93 0 min 0,000 mm 0,0 UV-I 18 W/m -3,3 C -13,7 C 35,4 km/h (5 Bft) 97,56 %
29.11.2018 15:56 -1,4 C 3,9 C -2,2 C 87 % 1023,2 hPa 0,0 l/m 23,2 km/h (4 Bft) O-NO 74 2 min 0,000 mm 0,0 UV-I 17 W/m -3,3 C -12,9 C 37,0 km/h (5 Bft) 96,23 %
29.11.2018 15:58 -1,4 C 3,9 C -2,2 C 87 % 1023,1 hPa 0,0 l/m 26,2 km/h (4 Bft) O-NO 69 2 min 0,000 mm 0,0 UV-I 14 W/m -3,3 C -14,1 C 35,4 km/h (5 Bft) 97,56 %
29.11.2018 16:00 -1,4 C 3,9 C -2,2 C 87 % 1023,1 hPa 0,0 l/m 21,5 km/h (4 Bft) O 88 2 min 0,026 mm 0,0 UV-I 13 W/m -3,3 C -12,1 C 32,2 km/h (5 Bft) 93,62 %
29.11.2018 16:02 -1,4 C 3,9 C -2,2 C 87 % 1023,1 hPa 0,0 l/m 23,9 km/h (4 Bft) NO 51 0 min 0,000 mm 0,0 UV-I 12 W/m -3,3 C -13,2 C 29,0 km/h (5 Bft) 98,00 %
29.11.2018 16:04 -1,4 C 3,9 C -2,2 C 86 % 1023,2 hPa 0,0 l/m 24,5 km/h (4 Bft) O-NO 74 0 min 0,000 mm 0,0 UV-I 11 W/m -3,4 C -13,4 C 32,2 km/h (5 Bft) 97,44 %
29.11.2018 16:06 -1,4 C 3,3 C -2,2 C 86 % 1023,1 hPa 0,0 l/m 23,9 km/h (4 Bft) O-SO 108 0 min 0,000 mm 0,0 UV-I 10 W/m -3,4 C -13,2 C 35,4 km/h (5 Bft) 98,00 %
29.11.2018 16:09 -1,4 C 3,9 C -2,2 C 86 % 1023,1 hPa 0,0 l/m 21,6 km/h (4 Bft) O-SO 102 0 min 0,000 mm 0,0 UV-I 8 W/m -3,4 C -12,2 C 32,2 km/h (5 Bft) 98,73 %
29.11.2018 16:10 -1,4 C 3,9 C -2,2 C 86 % 1023,1 hPa 0,0 l/m 23,8 km/h (4 Bft) O 93 0 min 0,000 mm 0,0 UV-I 7 W/m -3,4 C -13,1 C 30,6 km/h (5 Bft) 100,00 %
29.11.2018 16:12 -1,4 C 3,3 C -2,2 C 86 % 1023,1 hPa 0,0 l/m 24,4 km/h (4 Bft) O-SO 107 0 min 0,000 mm 0,0 UV-I 7 W/m -3,4 C -13,4 C 32,2 km/h (5 Bft) 98,11 %
29.11.2018 16:14 -1,4 C 3,3 C -2,2 C 86 % 1023,2 hPa 0,0 l/m 23,4 km/h (4 Bft) O 91 0 min 0,000 mm 0,0 UV-I 6 W/m -3,4 C -13,0 C 32,2 km/h (5 Bft) 95,74 %
29.11.2018 16:16 -1,4 C 3,9 C -2,2 C 86 % 1023,2 hPa 0,0 l/m 21,7 km/h (4 Bft) O 95 0 min 0,000 mm 0,0 UV-I 5 W/m -3,4 C -12,2 C 29,0 km/h (5 Bft) 95,74 %
29.11.2018 16:19 -1,4 C 3,9 C -2,2 C 86 % 1023,1 hPa 0,0 l/m 20,1 km/h (4 Bft) O 98 0 min 0,000 mm 0,0 UV-I 5 W/m -3,4 C -11,5 C 30,6 km/h (5 Bft) 98,68 %
29.11.2018 16:20 -1,4 C 3,3 C -2,2 C 86 % 1023,1 hPa 0,0 l/m 24,5 km/h (4 Bft) O 93 0 min 0,000 mm 0,0 UV-I 5 W/m -3,4 C -13,4 C 33,8 km/h (5 Bft) 95,83 %
29.11.2018 16:22 -1,4 C 3,3 C -2,2 C 85 % 1023,1 hPa 0,0 l/m 23,5 km/h (4 Bft) O-SO 107 0 min 0,000 mm 0,0 UV-I 5 W/m -3,6 C -13,0 C 35,4 km/h (5 Bft) 97,73 %
29.11.2018 16:24 -1,4 C 3,3 C -2,2 C 86 % 1023,2 hPa 0,0 l/m 22,6 km/h (4 Bft) O 100 0 min 0,000 mm 0,0 UV-I 2 W/m -3,4 C -12,6 C 32,2 km/h (5 Bft) 97,87 %
29.11.2018 16:26 -1,4 C 3,3 C -2,2 C 85 % 1023,1 hPa 0,0 l/m 25,3 km/h (4 Bft) O 86 0 min 0,000 mm 0,0 UV-I 0 W/m -3,6 C -13,7 C 40,2 km/h (6 Bft) 100,00 %
29.11.2018 16:28 -1,4 C 3,3 C -2,2 C 85 % 1023,2 hPa 0,0 l/m 24,5 km/h (4 Bft) O-NO 78 0 min 0,000 mm 0,0 UV-I 0 W/m -3,6 C -13,4 C 35,4 km/h (5 Bft) 97,37 %
29.11.2018 16:30 -1,4 C 3,3 C -2,2 C 85 % 1023,2 hPa 0,0 l/m 24,5 km/h (4 Bft) O 86 0 min 0,000 mm 0,0 UV-I 0 W/m -3,6 C -13,4 C 33,8 km/h (5 Bft) 98,00 %
29.11.2018 16:32 -1,4 C 3,3 C -2,2 C 85 % 1023,2 hPa 0,0 l/m 22,9 km/h (4 Bft) O-NO 59 0 min 0,000 mm 0,0 UV-I 0 W/m -3,6 C -12,8 C 32,2 km/h (5 Bft) 98,00 %
29.11.2018 16:34 -1,4 C 3,3 C -2,2 C 85 % 1023,2 hPa 0,0 l/m 24,8 km/h (4 Bft) O 94 0 min 0,000 mm 0,0 UV-I 0 W/m -3,6 C -13,5 C 35,4 km/h (5 Bft) 92,68 %
29.11.2018 16:36 -1,4 C 3,3 C -2,2 C 85 % 1023,2 hPa 0,0 l/m 24,0 km/h (4 Bft) O-SO 113 0 min 0,000 mm 0,0 UV-I 0 W/m -3,6 C -13,2 C 32,2 km/h (5 Bft) 98,00 %
29.11.2018 16:38 -1,4 C 3,3 C -2,2 C 84 % 1023,2 hPa 0,0 l/m 21,9 km/h (4 Bft) O-NO 71 0 min 0,000 mm 0,0 UV-I 0 W/m -3,7 C -12,3 C 29,0 km/h (5 Bft) 95,12 %
29.11.2018 16:40 -1,4 C 3,3 C -2,2 C 84 % 1023,2 hPa 0,0 l/m 21,7 km/h (4 Bft) O 82 0 min 0,000 mm 0,0 UV-I 0 W/m -3,7 C -12,2 C 32,2 km/h (5 Bft) 98,11 %
29.11.2018 16:42 -1,4 C 3,3 C -2,2 C 84 % 1023,1 hPa 0,0 l/m 28,3 km/h (4 Bft) O-NO 78 0 min 0,000 mm 0,0 UV-I 0 W/m -3,7 C -14,8 C 40,2 km/h (6 Bft) 96,23 %
29.11.2018 16:44 -1,4 C 3,3 C -2,2 C 84 % 1023,1 hPa 0,0 l/m 24,1 km/h (4 Bft) O 84 0 min 0,000 mm 0,0 UV-I 0 W/m -3,7 C -13,3 C 37,0 km/h (5 Bft) 100,00 %
29.11.2018 16:46 -1,4 C 3,3 C -2,2 C 84 % 1023,0 hPa 0,0 l/m 23,8 km/h (4 Bft) O 80 0 min 0,000 mm 0,0 UV-I 0 W/m -3,7 C -13,1 C 30,6 km/h (5 Bft) 98,00 %
29.11.2018 16:48 -1,5 C 3,3 C -2,2 C 84 % 1023,1 hPa 0,0 l/m 21,8 km/h (4 Bft) O-SO 103 0 min 0,000 mm 0,0 UV-I 0 W/m -3,8 C -12,4 C 30,6 km/h (5 Bft) 93,62 %
29.11.2018 16:50 -1,5 C 3,3 C -2,8 C 84 % 1023,1 hPa 0,0 l/m 18,7 km/h (3 Bft) O-SO 102 0 min 0,000 mm 0,0 UV-I 0 W/m -3,8 C -10,9 C 32,2 km/h (5 Bft) 98,08 %
29.11.2018 16:52 -1,5 C 3,3 C -2,8 C 84 % 1023,1 hPa 0,0 l/m 23,4 km/h (4 Bft) O-NO 69 0 min 0,000 mm 0,0 UV-I 0 W/m -3,8 C -13,1 C 30,6 km/h (5 Bft) 100,00 %
29.11.2018 16:54 -1,5 C 3,3 C -2,8 C 84 % 1023,2 hPa 0,0 l/m 19,2 km/h (3 Bft) O 101 0 min 0,000 mm 0,0 UV-I 0 W/m -3,8 C -11,2 C 27,4 km/h (4 Bft) 100,00 %
29.11.2018 16:56 -1,5 C 3,3 C -2,8 C 84 % 1023,1 hPa 0,0 l/m 22,9 km/h (4 Bft) O-SO 111 0 min 0,000 mm 0,0 UV-I 0 W/m -3,8 C -12,9 C 37,0 km/h (5 Bft) 100,00 %
29.11.2018 16:58 -1,5 C 3,3 C -2,8 C 84 % 1023,1 hPa 0,0 l/m 24,4 km/h (4 Bft) O 95 0 min 0,000 mm 0,0 UV-I 0 W/m -3,8 C -13,5 C 38,6 km/h (5 Bft) 100,00 %
29.11.2018 17:00 -1,5 C 3,3 C -2,8 C 84 % 1023,1 hPa 0,0 l/m 20,6 km/h (4 Bft) O-NO 74 0 min 0,000 mm 0,0 UV-I 0 W/m -3,8 C -11,9 C 30,6 km/h (5 Bft) 100,00 %
29.11.2018 17:02 -1,6 C 3,3 C -2,8 C 84 % 1023,0 hPa 0,0 l/m 21,3 km/h (4 Bft) O 89 0 min 0,025 mm 0,0 UV-I 0 W/m -3,9 C -12,3 C 29,0 km/h (5 Bft) 100,00 %
29.11.2018 17:04 -1,6 C 3,3 C -2,8 C 84 % 1023,1 hPa 0,0 l/m 22,8 km/h (4 Bft) O 92 0 min 0,000 mm 0,0 UV-I 0 W/m -3,9 C -13,0 C 33,8 km/h (5 Bft) 100,00 %
29.11.2018 17:06 -1,6 C 3,3 C -2,8 C 84 % 1023,0 hPa 0,0 l/m 24,4 km/h (4 Bft) O-NO 74 0 min 0,000 mm 0,0 UV-I 0 W/m -3,9 C -13,6 C 37,0 km/h (5 Bft) 98,00 %
29.11.2018 17:08 -1,6 C 3,3 C -2,8 C 84 % 1023,0 hPa 0,0 l/m 23,8 km/h (4 Bft) O 85 0 min 0,000 mm 0,0 UV-I 0 W/m -3,9 C -13,4 C 32,2 km/h (5 Bft) 100,00 %
29.11.2018 17:10 -1,6 C 3,3 C -2,8 C 84 % 1023,0 hPa 0,0 l/m 22,4 km/h (4 Bft) O-NO 57 0 min 0,000 mm 0,0 UV-I 0 W/m -3,9 C -12,8 C 33,8 km/h (5 Bft) 100,00 %
29.11.2018 17:12 -1,6 C 3,3 C -2,8 C 84 % 1023,0 hPa 0,0 l/m 23,1 km/h (4 Bft) O-NO 77 0 min 0,000 mm 0,0 UV-I 0 W/m -3,9 C -13,1 C 30,6 km/h (5 Bft) 100,00 %
29.11.2018 17:14 -1,6 C 3,3 C -2,8 C 84 % 1022,9 hPa 0,0 l/m 24,1 km/h (4 Bft) O 89 0 min 0,000 mm 0,0 UV-I 0 W/m -3,9 C -13,5 C 37,0 km/h (5 Bft) 100,00 %
29.11.2018 17:16 -1,6 C 3,3 C -2,8 C 84 % 1022,9 hPa 0,0 l/m 20,8 km/h (4 Bft) O 82 0 min 0,000 mm 0,0 UV-I 0 W/m -3,9 C -12,1 C 29,0 km/h (5 Bft) 100,00 %
29.11.2018 17:18 -1,6 C 3,3 C -2,8 C 84 % 1022,9 hPa 0,0 l/m 21,0 km/h (4 Bft) O 88 0 min 0,000 mm 0,0 UV-I 0 W/m -3,9 C -12,2 C 30,6 km/h (5 Bft) 100,00 %
29.11.2018 17:20 -1,7 C 3,3 C -2,8 C 84 % 1022,8 hPa 0,0 l/m 17,0 km/h (3 Bft) O 94 0 min 0,000 mm 0,0 UV-I 0 W/m -4,0 C -10,2 C 29,0 km/h (5 Bft) 100,00 %
29.11.2018 17:22 -1,7 C 3,9 C -2,8 C 84 % 1022,8 hPa 0,0 l/m 20,4 km/h (4 Bft) O-NO 78 0 min 0,000 mm 0,0 UV-I 0 W/m -4,0 C -12,0 C 30,6 km/h (5 Bft) 97,73 %
29.11.2018 17:24 -1,7 C 3,3 C -2,8 C 84 % 1022,8 hPa 0,0 l/m 21,1 km/h (4 Bft) O 101 0 min 0,000 mm 0,0 UV-I 0 W/m -4,0 C -12,4 C 33,8 km/h (5 Bft) 100,00 %
29.11.2018 17:26 -1,7 C 3,3 C -2,8 C 84 % 1022,9 hPa 0,0 l/m 17,7 km/h (3 Bft) O 94 0 min 0,000 mm 0,0 UV-I 0 W/m -4,0 C -10,6 C 30,6 km/h (5 Bft) 100,00 %
29.11.2018 17:28 -1,7 C 3,3 C -2,8 C 85 % 1022,9 hPa 0,0 l/m 20,2 km/h (4 Bft) O-NO 76 0 min 0,000 mm 0,0 UV-I 0 W/m -3,9 C -11,9 C 27,4 km/h (4 Bft) 100,00 %
29.11.2018 17:30 -1,7 C 3,3 C -2,8 C 85 % 1022,9 hPa 0,0 l/m 17,2 km/h (3 Bft) O 83 0 min 0,000 mm 0,0 UV-I 0 W/m -3,9 C -10,4 C 29,0 km/h (5 Bft) 97,87 %
29.11.2018 17:32 -1,8 C 3,3 C -2,8 C 85 % 1022,9 hPa 0,0 l/m 20,6 km/h (4 Bft) O 98 0 min 0,000 mm 0,0 UV-I 0 W/m -4,0 C -12,2 C 29,0 km/h (5 Bft) 100,00 %
29.11.2018 17:34 -1,8 C 3,3 C -2,8 C 85 % 1022,8 hPa 0,0 l/m 22,7 km/h (4 Bft) O-NO 69 0 min 0,000 mm 0,0 UV-I 0 W/m -4,0 C -13,2 C 29,0 km/h (5 Bft) 100,00 %
29.11.2018 17:36 -1,8 C 3,3 C -2,8 C 85 % 1022,8 hPa 0,0 l/m 19,7 km/h (3 Bft) O 89 0 min 0,000 mm 0,0 UV-I 0 W/m -4,0 C -11,8 C 30,6 km/h (5 Bft) 98,00 %
29.11.2018 17:38 -1,8 C 3,3 C -2,8 C 85 % 1022,9 hPa 0,0 l/m 23,1 km/h (4 Bft) O 86 0 min 0,000 mm 0,0 UV-I 0 W/m -4,0 C -13,4 C 33,8 km/h (5 Bft) 100,00 %
29.11.2018 17:40 -1,8 C 3,3 C -2,8 C 85 % 1022,8 hPa 0,0 l/m 22,4 km/h (4 Bft) O 82 0 min 0,000 mm 0,0 UV-I 0 W/m -4,0 C -13,1 C 33,8 km/h (5 Bft) 92,45 %
29.11.2018 17:42 -1,7 C 3,3 C -2,8 C 85 % 1022,8 hPa 0,0 l/m 23,7 km/h (4 Bft) O-NO 64 0 min 0,000 mm 0,0 UV-I 0 W/m -3,9 C -13,5 C 33,8 km/h (5 Bft) 95,74 %
29.11.2018 17:44 -1,8 C 3,3 C -2,8 C 85 % 1022,8 hPa 0,0 l/m 23,8 km/h (4 Bft) O 99 0 min 0,000 mm 0,0 UV-I 0 W/m -4,0 C -13,7 C 32,2 km/h (5 Bft) 96,00 %
29.11.2018 17:46 -1,8 C 3,3 C -2,8 C 85 % 1022,8 hPa 0,0 l/m 23,0 km/h (4 Bft) O-NO 73 0 min 0,000 mm 0,0 UV-I 0 W/m -4,0 C -13,3 C 32,2 km/h (5 Bft) 97,87 %
29.11.2018 17:48 -1,8 C 3,3 C -2,8 C 84 % 1022,8 hPa 0,0 l/m 23,1 km/h (4 Bft) O-NO 68 0 min 0,000 mm 0,0 UV-I 0 W/m -4,1 C -13,4 C 32,2 km/h (5 Bft) 97,37 %
29.11.2018 17:50 -1,8 C 3,3 C -2,8 C 85 % 1022,8 hPa 0,0 l/m 19,9 km/h (4 Bft) O 86 0 min 0,000 mm 0,0 UV-I 0 W/m -4,0 C -11,9 C 24,1 km/h (4 Bft) 97,56 %
29.11.2018 17:52 -1,8 C 3,3 C -2,8 C 85 % 1022,8 hPa 0,0 l/m 18,8 km/h (3 Bft) O-NO 77 0 min 0,000 mm 0,0 UV-I 0 W/m -4,0 C -11,3 C 25,7 km/h (4 Bft) 95,08 %
29.11.2018 17:54 -1,8 C 3,3 C -2,8 C 85 % 1022,7 hPa 0,0 l/m 23,8 km/h (4 Bft) O-NO 73 0 min 0,000 mm 0,0 UV-I 0 W/m -4,0 C -13,7 C 33,8 km/h (5 Bft) 95,45 %
29.11.2018 17:56 -1,8 C 3,3 C -2,8 C 85 % 1022,8 hPa 0,0 l/m 22,1 km/h (4 Bft) O 90 0 min 0,000 mm 0,0 UV-I 0 W/m -4,0 C -12,9 C 27,4 km/h (4 Bft) 94,00 %
29.11.2018 17:58 -1,8 C 3,3 C -2,8 C 85 % 1022,7 hPa 0,0 l/m 20,6 km/h (4 Bft) O 92 0 min 0,000 mm 0,0 UV-I 0 W/m -4,0 C -12,2 C 30,6 km/h (5 Bft) 95,12 %
29.11.2018 18:00 -1,9 C 3,3 C -2,8 C 85 % 1022,7 hPa 0,0 l/m 20,9 km/h (4 Bft) O-NO 59 0 min 0,026 mm 0,0 UV-I 0 W/m -4,1 C -12,5 C 32,2 km/h (5 Bft) 96,00 %
29.11.2018 18:02 -1,9 C 3,3 C -2,8 C 85 % 1022,7 hPa 0,0 l/m 19,9 km/h (4 Bft) O 93 0 min 0,000 mm 0,0 UV-I 0 W/m -4,1 C -12,0 C 25,7 km/h (4 Bft) 97,87 %
29.11.2018 18:04 -1,9 C 3,3 C -2,8 C 85 % 1022,8 hPa 0,0 l/m 16,8 km/h (3 Bft) O-NO 78 0 min 0,000 mm 0,0 UV-I 0 W/m -4,1 C -10,4 C 24,1 km/h (4 Bft) 97,44 %
29.11.2018 18:06 -1,9 C 3,3 C -2,8 C 85 % 1022,7 hPa 0,0 l/m 22,9 km/h (4 Bft) O 82 0 min 0,000 mm 0,0 UV-I 0 W/m -4,1 C -13,4 C 35,4 km/h (5 Bft) 96,23 %
29.11.2018 18:08 -1,9 C 3,3 C -2,8 C 85 % 1022,7 hPa 0,0 l/m 20,2 km/h (4 Bft) O-NO 69 0 min 0,000 mm 0,0 UV-I 0 W/m -4,1 C -12,2 C 27,4 km/h (4 Bft) 97,56 %
29.11.2018 18:10 -1,9 C 3,3 C -2,8 C 85 % 1022,7 hPa 0,0 l/m 20,8 km/h (4 Bft) O-NO 70 0 min 0,000 mm 0,0 UV-I 0 W/m -4,1 C -12,5 C 29,0 km/h (5 Bft) 95,74 %
29.11.2018 18:12 -1,9 C 3,3 C -2,8 C 85 % 1022,7 hPa 0,0 l/m 21,4 km/h (4 Bft) O 96 0 min 0,000 mm 0,0 UV-I 0 W/m -4,1 C -12,8 C 30,6 km/h (5 Bft) 98,11 %
29.11.2018 18:14 -1,9 C 3,3 C -2,8 C 85 % 1022,7 hPa 0,0 l/m 17,4 km/h (3 Bft) O 85 0 min 0,000 mm 0,0 UV-I 0 W/m -4,1 C -10,7 C 25,7 km/h (4 Bft) 97,87 %
29.11.2018 18:16 -2,0 C 3,3 C -2,8 C 85 % 1022,8 hPa 0,0 l/m 22,1 km/h (4 Bft) O 97 0 min 0,000 mm 0,0 UV-I 0 W/m -4,2 C -13,2 C 33,8 km/h (5 Bft) 95,74 %
29.11.2018 18:19 -2,0 C 3,3 C -2,8 C 85 % 1022,7 hPa 0,0 l/m 18,2 km/h (3 Bft) O-NO 66 0 min 0,000 mm 0,0 UV-I 0 W/m -4,2 C -11,3 C 24,1 km/h (4 Bft) 98,46 %
29.11.2018 18:20 -2,0 C 3,3 C -2,8 C 85 % 1022,7 hPa 0,0 l/m 19,6 km/h (3 Bft) O-NO 72 0 min 0,000 mm 0,0 UV-I 0 W/m -4,2 C -12,0 C 30,6 km/h (5 Bft) 88,46 %
29.11.2018 18:22 -2,0 C 3,3 C -2,8 C 85 % 1022,7 hPa 0,0 l/m 22,0 km/h (4 Bft) O 94 0 min 0,000 mm 0,0 UV-I 0 W/m -4,2 C -13,2 C 30,6 km/h (5 Bft) 94,00 %
29.11.2018 18:24 -2,1 C 3,3 C -2,8 C 85 % 1022,6 hPa 0,0 l/m 19,8 km/h (3 Bft) O 85 0 min 0,000 mm 0,0 UV-I 0 W/m -4,3 C -12,2 C 25,7 km/h (4 Bft) 98,00 %
29.11.2018 18:26 -2,1 C 3,3 C -2,8 C 85 % 1022,5 hPa 0,0 l/m 25,3 km/h (4 Bft) O-SO 106 0 min 0,000 mm 0,0 UV-I 0 W/m -4,3 C -14,7 C 35,4 km/h (5 Bft) 97,56 %
29.11.2018 18:28 -2,1 C 3,9 C -2,8 C 85 % 1022,4 hPa 0,0 l/m 22,9 km/h (4 Bft) O 87 0 min 0,000 mm 0,0 UV-I 0 W/m -4,3 C -13,7 C 32,2 km/h (5 Bft) 98,00 %
29.11.2018 18:30 -2,1 C 3,3 C -2,8 C 85 % 1022,4 hPa 0,0 l/m 23,9 km/h (4 Bft) O 88 0 min 0,000 mm 0,0 UV-I 0 W/m -4,3 C -14,1 C 35,4 km/h (5 Bft) 100,00 %
29.11.2018 18:32 -2,1 C 3,3 C -2,8 C 85 % 1022,2 hPa 0,0 l/m 24,2 km/h (4 Bft) O 98 0 min 0,000 mm 0,0 UV-I 0 W/m -4,3 C -14,2 C 32,2 km/h (5 Bft) 100,00 %
29.11.2018 18:34 -2,1 C 3,3 C -2,8 C 85 % 1022,2 hPa 0,0 l/m 23,0 km/h (4 Bft) O-NO 76 0 min 0,000 mm 0,0 UV-I 0 W/m -4,3 C -13,7 C 32,2 km/h (5 Bft) 100,00 %
29.11.2018 18:36 -2,1 C 3,3 C -2,8 C 85 % 1022,2 hPa 0,0 l/m 23,7 km/h (4 Bft) O 86 0 min 0,000 mm 0,0 UV-I 0 W/m -4,3 C -14,0 C 32,2 km/h (5 Bft) 98,00 %
29.11.2018 18:38 -2,1 C 3,3 C -2,8 C 85 % 1022,2 hPa 0,0 l/m 18,7 km/h (3 Bft) O 81 0 min 0,000 mm 0,0 UV-I 0 W/m -4,3 C -11,7 C 24,1 km/h (4 Bft) 100,00 %
29.11.2018 18:40 -2,1 C 3,3 C -3,3 C 85 % 1022,2 hPa 0,0 l/m 17,4 km/h (3 Bft) O 84 0 min 0,000 mm 0,0 UV-I 0 W/m -4,3 C -11,0 C 25,7 km/h (4 Bft) 98,08 %
29.11.2018 18:42 -2,1 C 3,3 C -3,3 C 85 % 1022,1 hPa 0,0 l/m 24,7 km/h (4 Bft) O 91 0 min 0,000 mm 0,0 UV-I 0 W/m -4,3 C -14,4 C 33,8 km/h (5 Bft) 98,00 %
29.11.2018 18:44 -2,1 C 3,3 C -2,8 C 85 % 1022,1 hPa 0,0 l/m 24,0 km/h (4 Bft) O-NO 69 0 min 0,000 mm 0,0 UV-I 0 W/m -4,3 C -14,2 C 32,2 km/h (5 Bft) 100,00 %
29.11.2018 18:46 -2,1 C 3,3 C -3,3 C 85 % 1022,1 hPa 0,0 l/m 20,5 km/h (4 Bft) O-NO 65 0 min 0,000 mm 0,0 UV-I 0 W/m -4,3 C -12,6 C 29,0 km/h (5 Bft) 100,00 %
29.11.2018 18:48 -2,1 C 3,3 C -3,3 C 85 % 1022,1 hPa 0,0 l/m 27,1 km/h (4 Bft) O-NO 62 0 min 0,000 mm 0,0 UV-I 0 W/m -4,3 C -15,4 C 41,8 km/h (6 Bft) 96,00 %
29.11.2018 18:50 -2,1 C 3,3 C -2,8 C 85 % 1022,1 hPa 0,0 l/m 24,1 km/h (4 Bft) O 88 0 min 0,000 mm 0,0 UV-I 0 W/m -4,3 C -14,2 C 35,4 km/h (5 Bft) 100,00 %
29.11.2018 18:52 -2,1 C 3,3 C -2,8 C 85 % 1022,2 hPa 0,0 l/m 21,4 km/h (4 Bft) O-NO 78 0 min 0,000 mm 0,0 UV-I 0 W/m -4,3 C -13,0 C 29,0 km/h (5 Bft) 97,37 %
29.11.2018 18:54 -2,1 C 3,3 C -2,8 C 85 % 1022,1 hPa 0,0 l/m 24,5 km/h (4 Bft) O 88 0 min 0,000 mm 0,0 UV-I 0 W/m -4,3 C -14,4 C 37,0 km/h (5 Bft) 97,92 %
29.11.2018 18:56 -2,2 C 3,3 C -3,3 C 85 % 1022,2 hPa 0,0 l/m 23,9 km/h (4 Bft) O 86 0 min 0,000 mm 0,0 UV-I 0 W/m -4,4 C -14,3 C 38,6 km/h (5 Bft) 98,21 %
29.11.2018 18:58 -2,1 C 3,3 C -2,8 C 85 % 1022,2 hPa 0,0 l/m 23,5 km/h (4 Bft) O 80 0 min 0,000 mm 0,0 UV-I 0 W/m -4,3 C -13,9 C 32,2 km/h (5 Bft) 97,87 %
29.11.2018 19:00 -2,1 C 3,3 C -3,3 C 85 % 1022,2 hPa 0,0 l/m 25,2 km/h (4 Bft) O 87 0 min 0,000 mm 0,0 UV-I 0 W/m -4,3 C -14,6 C 35,4 km/h (5 Bft) 96,23 %
29.11.2018 19:02 -2,2 C 3,9 C -3,3 C 85 % 1022,2 hPa 0,0 l/m 24,4 km/h (4 Bft) O 86 0 min 0,025 mm 0,0 UV-I 0 W/m -4,4 C -14,5 C 32,2 km/h (5 Bft) 97,56 %
29.11.2018 19:04 -2,2 C 3,3 C -3,3 C 85 % 1022,2 hPa 0,0 l/m 27,2 km/h (4 Bft) O-NO 62 0 min 0,000 mm 0,0 UV-I 0 W/m -4,4 C -15,5 C 40,2 km/h (6 Bft) 96,23 %
29.11.2018 19:06 -2,2 C 3,3 C -3,3 C 85 % 1022,2 hPa 0,0 l/m 24,5 km/h (4 Bft) NO 56 0 min 0,000 mm 0,0 UV-I 0 W/m -4,4 C -14,5 C 40,2 km/h (6 Bft) 97,37 %
29.11.2018 19:08 -2,2 C 3,3 C -3,3 C 85 % 1022,2 hPa 0,0 l/m 25,9 km/h (4 Bft) O-SO 110 0 min 0,000 mm 0,0 UV-I 0 W/m -4,4 C -15,1 C 35,4 km/h (5 Bft) 92,45 %
29.11.2018 19:10 -2,2 C 3,3 C -3,3 C 85 % 1022,2 hPa 0,0 l/m 22,4 km/h (4 Bft) O 94 0 min 0,000 mm 0,0 UV-I 0 W/m -4,4 C -13,6 C 37,0 km/h (5 Bft) 96,00 %
29.11.2018 19:12 -2,2 C 3,3 C -3,3 C 85 % 1022,1 hPa 0,0 l/m 24,4 km/h (4 Bft) O-SO 109 0 min 0,000 mm 0,0 UV-I 0 W/m -4,4 C -14,5 C 30,6 km/h (5 Bft) 97,14 %
29.11.2018 19:14 -2,2 C 3,3 C -3,3 C 85 % 1022,1 hPa 0,0 l/m 24,6 km/h (4 Bft) O 92 0 min 0,000 mm 0,0 UV-I 0 W/m -4,4 C -14,5 C 37,0 km/h (5 Bft) 98,21 %
29.11.2018 19:16 -2,3 C 3,3 C -3,3 C 85 % 1022,1 hPa 0,0 l/m 22,9 km/h (4 Bft) O-SO 118 0 min 0,000 mm 0,0 UV-I 0 W/m -4,5 C -14,0 C 32,2 km/h (5 Bft) 93,18 %
29.11.2018 19:18 -2,3 C 3,3 C -3,3 C 85 % 1022,1 hPa 0,0 l/m 26,3 km/h (4 Bft) O 87 0 min 0,000 mm 0,0 UV-I 0 W/m -4,5 C -15,3 C 35,4 km/h (5 Bft) 97,73 %
29.11.2018 19:20 -2,3 C 3,3 C -3,3 C 86 % 1022,1 hPa 0,0 l/m 24,0 km/h (4 Bft) O-NO 76 0 min 0,000 mm 0,0 UV-I 0 W/m -4,3 C -14,4 C 30,6 km/h (5 Bft) 98,00 %
29.11.2018 19:22 -2,3 C 3,3 C -3,3 C 86 % 1022,2 hPa 0,0 l/m 19,9 km/h (4 Bft) O-NO 71 0 min 0,000 mm 0,0 UV-I 0 W/m -4,3 C -12,6 C 27,4 km/h (4 Bft) 95,56 %
29.11.2018 19:24 -2,3 C 3,3 C -3,3 C 86 % 1022,2 hPa 0,0 l/m 24,5 km/h (4 Bft) O 82 0 min 0,000 mm 0,0 UV-I 0 W/m -4,3 C -14,6 C 35,4 km/h (5 Bft) 97,37 %
29.11.2018 19:26 -2,3 C 3,3 C -3,3 C 86 % 1022,2 hPa 0,0 l/m 22,5 km/h (4 Bft) O-NO 77 0 min 0,000 mm 0,0 UV-I 0 W/m -4,3 C -13,8 C 32,2 km/h (5 Bft) 96,77 %
29.11.2018 19:28 -2,3 C 3,3 C -3,3 C 86 % 1022,2 hPa 0,0 l/m 21,5 km/h (4 Bft) O 89 0 min 0,000 mm 0,0 UV-I 0 W/m -4,3 C -13,3 C 27,4 km/h (4 Bft) 100,00 %
29.11.2018 19:30 -2,4 C 3,3 C -3,3 C 86 % 1022,1 hPa 0,0 l/m 21,8 km/h (4 Bft) O 89 0 min 0,000 mm 0,0 UV-I 0 W/m -4,4 C -13,6 C 30,6 km/h (5 Bft) 96,43 %
29.11.2018 19:32 -2,4 C 3,3 C -3,3 C 86 % 1022,1 hPa 0,0 l/m 25,3 km/h (4 Bft) O 92 0 min 0,000 mm 0,0 UV-I 0 W/m -4,4 C -15,1 C 37,0 km/h (5 Bft) 97,87 %
29.11.2018 19:34 -2,4 C 3,3 C -3,3 C 86 % 1022,0 hPa 0,0 l/m 22,1 km/h (4 Bft) O-SO 102 0 min 0,000 mm 0,0 UV-I 0 W/m -4,4 C -13,7 C 33,8 km/h (5 Bft) 97,56 %
29.11.2018 19:36 -2,4 C 3,3 C -3,3 C 86 % 1022,0 hPa 0,0 l/m 20,8 km/h (4 Bft) O-SO 106 0 min 0,000 mm 0,0 UV-I 0 W/m -4,4 C -13,1 C 30,6 km/h (5 Bft) 93,62 %
29.11.2018 19:38 -2,4 C 3,3 C -3,3 C 86 % 1022,0 hPa 0,0 l/m 19,9 km/h (4 Bft) O-NO 66 0 min 0,000 mm 0,0 UV-I 0 W/m -4,4 C -12,7 C 29,0 km/h (5 Bft) 96,00 %
29.11.2018 19:40 -2,4 C 3,3 C -3,3 C 86 % 1022,0 hPa 0,0 l/m 23,8 km/h (4 Bft) O-SO 105 0 min 0,000 mm 0,0 UV-I 0 W/m -4,4 C -14,5 C 37,0 km/h (5 Bft) 95,74 %
29.11.2018 19:42 -2,4 C 3,3 C -3,3 C 86 % 1022,0 hPa 0,0 l/m 19,6 km/h (3 Bft) O-NO 75 0 min 0,000 mm 0,0 UV-I 0 W/m -4,4 C -12,5 C 29,0 km/h (5 Bft) 95,12 %
29.11.2018 19:44 -2,4 C 3,3 C -3,3 C 86 % 1022,0 hPa 0,0 l/m 23,6 km/h (4 Bft) O 82 0 min 0,000 mm 0,0 UV-I 0 W/m -4,4 C -14,4 C 32,2 km/h (5 Bft) 97,73 %
29.11.2018 19:46 -2,5 C 3,3 C -3,3 C 86 % 1022,0 hPa 0,0 l/m 24,5 km/h (4 Bft) O-SO 106 0 min 0,000 mm 0,0 UV-I 0 W/m -4,5 C -14,9 C 32,2 km/h (5 Bft) 98,21 %
29.11.2018 19:48 -2,4 C 3,3 C -3,3 C 86 % 1022,0 hPa 0,0 l/m 22,5 km/h (4 Bft) O 95 0 min 0,000 mm 0,0 UV-I 0 W/m -4,4 C -13,9 C 32,2 km/h (5 Bft) 95,74 %
29.11.2018 19:50 -2,5 C 3,3 C -3,3 C 86 % 1022,0 hPa 0,0 l/m 21,1 km/h (4 Bft) NO 46 0 min 0,000 mm 0,0 UV-I 0 W/m -4,5 C -13,4 C 37,0 km/h (5 Bft) 100,00 %
29.11.2018 19:52 -2,5 C 3,3 C -3,3 C 86 % 1021,9 hPa 0,0 l/m 23,5 km/h (4 Bft) O 86 0 min 0,000 mm 0,0 UV-I 0 W/m -4,5 C -14,5 C 33,8 km/h (5 Bft) 96,00 %
29.11.2018 19:54 -2,5 C 3,3 C -3,3 C 86 % 1022,0 hPa 0,0 l/m 23,2 km/h (4 Bft) O 98 0 min 0,000 mm 0,0 UV-I 0 W/m -4,5 C -14,4 C 29,0 km/h (5 Bft) 97,87 %
29.11.2018 19:56 -2,6 C 3,3 C -3,3 C 86 % 1022,0 hPa 0,0 l/m 19,9 km/h (4 Bft) O 86 0 min 0,000 mm 0,0 UV-I 0 W/m -4,6 C -12,9 C 29,0 km/h (5 Bft) 97,62 %
29.11.2018 19:58 -2,6 C 3,3 C -3,3 C 86 % 1022,0 hPa 0,0 l/m 25,4 km/h (4 Bft) NO 54 0 min 0,000 mm 0,0 UV-I 0 W/m -4,6 C -15,4 C 33,8 km/h (5 Bft) 94,55 %
29.11.2018 20:00 -2,6 C 3,3 C -3,3 C 86 % 1022,0 hPa 0,0 l/m 21,5 km/h (4 Bft) O 96 0 min 0,000 mm 0,0 UV-I 0 W/m -4,6 C -13,7 C 29,0 km/h (5 Bft) 93,62 %
29.11.2018 20:02 -2,6 C 3,3 C -3,3 C 86 % 1021,9 hPa 0,0 l/m 23,5 km/h (4 Bft) O-NO 77 0 min 0,025 mm 0,0 UV-I 0 W/m -4,6 C -14,6 C 40,2 km/h (6 Bft) 93,75 %
29.11.2018 20:04 -2,6 C 3,3 C -3,3 C 86 % 1021,9 hPa 0,0 l/m 18,6 km/h (3 Bft) O 84 0 min 0,000 mm 0,0 UV-I 0 W/m -4,6 C -12,3 C 25,7 km/h (4 Bft) 91,49 %
29.11.2018 20:06 -2,6 C 3,3 C -3,3 C 86 % 1021,9 hPa 0,0 l/m 16,3 km/h (3 Bft) O 92 0 min 0,000 mm 0,0 UV-I 0 W/m -4,6 C -10,9 C 24,1 km/h (4 Bft) 93,62 %
29.11.2018 20:08 -2,6 C 3,3 C -3,9 C 86 % 1021,9 hPa 0,0 l/m 18,9 km/h (3 Bft) O 90 0 min 0,000 mm 0,0 UV-I 0 W/m -4,6 C -12,4 C 30,6 km/h (5 Bft) 93,62 %
29.11.2018 20:10 -2,7 C 3,3 C -3,9 C 86 % 1021,9 hPa 0,0 l/m 20,2 km/h (4 Bft) O 81 0 min 0,000 mm 0,0 UV-I 0 W/m -4,7 C -13,2 C 32,2 km/h (5 Bft) 92,11 %
29.11.2018 20:12 -2,7 C 3,3 C -3,9 C 86 % 1021,9 hPa 0,0 l/m 21,7 km/h (4 Bft) O 95 0 min 0,000 mm 0,0 UV-I 0 W/m -4,7 C -13,9 C 29,0 km/h (5 Bft) 94,00 %
29.11.2018 20:14 -2,7 C 3,3 C -3,9 C 86 % 1021,8 hPa 0,0 l/m 21,2 km/h (4 Bft) O 101 0 min 0,000 mm 0,0 UV-I 0 W/m -4,7 C -13,7 C 29,0 km/h (5 Bft) 92,45 %
29.11.2018 20:16 -2,7 C 3,3 C -3,9 C 86 % 1021,9 hPa 0,0 l/m 22,5 km/h (4 Bft) O 92 0 min 0,000 mm 0,0 UV-I 0 W/m -4,7 C -14,3 C 33,8 km/h (5 Bft) 91,49 %
29.11.2018 20:18 -2,7 C 3,3 C -3,3 C 86 % 1021,9 hPa 0,0 l/m 23,9 km/h (4 Bft) O-NO 68 0 min 0,000 mm 0,0 UV-I 0 W/m -4,7 C -14,9 C 33,8 km/h (5 Bft) 94,74 %
29.11.2018 20:20 -2,7 C 3,3 C -3,9 C 86 % 1021,9 hPa 0,0 l/m 20,4 km/h (4 Bft) O 86 0 min 0,000 mm 0,0 UV-I 0 W/m -4,7 C -13,3 C 29,0 km/h (5 Bft) 90,00 %
29.11.2018 20:22 -2,7 C 3,3 C -3,9 C 86 % 1021,9 hPa 0,0 l/m 23,1 km/h (4 Bft) O-NO 77 0 min 0,000 mm 0,0 UV-I 0 W/m -4,7 C -14,6 C 32,2 km/h (5 Bft) 93,62 %
29.11.2018 20:24 -2,7 C 3,3 C -3,9 C 86 % 1021,8 hPa 0,0 l/m 22,9 km/h (4 Bft) O 94 0 min 0,000 mm 0,0 UV-I 0 W/m -4,7 C -14,5 C 32,2 km/h (5 Bft) 92,00 %
29.11.2018 20:26 -2,7 C 3,3 C -3,9 C 86 % 1021,8 hPa 0,0 l/m 20,9 km/h (4 Bft) O 99 0 min 0,000 mm 0,0 UV-I 0 W/m -4,7 C -13,6 C 27,4 km/h (4 Bft) 97,14 %
29.11.2018 20:28 -2,7 C 3,3 C -3,9 C 86 % 1021,8 hPa 0,0 l/m 20,5 km/h (4 Bft) O-SO 102 0 min 0,000 mm 0,0 UV-I 0 W/m -4,7 C -13,4 C 29,0 km/h (5 Bft) 96,43 %
29.11.2018 20:30 -2,7 C 3,3 C -3,9 C 86 % 1021,8 hPa 0,0 l/m 21,6 km/h (4 Bft) O 99 0 min 0,000 mm 0,0 UV-I 0 W/m -4,7 C -13,9 C 33,8 km/h (5 Bft) 97,73 %
29.11.2018 20:32 -2,7 C 3,3 C -3,9 C 86 % 1021,8 hPa 0,0 l/m 19,4 km/h (3 Bft) O 90 0 min 0,000 mm 0,0 UV-I 0 W/m -4,7 C -12,8 C 29,0 km/h (5 Bft) 98,00 %
29.11.2018 20:35 -2,7 C 3,3 C -3,9 C 86 % 1021,8 hPa 0,0 l/m 19,2 km/h (3 Bft) O-SO 111 0 min 0,000 mm 0,0 UV-I 0 W/m -4,7 C -12,7 C 25,7 km/h (4 Bft) 100,00 %
29.11.2018 20:36 -2,8 C 3,3 C -3,9 C 86 % 1021,8 hPa 0,0 l/m 19,3 km/h (3 Bft) O-SO 111 0 min 0,000 mm 0,0 UV-I 0 W/m -4,8 C -12,9 C 24,1 km/h (4 Bft) 100,00 %
29.11.2018 20:38 -2,8 C 3,3 C -3,9 C 86 % 1021,7 hPa 0,0 l/m 16,2 km/h (3 Bft) O-NO 78 0 min 0,000 mm 0,0 UV-I 0 W/m -4,8 C -11,1 C 24,1 km/h (4 Bft) 100,00 %
29.11.2018 20:40 -2,8 C 3,3 C -3,9 C 87 % 1021,8 hPa 0,0 l/m 18,8 km/h (3 Bft) O 90 0 min 0,000 mm 0,0 UV-I 0 W/m -4,7 C -12,6 C 29,0 km/h (5 Bft) 100,00 %
29.11.2018 20:42 -2,8 C 3,3 C -3,9 C 87 % 1021,7 hPa 0,0 l/m 21,5 km/h (4 Bft) O-SO 104 0 min 0,000 mm 0,0 UV-I 0 W/m -4,7 C -14,0 C 27,4 km/h (4 Bft) 98,00 %
29.11.2018 20:44 -2,8 C 3,3 C -3,9 C 87 % 1021,7 hPa 0,0 l/m 18,3 km/h (3 Bft) O-SO 113 0 min 0,000 mm 0,0 UV-I 0 W/m -4,7 C -12,4 C 29,0 km/h (5 Bft) 95,74 %
29.11.2018 20:46 -2,8 C 3,3 C -3,9 C 87 % 1021,7 hPa 0,0 l/m 22,1 km/h (4 Bft) O 92 0 min 0,000 mm 0,0 UV-I 0 W/m -4,7 C -14,3 C 30,6 km/h (5 Bft) 100,00 %
29.11.2018 20:48 -2,8 C 3,3 C -3,9 C 87 % 1021,8 hPa 0,0 l/m 21,7 km/h (4 Bft) O 101 0 min 0,000 mm 0,0 UV-I 0 W/m -4,7 C -14,1 C 30,6 km/h (5 Bft) 100,00 %
29.11.2018 20:50 -2,8 C 3,3 C -3,9 C 87 % 1021,8 hPa 0,0 l/m 17,4 km/h (3 Bft) O 99 0 min 0,000 mm 0,0 UV-I 0 W/m -4,7 C -11,8 C 22,5 km/h (4 Bft) 100,00 %
29.11.2018 20:52 -2,8 C 3,3 C -3,9 C 87 % 1021,8 hPa 0,0 l/m 20,8 km/h (4 Bft) O 89 0 min 0,000 mm 0,0 UV-I 0 W/m -4,7 C -13,6 C 32,2 km/h (5 Bft) 100,00 %
29.11.2018 20:54 -2,8 C 3,3 C -3,9 C 87 % 1021,8 hPa 0,0 l/m 16,2 km/h (3 Bft) O-SO 110 0 min 0,000 mm 0,0 UV-I 0 W/m -4,7 C -11,1 C 27,4 km/h (4 Bft) 100,00 %
29.11.2018 20:56 -2,8 C 3,3 C -3,9 C 87 % 1021,8 hPa 0,0 l/m 18,0 km/h (3 Bft) O-NO 70 0 min 0,000 mm 0,0 UV-I 0 W/m -4,7 C -12,2 C 25,7 km/h (4 Bft) 100,00 %
29.11.2018 20:58 -2,8 C 3,3 C -3,9 C 87 % 1021,8 hPa 0,0 l/m 16,8 km/h (3 Bft) O 92 0 min 0,000 mm 0,0 UV-I 0 W/m -4,7 C -11,5 C 24,1 km/h (4 Bft) 100,00 %
29.11.2018 21:00 -2,9 C 3,3 C -3,9 C 87 % 1021,8 hPa 0,0 l/m 17,5 km/h (3 Bft) NO 49 0 min 0,000 mm 0,0 UV-I 0 W/m -4,8 C -12,0 C 30,6 km/h (5 Bft) 100,00 %
29.11.2018 21:02 -2,9 C 3,3 C -3,9 C 87 % 1021,7 hPa 0,0 l/m 19,5 km/h (3 Bft) O 84 0 min 0,026 mm 0,0 UV-I 0 W/m -4,8 C -13,1 C 32,2 km/h (5 Bft) 100,00 %
29.11.2018 21:04 -2,9 C 3,3 C -3,9 C 87 % 1021,8 hPa 0,0 l/m 17,6 km/h (3 Bft) O-SO 115 0 min 0,000 mm 0,0 UV-I 0 W/m -4,8 C -12,1 C 24,1 km/h (4 Bft) 98,31 %
29.11.2018 21:06 -2,9 C 3,3 C -3,9 C 87 % 1021,8 hPa 0,0 l/m 18,7 km/h (3 Bft) O 88 0 min 0,000 mm 0,0 UV-I 0 W/m -4,8 C -12,7 C 25,7 km/h (4 Bft) 97,73 %
29.11.2018 21:08 -2,9 C 3,3 C -3,9 C 87 % 1021,8 hPa 0,0 l/m 17,3 km/h (3 Bft) O-NO 78 0 min 0,000 mm 0,0 UV-I 0 W/m -4,8 C -11,9 C 24,1 km/h (4 Bft) 100,00 %
29.11.2018 21:10 -2,9 C 3,3 C -3,9 C 87 % 1021,8 hPa 0,0 l/m 15,3 km/h (3 Bft) O 88 0 min 0,000 mm 0,0 UV-I 0 W/m -4,8 C -10,7 C 24,1 km/h (4 Bft) 100,00 %
29.11.2018 21:12 -2,9 C 3,3 C -3,9 C 87 % 1021,8 hPa 0,0 l/m 15,6 km/h (3 Bft) O 101 0 min 0,000 mm 0,0 UV-I 0 W/m -4,8 C -10,9 C 22,5 km/h (4 Bft) 100,00 %
29.11.2018 21:14 -2,9 C 3,3 C -3,9 C 87 % 1021,8 hPa 0,0 l/m 13,9 km/h (3 Bft) O 101 0 min 0,000 mm 0,0 UV-I 0 W/m -4,8 C -9,7 C 24,1 km/h (4 Bft) 97,22 %
29.11.2018 21:16 -2,9 C 3,3 C -3,9 C 87 % 1021,9 hPa 0,0 l/m 16,3 km/h (3 Bft) O 101 0 min 0,000 mm 0,0 UV-I 0 W/m -4,8 C -11,3 C 22,5 km/h (4 Bft) 95,08 %
29.11.2018 21:18 -2,9 C 3,3 C -3,9 C 87 % 1021,9 hPa 0,0 l/m 17,1 km/h (3 Bft) O 84 0 min 0,000 mm 0,0 UV-I 0 W/m -4,8 C -11,8 C 22,5 km/h (4 Bft) 98,00 %
29.11.2018 21:20 -2,9 C 3,3 C -3,9 C 87 % 1021,9 hPa 0,0 l/m 16,5 km/h (3 Bft) O-NO 72 0 min 0,000 mm 0,0 UV-I 0 W/m -4,8 C -11,4 C 25,7 km/h (4 Bft) 98,00 %
29.11.2018 21:22 -3,0 C 3,3 C -3,9 C 87 % 1021,8 hPa 0,0 l/m 21,7 km/h (4 Bft) NO 51 0 min 0,000 mm 0,0 UV-I 0 W/m -4,9 C -14,3 C 25,7 km/h (4 Bft) 97,62 %
29.11.2018 21:24 -2,9 C 3,3 C -3,9 C 87 % 1021,9 hPa 0,0 l/m 17,2 km/h (3 Bft) O-NO 67 0 min 0,000 mm 0,0 UV-I 0 W/m -4,8 C -11,9 C 22,5 km/h (4 Bft) 95,74 %
29.11.2018 21:26 -3,0 C 3,3 C -3,9 C 87 % 1021,9 hPa 0,0 l/m 14,4 km/h (3 Bft) O 92 0 min 0,000 mm 0,0 UV-I 0 W/m -4,9 C -10,2 C 19,3 km/h (3 Bft) 98,00 %
29.11.2018 21:28 -3,0 C 3,3 C -3,9 C 87 % 1021,9 hPa 0,0 l/m 17,6 km/h (3 Bft) O-NO 78 0 min 0,000 mm 0,0 UV-I 0 W/m -4,9 C -12,2 C 25,7 km/h (4 Bft) 97,87 %
29.11.2018 21:30 -2,9 C 3,3 C -3,9 C 87 % 1021,8 hPa 0,0 l/m 18,8 km/h (3 Bft) O-NO 59 0 min 0,000 mm 0,0 UV-I 0 W/m -4,8 C -12,8 C 24,1 km/h (4 Bft) 97,73 %
29.11.2018 21:32 -2,9 C 3,3 C -3,9 C 87 % 1021,8 hPa 0,0 l/m 17,3 km/h (3 Bft) O 87 0 min 0,000 mm 0,0 UV-I 0 W/m -4,8 C -11,9 C 24,1 km/h (4 Bft) 93,18 %
29.11.2018 21:34 -2,9 C 3,3 C -3,9 C 87 % 1021,7 hPa 0,0 l/m 16,3 km/h (3 Bft) O-SO 103 0 min 0,000 mm 0,0 UV-I 0 W/m -4,8 C -11,3 C 22,5 km/h (4 Bft) 100,00 %
29.11.2018 21:36 -3,0 C 3,3 C -3,9 C 87 % 1021,7 hPa 0,0 l/m 18,1 km/h (3 Bft) O 96 0 min 0,000 mm 0,0 UV-I 0 W/m -4,9 C -12,5 C 24,1 km/h (4 Bft) 100,00 %
29.11.2018 21:39 -3,0 C 3,3 C -3,9 C 87 % 1021,7 hPa 0,0 l/m 19,8 km/h (3 Bft) O-NO 62 0 min 0,000 mm 0,0 UV-I 0 W/m -4,9 C -13,4 C 25,7 km/h (4 Bft) 100,00 %
29.11.2018 21:40 -3,0 C 3,3 C -3,9 C 87 % 1021,7 hPa 0,0 l/m 16,9 km/h (3 Bft) O-NO 63 0 min 0,000 mm 0,0 UV-I 0 W/m -4,9 C -11,8 C 22,5 km/h (4 Bft) 100,00 %
29.11.2018 21:42 -3,0 C 3,3 C -3,9 C 87 % 1021,7 hPa 0,0 l/m 18,4 km/h (3 Bft) O-NO 65 0 min 0,000 mm 0,0 UV-I 0 W/m -4,9 C -12,7 C 22,5 km/h (4 Bft) 100,00 %
29.11.2018 21:44 -3,1 C 3,3 C -3,9 C 87 % 1021,6 hPa 0,0 l/m 15,9 km/h (3 Bft) O 90 0 min 0,000 mm 0,0 UV-I 0 W/m -4,9 C -11,3 C 20,9 km/h (4 Bft) 98,00 %
29.11.2018 21:46 -3,1 C 3,3 C -3,9 C 87 % 1021,7 hPa 0,0 l/m 18,1 km/h (3 Bft) O 79 0 min 0,000 mm 0,0 UV-I 0 W/m -4,9 C -12,6 C 25,7 km/h (4 Bft) 97,56 %
29.11.2018 21:48 -3,1 C 3,3 C -3,9 C 87 % 1021,7 hPa 0,0 l/m 16,6 km/h (3 Bft) O 93 0 min 0,000 mm 0,0 UV-I 0 W/m -4,9 C -11,7 C 22,5 km/h (4 Bft) 100,00 %
29.11.2018 21:50 -3,1 C 3,3 C -3,9 C 87 % 1021,7 hPa 0,0 l/m 16,4 km/h (3 Bft) O 92 0 min 0,000 mm 0,0 UV-I 0 W/m -4,9 C -11,6 C 22,5 km/h (4 Bft) 100,00 %
29.11.2018 21:52 -3,1 C 3,3 C -3,9 C 87 % 1021,7 hPa 0,0 l/m 16,5 km/h (3 Bft) O 92 0 min 0,000 mm 0,0 UV-I 0 W/m -4,9 C -11,7 C 24,1 km/h (4 Bft) 100,00 %
29.11.2018 21:54 -3,1 C 3,3 C -3,9 C 87 % 1021,7 hPa 0,0 l/m 16,3 km/h (3 Bft) O-NO 78 0 min 0,000 mm 0,0 UV-I 0 W/m -4,9 C -11,6 C 24,1 km/h (4 Bft) 100,00 %
29.11.2018 21:56 -3,2 C 3,3 C -4,4 C 87 % 1021,7 hPa 0,0 l/m 15,6 km/h (3 Bft) O-NO 77 0 min 0,000 mm 0,0 UV-I 0 W/m -5,0 C -11,2 C 19,3 km/h (3 Bft) 96,00 %
29.11.2018 21:58 -3,2 C 3,3 C -4,4 C 87 % 1021,7 hPa 0,0 l/m 15,6 km/h (3 Bft) O 96 0 min 0,000 mm 0,0 UV-I 0 W/m -5,0 C -11,2 C 24,1 km/h (4 Bft) 97,92 %
29.11.2018 22:00 -3,2 C 3,3 C -4,4 C 87 % 1021,7 hPa 0,0 l/m 17,0 km/h (3 Bft) O-SO 104 0 min 0,000 mm 0,0 UV-I 0 W/m -5,0 C -12,1 C 22,5 km/h (4 Bft) 100,00 %
29.11.2018 22:02 -3,2 C 3,3 C -4,4 C 87 % 1021,7 hPa 0,0 l/m 15,7 km/h (3 Bft) O 88 0 min 0,025 mm 0,0 UV-I 0 W/m -5,0 C -11,3 C 24,1 km/h (4 Bft) 96,43 %
29.11.2018 22:04 -3,2 C 3,3 C -4,4 C 87 % 1021,8 hPa 0,0 l/m 14,1 km/h (3 Bft) O 96 0 min 0,000 mm 0,0 UV-I 0 W/m -5,0 C -10,2 C 17,7 km/h (3 Bft) 100,00 %
29.11.2018 22:06 -3,2 C 3,3 C -4,4 C 87 % 1021,8 hPa 0,0 l/m 16,9 km/h (3 Bft) O 87 0 min 0,000 mm 0,0 UV-I 0 W/m -5,0 C -12,1 C 22,5 km/h (4 Bft) 96,77 %
29.11.2018 22:09 -3,2 C 3,3 C -4,4 C 87 % 1021,8 hPa 0,0 l/m 15,9 km/h (3 Bft) O-NO 75 0 min 0,000 mm 0,0 UV-I 0 W/m -5,0 C -11,4 C 24,1 km/h (4 Bft) 97,26 %
29.11.2018 22:10 -3,2 C 3,3 C -4,4 C 87 % 1021,8 hPa 0,0 l/m 15,9 km/h (3 Bft) O 82 0 min 0,000 mm 0,0 UV-I 0 W/m -5,0 C -11,4 C 19,3 km/h (3 Bft) 100,00 %
29.11.2018 22:12 -3,2 C 3,3 C -4,4 C 87 % 1021,8 hPa 0,0 l/m 15,7 km/h (3 Bft) O-NO 63 0 min 0,000 mm 0,0 UV-I 0 W/m -5,0 C -11,3 C 22,5 km/h (4 Bft) 95,74 %
29.11.2018 22:14 -3,2 C 3,3 C -4,4 C 87 % 1021,8 hPa 0,0 l/m 16,6 km/h (3 Bft) O 100 0 min 0,000 mm 0,0 UV-I 0 W/m -5,0 C -11,9 C 24,1 km/h (4 Bft) 97,56 %
29.11.2018 22:16 -3,2 C 3,3 C -4,4 C 87 % 1021,8 hPa 0,0 l/m 14,9 km/h (3 Bft) O 90 0 min 0,000 mm 0,0 UV-I 0 W/m -5,0 C -10,8 C 22,5 km/h (4 Bft) 97,73 %
29.11.2018 22:18 -3,2 C 3,3 C -4,4 C 87 % 1021,8 hPa 0,0 l/m 12,7 km/h (3 Bft) O-SO 112 0 min 0,000 mm 0,0 UV-I 0 W/m -5,0 C -9,2 C 17,7 km/h (3 Bft) 94,64 %
29.11.2018 22:20 -3,3 C 3,3 C -4,4 C 87 % 1021,8 hPa 0,0 l/m 13,3 km/h (3 Bft) O 87 0 min 0,000 mm 0,0 UV-I 0 W/m -5,1 C -9,8 C 19,3 km/h (3 Bft) 97,56 %
29.11.2018 22:22 -3,3 C 3,3 C -4,4 C 87 % 1021,8 hPa 0,0 l/m 14,0 km/h (3 Bft) O-SO 107 0 min 0,000 mm 0,0 UV-I 0 W/m -5,1 C -10,3 C 17,7 km/h (3 Bft) 98,00 %
29.11.2018 22:24 -3,3 C 3,3 C -4,4 C 87 % 1021,8 hPa 0,0 l/m 12,6 km/h (3 Bft) O-NO 60 0 min 0,000 mm 0,0 UV-I 0 W/m -5,1 C -9,3 C 16,1 km/h (3 Bft) 94,29 %
29.11.2018 22:26 -3,3 C 3,3 C -4,4 C 87 % 1021,8 hPa 0,0 l/m 13,2 km/h (3 Bft) O 88 0 min 0,000 mm 0,0 UV-I 0 W/m -5,1 C -9,7 C 20,9 km/h (4 Bft) 96,23 %
29.11.2018 22:28 -3,3 C 3,3 C -4,4 C 87 % 1021,9 hPa 0,0 l/m 9,5 km/h (2 Bft) O-NO 66 0 min 0,000 mm 0,0 UV-I 0 W/m -5,1 C -6,6 C 19,3 km/h (3 Bft) 94,00 %
29.11.2018 22:30 -3,3 C 3,3 C -4,4 C 87 % 1021,9 hPa 0,0 l/m 14,9 km/h (3 Bft) O 94 0 min 0,000 mm 0,0 UV-I 0 W/m -5,1 C -10,9 C 20,9 km/h (4 Bft) 95,74 %
29.11.2018 22:32 -3,3 C 3,3 C -4,4 C 87 % 1021,9 hPa 0,0 l/m 12,4 km/h (3 Bft) O-NO 65 0 min 0,000 mm 0,0 UV-I 0 W/m -5,1 C -9,1 C 16,1 km/h (3 Bft) 95,24 %
29.11.2018 22:34 -3,4 C 3,3 C -4,4 C 87 % 1021,9 hPa 0,0 l/m 15,4 km/h (3 Bft) O-NO 65 0 min 0,000 mm 0,0 UV-I 0 W/m -5,2 C -11,4 C 24,1 km/h (4 Bft) 92,73 %
29.11.2018 22:36 -3,4 C 3,3 C -4,4 C 87 % 1021,8 hPa 0,0 l/m 12,6 km/h (3 Bft) O-NO 65 0 min 0,000 mm 0,0 UV-I 0 W/m -5,2 C -9,4 C 17,7 km/h (3 Bft) 100,00 %
29.11.2018 22:38 -3,4 C 3,3 C -4,4 C 87 % 1021,8 hPa 0,0 l/m 11,2 km/h (2 Bft) O-NO 74 0 min 0,000 mm 0,0 UV-I 0 W/m -5,2 C -8,3 C 14,5 km/h (3 Bft) 96,00 %
29.11.2018 22:40 -3,4 C 3,3 C -4,4 C 87 % 1021,7 hPa 0,0 l/m 14,4 km/h (3 Bft) O 90 0 min 0,000 mm 0,0 UV-I 0 W/m -5,2 C -10,7 C 20,9 km/h (4 Bft) 96,00 %
29.11.2018 22:42 -3,4 C 3,3 C -4,4 C 87 % 1021,7 hPa 0,0 l/m 15,9 km/h (3 Bft) O-NO 69 0 min 0,000 mm 0,0 UV-I 0 W/m -5,2 C -11,7 C 22,5 km/h (4 Bft) 97,87 %
29.11.2018 22:44 -3,4 C 3,3 C -4,4 C 87 % 1021,6 hPa 0,0 l/m 17,6 km/h (3 Bft) NO 53 0 min 0,000 mm 0,0 UV-I 0 W/m -5,2 C -12,7 C 24,1 km/h (4 Bft) 97,87 %
29.11.2018 22:46 -3,4 C 3,3 C -4,4 C 87 % 1021,6 hPa 0,0 l/m 17,4 km/h (3 Bft) O 95 0 min 0,000 mm 0,0 UV-I 0 W/m -5,2 C -12,6 C 27,4 km/h (4 Bft) 100,00 %
29.11.2018 22:48 -3,4 C 3,3 C -4,4 C 87 % 1021,6 hPa 0,0 l/m 17,2 km/h (3 Bft) O 92 0 min 0,000 mm 0,0 UV-I 0 W/m -5,2 C -12,5 C 25,7 km/h (4 Bft) 100,00 %
29.11.2018 22:50 -3,4 C 3,3 C -4,4 C 87 % 1021,5 hPa 0,0 l/m 17,7 km/h (3 Bft) O 84 0 min 0,000 mm 0,0 UV-I 0 W/m -5,2 C -12,8 C 25,7 km/h (4 Bft) 100,00 %
29.11.2018 22:52 -3,4 C 3,3 C -4,4 C 87 % 1021,6 hPa 0,0 l/m 16,2 km/h (3 Bft) O-SO 107 0 min 0,000 mm 0,0 UV-I 0 W/m -5,2 C -11,9 C 22,5 km/h (4 Bft) 100,00 %
29.11.2018 22:54 -3,4 C 3,3 C -4,4 C 87 % 1021,6 hPa 0,0 l/m 16,0 km/h (3 Bft) O 95 0 min 0,000 mm 0,0 UV-I 0 W/m -5,2 C -11,7 C 22,5 km/h (4 Bft) 100,00 %
29.11.2018 22:56 -3,4 C 3,3 C -4,4 C 87 % 1021,6 hPa 0,0 l/m 18,1 km/h (3 Bft) O-SO 110 0 min 0,000 mm 0,0 UV-I 0 W/m -5,2 C -13,0 C 25,7 km/h (4 Bft) 98,11 %
29.11.2018 22:58 -3,4 C 3,3 C -4,4 C 87 % 1021,6 hPa 0,0 l/m 16,5 km/h (3 Bft) O 94 0 min 0,000 mm 0,0 UV-I 0 W/m -5,2 C -12,1 C 24,1 km/h (4 Bft) 100,00 %
29.11.2018 23:00 -3,4 C 3,3 C -4,4 C 87 % 1021,7 hPa 0,0 l/m 15,9 km/h (3 Bft) O 85 0 min 0,000 mm 0,0 UV-I 0 W/m -5,2 C -11,7 C 24,1 km/h (4 Bft) 98,00 %
29.11.2018 23:02 -3,4 C 3,3 C -4,4 C 87 % 1021,7 hPa 0,0 l/m 15,6 km/h (3 Bft) O 93 0 min 0,026 mm 0,0 UV-I 0 W/m -5,2 C -11,5 C 20,9 km/h (4 Bft) 100,00 %
29.11.2018 23:04 -3,4 C 3,3 C -4,4 C 87 % 1021,7 hPa 0,0 l/m 15,7 km/h (3 Bft) O 92 0 min 0,000 mm 0,0 UV-I 0 W/m -5,2 C -11,6 C 22,5 km/h (4 Bft) 100,00 %
29.11.2018 23:06 -3,4 C 3,3 C -4,4 C 87 % 1021,7 hPa 0,0 l/m 16,1 km/h (3 Bft) O-SO 104 0 min 0,000 mm 0,0 UV-I 0 W/m -5,2 C -11,8 C 20,9 km/h (4 Bft) 100,00 %
29.11.2018 23:08 -3,4 C 3,3 C -4,4 C 87 % 1021,7 hPa 0,0 l/m 20,5 km/h (4 Bft) O 84 0 min 0,000 mm 0,0 UV-I 0 W/m -5,2 C -14,3 C 30,6 km/h (5 Bft) 100,00 %
29.11.2018 23:10 -3,4 C 3,3 C -4,4 C 87 % 1021,7 hPa 0,0 l/m 17,8 km/h (3 Bft) O-SO 102 0 min 0,000 mm 0,0 UV-I 0 W/m -5,2 C -12,8 C 29,0 km/h (5 Bft) 100,00 %
29.11.2018 23:12 -3,4 C 3,3 C -4,4 C 87 % 1021,6 hPa 0,0 l/m 16,9 km/h (3 Bft) O-SO 105 0 min 0,000 mm 0,0 UV-I 0 W/m -5,2 C -12,3 C 22,5 km/h (4 Bft) 98,08 %
29.11.2018 23:14 -3,5 C 3,3 C -4,4 C 87 % 1021,6 hPa 0,0 l/m 15,6 km/h (3 Bft) NO 53 0 min 0,000 mm 0,0 UV-I 0 W/m -5,3 C -11,6 C 22,5 km/h (4 Bft) 100,00 %
29.11.2018 23:16 -3,5 C 3,3 C -4,4 C 87 % 1021,6 hPa 0,0 l/m 18,4 km/h (3 Bft) O 101 0 min 0,000 mm 0,0 UV-I 0 W/m -5,3 C -13,3 C 27,4 km/h (4 Bft) 100,00 %
29.11.2018 23:18 -3,5 C 3,3 C -4,4 C 87 % 1021,6 hPa 0,0 l/m 19,4 km/h (3 Bft) O 81 0 min 0,000 mm 0,0 UV-I 0 W/m -5,3 C -13,8 C 29,0 km/h (5 Bft) 100,00 %
29.11.2018 23:20 -3,5 C 3,3 C -4,4 C 87 % 1021,5 hPa 0,0 l/m 20,1 km/h (4 Bft) O-SO 108 0 min 0,000 mm 0,0 UV-I 0 W/m -5,3 C -14,2 C 27,4 km/h (4 Bft) 98,00 %
29.11.2018 23:22 -3,5 C 3,3 C -4,4 C 87 % 1021,5 hPa 0,0 l/m 14,4 km/h (3 Bft) O 92 0 min 0,000 mm 0,0 UV-I 0 W/m -5,3 C -10,8 C 22,5 km/h (4 Bft) 100,00 %
29.11.2018 23:24 -3,6 C 3,3 C -4,4 C 87 % 1021,5 hPa 0,0 l/m 20,4 km/h (4 Bft) O 96 0 min 0,000 mm 0,0 UV-I 0 W/m -5,4 C -14,5 C 27,4 km/h (4 Bft) 100,00 %
29.11.2018 23:26 -3,6 C 3,3 C -4,4 C 87 % 1021,4 hPa 0,0 l/m 20,4 km/h (4 Bft) O-NO 78 0 min 0,000 mm 0,0 UV-I 0 W/m -5,4 C -14,5 C 29,0 km/h (5 Bft) 100,00 %
29.11.2018 23:28 -3,6 C 3,3 C -4,4 C 87 % 1021,4 hPa 0,0 l/m 16,0 km/h (3 Bft) O 99 0 min 0,000 mm 0,0 UV-I 0 W/m -5,4 C -12,0 C 20,9 km/h (4 Bft) 100,00 %
29.11.2018 23:30 -3,6 C 3,3 C -4,4 C 87 % 1021,5 hPa 0,0 l/m 15,1 km/h (3 Bft) O-SO 108 0 min 0,000 mm 0,0 UV-I 0 W/m -5,4 C -11,4 C 17,7 km/h (3 Bft) 97,56 %
29.11.2018 23:32 -3,6 C 3,3 C -4,4 C 87 % 1021,5 hPa 0,0 l/m 17,9 km/h (3 Bft) O-NO 77 0 min 0,000 mm 0,0 UV-I 0 W/m -5,4 C -13,1 C 27,4 km/h (4 Bft) 100,00 %
29.11.2018 23:34 -3,6 C 3,3 C -4,4 C 87 % 1021,5 hPa 0,0 l/m 19,3 km/h (3 Bft) O 84 0 min 0,000 mm 0,0 UV-I 0 W/m -5,4 C -13,9 C 25,7 km/h (4 Bft) 97,56 %
29.11.2018 23:36 -3,6 C 3,3 C -4,4 C 87 % 1021,5 hPa 0,0 l/m 17,7 km/h (3 Bft) O 83 0 min 0,000 mm 0,0 UV-I 0 W/m -5,4 C -13,0 C 24,1 km/h (4 Bft) 95,12 %
29.11.2018 23:39 -3,6 C 3,3 C -4,4 C 87 % 1021,4 hPa 0,0 l/m 19,1 km/h (3 Bft) O 90 0 min 0,000 mm 0,0 UV-I 0 W/m -5,4 C -13,8 C 27,4 km/h (4 Bft) 95,35 %
29.11.2018 23:40 -3,6 C 3,3 C -4,4 C 87 % 1021,4 hPa 0,0 l/m 15,2 km/h (3 Bft) O 89 0 min 0,000 mm 0,0 UV-I 0 W/m -5,4 C -11,5 C 24,1 km/h (4 Bft) 100,00 %
29.11.2018 23:42 -3,6 C 3,3 C -4,4 C 87 % 1021,4 hPa 0,0 l/m 19,8 km/h (3 Bft) O 84 0 min 0,000 mm 0,0 UV-I 0 W/m -5,4 C -14,2 C 29,0 km/h (5 Bft) 95,45 %
29.11.2018 23:44 -3,6 C 3,3 C -4,4 C 87 % 1021,3 hPa 0,0 l/m 20,3 km/h (4 Bft) O 83 0 min 0,000 mm 0,0 UV-I 0 W/m -5,4 C -14,4 C 27,4 km/h (4 Bft) 93,62 %
29.11.2018 23:46 -3,6 C 3,3 C -4,4 C 87 % 1021,3 hPa 0,0 l/m 20,7 km/h (4 Bft) O-NO 66 0 min 0,000 mm 0,0 UV-I 0 W/m -5,4 C -14,6 C 27,4 km/h (4 Bft) 95,56 %
29.11.2018 23:48 -3,6 C 3,3 C -4,4 C 87 % 1021,4 hPa 0,0 l/m 18,9 km/h (3 Bft) O 86 0 min 0,000 mm 0,0 UV-I 0 W/m -5,4 C -13,7 C 25,7 km/h (4 Bft) 94,55 %
29.11.2018 23:50 -3,6 C 3,3 C -4,4 C 87 % 1021,2 hPa 0,0 l/m 18,2 km/h (3 Bft) O-SO 105 0 min 0,000 mm 0,0 UV-I 0 W/m -5,4 C -13,3 C 24,1 km/h (4 Bft) 94,00 %
29.11.2018 23:52 -3,6 C 3,3 C -4,4 C 87 % 1021,2 hPa 0,0 l/m 16,8 km/h (3 Bft) O-NO 67 0 min 0,000 mm 0,0 UV-I 0 W/m -5,4 C -12,5 C 24,1 km/h (4 Bft) 94,87 %
29.11.2018 23:54 -3,6 C 3,3 C -4,4 C 87 % 1021,2 hPa 0,0 l/m 18,6 km/h (3 Bft) O 94 0 min 0,000 mm 0,0 UV-I 0 W/m -5,4 C -13,5 C 27,4 km/h (4 Bft) 91,49 %
29.11.2018 23:56 -3,6 C 3,3 C -4,4 C 87 % 1021,2 hPa 0,0 l/m 20,0 km/h (4 Bft) O 92 0 min 0,000 mm 0,0 UV-I 0 W/m -5,4 C -14,3 C 30,6 km/h (5 Bft) 98,00 %
29.11.2018 23:59 -3,6 C 3,3 C -4,4 C 87 % 1021,2 hPa 0,0 l/m 18,6 km/h (3 Bft) O 97 0 min 0,000 mm 0,0 UV-I 0 W/m -5,4 C -13,5 C 27,4 km/h (4 Bft) 97,37 %
_ Min-Zeit 07:02 06:10 00:32 12:14 23:50 - 01:06 - - - - - - 07:02 19:04 01:06 14:20
Minimum _ -5,1 C 3,3 C -6,7 C 82 % 1021,2 hPa - 3,6 km/h (1 Bft) - - - - - - -6,2 C -15,5 C 4,8 km/h (1 Bft) 88,00 %
_ Max-Zeit 13:48 00:00 12:58 00:00 02:46 00:00 16:42 - - 07:45 13:02 11:04 11:58 14:36 00:16 18:48 00:00
Maximum _ -0,8 C 3,9 C 0,0 C 93 % 1028,7 hPa 0,0 l/m 28,3 km/h
O-NO (4 Bft)
- - 3 min 0,127 mm 0,6 UV-I 314 W/m -2,8 C -3,9 C 41,8 km/h
O-NO (6 Bft)
100,00 %
Durchschnitt _ -3,1 C 3,6 C -3,9 C 88 % 1025,3 hPa #0,0 l/m 15,4 km/h (3 Bft) O - #6:31 h #0,737 mm 0,6 UV-I 165 W/m -4,7 C -10,3 C 22,0 km/h (4 Bft) 96,91 %